     2              OBSERVATION DATA    GPS                 RINEX VERSION / TYPE
teqc 2002Apr3 20040909 19:21:46UTC                          PGM / RUN BY / DATE
                                                            COMMENT
L2: 1 -> 1; 150 -> 5; 250 -> 9                              COMMENT
L2: 1 -> 1; 150 -> 5; 250 -> 9                              COMMENT
L2: 1 -> 1; 150 -> 5; 250 -> 9                              COMMENT
L2: 1 -> 1; 150 -> 5; 250 -> 9                              COMMENT
L2: 1 -> 1; 150 -> 5; 250 -> 9                              COMMENT
Original Marker Name: 6106                                  COMMENT
Campaign Name: SBVC December 2003                           COMMENT
4-Character Station Name: 6106                              COMMENT
6-Character Antenna Code: DMRCHT                            COMMENT
Vertical Measurement Point: BCR                             COMMENT
Vertical Offset to Rinex Ref. Point: 0.0348                 COMMENT
Radial Measurement Point: ECF                               COMMENT
Radial Offset to Rinex Ref. Point: 0.1897                   COMMENT
Antenna Height from Field Measurement: 1.0180 m             COMMENT
Additional Antenna Identification Info.:                    COMMENT
Turborogue and Ashtech Choke Ring                           COMMENT
Original XYZ: -2434654.2400 -4697691.1800 3550121.2500      COMMENT
New XYZ position is based on association with SCEC monument COMMENT
E1D0R8B2+0011. Position of that monument is believed to be  COMMENT
valid to within 1 m horizontally; vertical accuracy         COMMENT
should be no worse than 3-times this value.                 COMMENT
                                                            COMMENT
Revised Rinex header created by UCSD GPS archive for        COMMENT
GSAC on 09-Nov-2004 (2004:314) 22:42:53 GMT                 COMMENT
For assistance contact dagnew@ucsd.edu                      COMMENT
or anderson@python.ucsd.edu                                 COMMENT
                                                            COMMENT
6106                                                        MARKER NAME
___ CAL STATE SAN BERNARDINO                                OBSERVER / AGENCY
1012 ASHTECH Z-X ZE00                                       REC # / TYPE / VERS
3005 DORNE-MARGOL. TYPE T                                   ANT # / TYPE
 -2434645.0000 -4697678.0000  3550112.0000                  APPROX POSITION XYZ
        0.9654        0.0000        0.0000                  ANTENNA: DELTA H/E/N
     1     1     0                                          WAVELENGTH FACT L1/2
     7    C1    L1    L2    P1    P2    S1    S2            # / TYPES OF OBSERV
     0                                                      INTERVAL
  2003    12    16    17    18    0.000000                  TIME OF FIRST OBS
  2003    12    17     1     3   30.000000                  TIME OF LAST OBS
                                                            END OF HEADER
 03 12 16 17 18  0.0000000  0  6G31G28G27G 8G10G13
  21511426.2614    1790502.89253   1387622.51052  21511427.1264   21511425.8184
        55.0004         47.0004
  21692309.4574    1542267.65353   1208007.20252  21692310.7784   21692308.9204
        56.0004         48.0004
  20602300.9664    1675896.99754   1305377.20252  20602302.0374   20602300.3704
        57.0004         50.0004
  20815959.2264    1559687.26853   1218284.04152  20815959.1374   20815957.6334
        56.0004         49.0004
  23895954.7224    1745195.48753   1357881.38452  23895955.7124   23895956.0454
        45.0004         38.0004
  21842747.7144    1927513.50753   1496102.29852  21842749.7414   21842748.5194
        55.0004         47.0004
 03 12 16 17 18 30.0000000  0  6G31G28G27G 8G10G13
  21519099.9374    1830826.32243   1419043.35742  21519101.3054   21519099.4254
        55.0004         47.0004
  21682685.7704    1491694.52443   1168599.57842  21682686.9074   21682685.1464
        56.0004         48.0004
  20601972.2034    1674171.21644   1304032.42142  20601973.4174   20601972.5054
        57.0004         50.0004
  20807742.9974    1516511.84443   1184640.83842  20807742.8574   20807741.7124
        56.0004         49.0004
  23900254.7904    1767792.41843   1375489.33542  23900256.0054   23900258.0004
        44.0004         39.0004
  21859295.4234    2014472.48243   1563862.48142  21859296.9614   21859296.6044
        55.0004         47.0004
 03 12 16 17 19  0.0000000  0  6G31G28G27G 8G10G13
  21526884.0904    1871735.02943   1450920.26642  21526885.4094   21526883.8804
        55.0004         47.0004
  21673118.8784    1441421.08543   1129425.50642  21673119.9184   21673118.1994
        55.0004         48.0004
  20601685.0594    1672661.63744   1302856.11642  20601685.9484   20601685.0224
        57.0004         50.0004
  20799560.3294    1473510.72243   1151133.45642  20799560.3304   20799559.4194
        56.0004         49.0004
  23904643.1964    1790855.06943   1393460.18742  23904644.1824   23904648.5434
        45.0004         38.0004
  21875910.4914    2101782.54843   1631896.23842  21875912.2824   21875910.8454
        55.0004         47.0004
 03 12 16 17 19 30.0000000  0  6G31G28G27G 8G10G13
  21534782.2224    1913236.89843   1483259.36842  21534783.5674   21534782.5074
        55.0004         48.0004
  21663611.5414    1391456.57043   1090492.13742  21663612.4474   21663610.5414
        56.0004         48.0004
  20601440.5484    1671378.68543   1301856.40642  20601441.8114   20601441.0274
        56.0004         50.0004
  20791412.9084    1430694.39543   1117770.07142  20791412.5894   20791411.7274
        56.0004         49.0004
  23909122.9644    1814391.12743   1411799.94442  23909123.8204   23909125.9324
        45.0004         38.0004
  21892593.1444    2189451.04343   1700209.28542  21892594.5734   21892593.4474
        55.0004         47.0004
 03 12 16 17 20  0.0000000  0  6G31G28G27G 8G10G13
  21542789.3754    1955317.02643   1516049.07242  21542791.4284   21542789.8194
        55.0004         48.0004
  21654159.7294    1341787.54943   1051789.02642  21654160.7274   21654158.5184
        56.0004         48.0004
  20601237.4174    1670310.23643   1301023.83142  20601238.8994   20601237.6164
        56.0004         50.0004
  20783297.8294    1388050.23243   1084540.84342  20783297.5164   20783296.6704
        56.0004         49.0004
  23913688.9394    1838385.50443   1430496.84142  23913689.1054   23913692.0624
        45.0004         39.0004
  21909341.5714    2277462.57743   1768789.61242  21909343.4294   21909341.6124
        55.0004         47.0004
 03 12 16 17 20 30.0000000  0  6G31G28G27G 8G10G13
  21550911.8174    1998000.94943   1549309.25442  21550912.7874   21550911.5704
        55.0004         47.0004
  21644769.1584    1292440.85943   1013337.07442  21644770.1264   21644768.6764
        56.0004         48.0004
  20601080.1274    1669484.40243   1300380.31642  20601081.4144   20601080.3904
        56.0004         50.0004
  20775221.4314    1345606.41144   1051467.72542  20775220.9324   20775219.6034
        57.0004         50.0004
  23918346.5344    1862863.34443   1449570.42542  23918346.7144   23918347.6444
        45.0004         38.0004
  21926159.2094    2365841.88643   1837656.53042  21926161.0184   21926158.9744
        55.0004         47.0004
 03 12 16 17 21  0.0000000  0  6G31G28G27G 8G10G13
  21559145.6484    2041268.94943   1583024.56142  21559146.9614   21559145.8934
        55.0004         47.0004
  21635436.6504    1243398.29743    975122.11242  21635438.1534   21635436.4534
        56.0004         48.0004
  20600966.4084    1668884.08743   1299912.52542  20600967.2584   20600966.3254
        56.0004         50.0004
  20767179.6424    1303345.67344   1018537.27242  20767179.4544   20767177.8464
        57.0004         50.0004
  23923095.9404    1887804.66243   1469005.17542  23923095.9034   23923093.3034
        47.0004         38.0004
  21943043.4284    2454568.78443   1906794.29642  21943045.8514   21943043.3114
        55.0004         47.0004
 03 12 16 17 21 30.0000000  0  6G31G28G27G 8G10G13
  21567490.9264    2085124.47043   1617197.68842  21567491.4884   21567491.6374
        54.0004         47.0004
  21626163.2104    1194664.84143    937148.01542  21626164.2814   21626162.5014
        56.0004         48.0004
  20600896.3494    1668515.46944   1299625.27742  20600897.4774   20600896.2144
        57.0004         50.0004
  20759173.2884    1261274.37544    985754.44142  20759173.3554   20759171.7144
        57.0004         50.0004
  23927929.3684    1913212.76843   1488803.67042  23927928.6614   23927928.8944
        47.0004         38.0004
  21959994.5274    2543646.14043   1976205.15642  21959996.2034   21959994.0114
        55.0004         47.0004
 03 12 16 17 22  0.0000000  0  6G31G28G27G 8G10G13
  21575948.3574    2129566.28243   1651827.65142  21575949.4344   21575948.2734
        54.0004         47.0004
  21616948.1864    1146240.49943    899414.79542  21616949.3774   21616947.7384
        56.0004         49.0004
  20600870.3474    1668379.84343   1299519.57642  20600871.4354   20600869.8614
        56.0004         50.0004
  20751204.4484    1219393.79944    953120.21742  20751204.1524   20751202.1084
        57.0004         50.0004
  23932853.7374    1939086.27643   1508964.80342  23932854.6694   23932855.3994
        48.0004         39.0004
  21977011.3064    2633072.08143   2045887.63642  21977013.6304   21977011.7234
        54.0004         46.0004
 03 12 16 17 22 30.0000000  0  6G31G28G27G 8G10G13
  21584515.9974    2174590.54043   1686911.45242  21584517.4024   21584516.1724
        54.0004         47.0004
  21607791.9244    1098123.13243    861920.77042  21607792.9124   21607790.6354
        56.0004         48.0004
  20600888.6274    1668476.22244   1299594.66842  20600890.1904   20600888.8234
        57.0004         50.0004
  20743270.5134    1177702.80044    920633.71842  20743270.4254   20743269.1044
        57.0004         50.0004
  23937863.3944    1965420.81843   1529485.19942  23937863.5484   23937867.0734
        46.0004         39.0004
  21994094.2854    2722842.27043   2115838.36542  21994095.5594   21994094.9424
        54.0004         46.0004
 03 12 16 17 23  0.0000000  0  6G31G28G27G 8G10G13
  21593194.6064    2220195.82643   1722448.02242  21593195.8554   21593193.9294
        54.0004         47.0004
  21598693.3674    1050312.65643    824665.88042  21598695.0804   21598692.7714
        56.0004         48.0004
  20600951.5754    1668805.95944   1299851.59442  20600952.8334   20600951.7984
        57.0004         50.0004
  20735373.2524    1136202.54144    888295.84042  20735373.0054   20735371.7364
        57.0004         50.0004
  23942962.5144    1992214.89943   1550363.68142  23942962.1294   23942964.6044
        46.0004         39.0004
  22011242.1014    2812954.74343   2186055.79842  22011243.1084   22011242.9984
        54.0004         46.0004
 03 12 16 17 23 30.0000000  0  6G31G28G27G 8G10G13
  21601985.6314    2266392.02143   1758445.02742  21601986.5314   21601985.1774
        54.0004         47.0004
  21589656.1044    1002820.58343    787659.09442  21589657.1964   21589655.1124
        56.0004         48.0004
  20601060.8924    1669381.73344   1300300.22942  20601062.3284   20601061.2294
        57.0004         50.0004
  20727514.1864    1094905.74643    856116.50842  20727514.3444   20727513.1804
        56.0004         50.0004
  23948150.6784    2019478.41643   1571607.95242  23948151.5064   23948152.6764
        45.0004         39.0004
  22028456.9014    2903418.80743   2256547.21442  22028458.3944   22028457.3494
        54.0004         46.0004
 03 12 16 17 24  0.0000000  0  6G31G28G27G 8G10G13
  21610882.1854    2313147.80443   1794878.09042  21610883.8344   21610883.0344
        54.0004         47.0004
  21580673.8364     955617.07143    750877.15942  21580675.1164   21580672.6904
        55.0004         48.0004
  20601211.7964    1670174.93743   1300918.29442  20601213.3384   20601211.7574
        56.0004         50.0004
  20719689.9164    1053783.97744    824073.55942  20719689.2654   20719687.9724
        57.0004         50.0004
  23953421.4544    2047179.69243   1593193.34142  23953423.1854   23953423.1724
        46.0004         39.0004
  22045732.7854    2994202.59543   2327287.76442  22045735.3064   22045733.7954
        55.0004         46.0004
 03 12 16 17 24 30.0000000  0  6G31G28G27G 8G10G13
  21619891.1844    2360487.60443   1831766.21642  21619892.2324   21619890.3134
        54.0004         47.0004
  21571750.6534     908728.11843    714340.33142  21571751.8094   21571749.9234
        56.0004         48.0004
  20601409.9864    1671212.90544   1301727.08442  20601411.2074   20601409.4984
        57.0004         50.0004
  20711903.2334    1012864.46044    792188.21042  20711902.8334   20711901.5334
        57.0004         50.0004
  23958779.9854    2075342.86143   1615138.63642  23958781.2564   23958783.6614
        46.0004         39.0004
  22063073.9554    3085330.26743   2398296.27342  22063076.4544   22063074.5354
        55.0004         46.0004
 03 12 16 17 25  0.0000000  0  6G31G28G27G 8G10G13
  21629008.1384    2408397.76943   1869098.78642  21629008.9294   21629007.5254
        54.0004         46.0004
  21562885.8014     862141.34743    678038.97542  21562886.4484   21562885.1914
        55.0004         48.0004
  20601651.7704    1672484.71744   1302718.09142  20601653.0154   20601651.6074
        57.0004         50.0004
  20704152.5614     972136.11844    760451.83242  20704152.3754   20704150.9914
        57.0004         50.0004
  23964226.6114    2103954.12843   1637433.08042  23964226.0054   23964225.7584
        45.0004         39.0004
  22080477.5934    3176787.48343   2469561.55742  22080479.7314   22080478.1504
        55.0004         46.0004
 03 12 16 17 25 30.0000000  0  6G31G28G27G 8G10G13
  21638234.7644    2456882.68343   1906879.23142  21638235.0114   21638234.8424
        54.0004         46.0004
  21554079.9804     815863.12443    641978.04542  21554080.7344   21554078.4264
        56.0004         48.0004
  20601939.4974    1673997.81844   1303897.11242  20601940.4604   20601939.4614
        57.0004         50.0004
  20696440.0714     931606.42644    728870.24842  20696439.9724   20696438.1804
        57.0004         50.0004
  23969756.8324    2133017.92243   1660080.12642  23969755.8324   23969756.6254
        46.0004         39.0004
  22097944.4044    3268578.29243   2541086.79942  22097946.8394   22097945.8854
        54.0004         46.0004
 03 12 16 17 26  0.0000000  0  6G31G28G27G 8G10G13
  21647570.0424    2505940.54243   1945106.12742  21647571.4314   21647569.6904
        54.0004         46.0004
  21545331.2444     769892.85443    606157.07442  21545332.7404   21545330.7374
        56.0004         48.0004
  20602273.8294    1675753.11244   1305264.84642  20602275.0924   20602273.5434
        57.0004         50.0004
  20688765.4734     891276.25944    697444.12942  20688764.8334   20688763.5034
        57.0004         50.0004
  23975374.0264    2162532.12743   1683078.20442  23975375.5074   23975375.1454
        47.0004         39.0004
  22115475.0904    3360700.07743   2612869.91142  22115476.5134   22115475.8314
        54.0004         46.0004
 03 12 16 17 26 30.0000000  0  6G31G28G27G 8G10G13
  21657013.9694    2555567.35843   1983776.36142  21657014.3604   21657013.3964
        54.0004         46.0004
  21536641.5054     724228.08743    570574.16342  21536643.0894   21536640.7054
        55.0004         48.0004
  20602653.4754    1677749.51044   1306820.46242  20602654.7634   20602653.4484
        57.0004         50.0004
  20681128.3924     851144.60744    666172.70342  20681128.3354   20681127.2604
        57.0004         50.0004
  23981072.3934    2192492.35543   1706423.82442  23981073.2294   23981075.4824
        45.0004         39.0004
  22133068.0354    3453148.73343   2684907.75642  22133069.3974   22133067.8234
        54.0004         46.0004
 03 12 16 17 27  0.0000000  0  6G31G28G27G 8G10G13
  21666565.3184    2605762.11643   2022889.13842  21666566.9274   21666564.7174
        54.0004         46.0004
  21528010.7574     678869.63343    535229.94542  21528012.1004   21528009.7304
        56.0004         48.0004
  20603079.8224    1679989.00644   1308565.50142  20603081.0884   20603079.9904
        57.0004         50.0004
  20673529.7974     811213.36044    635057.43342  20673529.8974   20673528.4954
        57.0004         50.0004
  23986860.4184    2222897.56243   1730116.16442  23986862.3024   23986860.6854
        46.0004         39.0004
  22150721.9364    3545923.15943   2757199.43942  22150724.1204   22150722.5134
        54.0004         46.0004
 03 12 16 17 27 30.0000000  0  6G31G28G27G 8G10G13
  21676223.9514    2656521.51443   2062441.87942  21676225.3204   21676225.2074
        53.0004         46.0004
  21519436.7434     633815.77643    500123.06242  21519437.9414   21519436.2124
        56.0004         48.0004
  20603552.2154    1682471.31144   1310499.74242  20603553.2294   20603551.9834
        57.0004         50.0004
  20665969.3264     771482.36644    604098.19942  20665969.0444   20665968.1564
        57.0004         50.0004
  23992728.6974    2253744.18843   1754152.49142  23992729.9364   23992732.8864
        44.0004         39.0004
  22168438.2944    3639019.04543   2829741.62342  22168439.9294   22168439.0614
        55.0004         46.0004
 03 12 16 17 28  0.0000000  0  6G31G28G27G 8G10G13
  21685991.3984    2707845.67543   2102434.71742  21685992.4074   21685992.1134
        53.0004         46.0004
  21510921.1554     589068.31843    465254.94142  21510922.8894   21510921.0414
        56.0004         49.0004
  20604071.3144    1685199.36444   1312625.47342  20604072.3114   20604071.0684
        57.0004         50.0004
  20658446.7254     731954.42743    573297.19442  20658446.8384   20658445.9834
        56.0004         50.0004
  23998684.4794    2285032.45343   1778532.92742  23998685.1484   23998686.9444
        46.0004         40.0004
  22186214.2434    3732435.86643   2902533.87942  22186215.9654   22186213.9564
        54.0004         46.0004
 03 12 16 17 28 30.0000000  0  7G31G29G28G27G 8G10G13
  21695865.2234    2759731.56343   2142865.25642  21695866.2284   21695864.5814
        53.0004         46.0004
  24340625.5694    -654820.39653   -469676.85452  24340626.6244   24340625.3704
        44.0004         39.0004
  21502464.5534     544625.62643    430624.29742  21502466.0824   21502463.7744
        56.0004         49.0004
  20604637.1134    1688173.24244   1314942.75042  20604638.3374   20604636.9484
        57.0004         50.0004
  20650964.2024     692629.81144    542654.61842  20650963.8844   20650963.1854
        57.0004         50.0004
  24004719.6594    2316759.13643   1803254.97542  24004723.3024   24004725.2284
        46.0004         40.0004
  22204050.9064    3826170.94743   2975574.12142  22204053.8654   22204052.5854
        54.0004         46.0004
 03 12 16 17 29  0.0000000  0  7G31G29G28G27G 8G10G13
  21705845.0504    2812176.59143   2183731.48842  21705846.0784   21705844.6754
        53.0004         46.0004
  24322227.1104    -751501.83543   -545013.05842  24322230.4934   24322230.3634
        45.0004         39.0004
  21494065.0114     500486.98043    396230.58142  21494066.4684   21494064.3244
        56.0004         49.0004
  20605250.0424    1691393.35444   1317451.90142  20605251.1654   20605249.9244
        57.0004         50.0004
  20643519.8604     653508.88944    512170.76942  20643519.7794   20643518.4064
        57.0004         50.0004
  24010839.5644    2348921.28543   1828316.37042  24010839.5524   24010844.1784
        45.0004         39.0004
  22221949.1294    3920221.24143   3048859.98142  22221950.2954   22221949.0344
        53.0004         45.0004
 03 12 16 17 29 30.0000000  0  7G31G29G28G27G 8G10G13
  21715930.5294    2865179.01043   2225032.04242  21715931.1994   21715930.9224
        53.0004         45.0004
  24303863.0324    -848008.09243   -620212.74942  24303865.3994   24303863.0694
        46.0004         40.0004
  21485723.7744     456652.19943    362073.63342  21485725.0004   21485722.0184
        56.0004         49.0004
  20605909.8774    1694860.98944   1320153.92442  20605911.0274   20605909.8174
        57.0004         50.0004
  20636114.2494     614593.01844    481846.70842  20636114.1174   20636113.0044
        57.0004         50.0004
  24017044.2974    2381516.74653   1853715.39252  24017044.4034   24017044.5584
        46.0004         39.0004
  22239905.7124    4014584.19343   3122389.47642  22239907.3884   22239905.9654
        54.0004         45.0004
 03 12 16 17 30  0.0000000  0  7G31G29G28G27G 8G10G13
  21726123.3354    2918738.89243   2266766.98442  21726123.9594   21726123.0664
        53.0004         45.0004
  24285533.3354    -944334.87043   -695272.58642  24285535.1724   24285533.3154
        45.0004         39.0004
  21477440.0804     413123.00843    328154.81242  21477441.3594   21477439.1224
        56.0004         49.0004
  20606617.8134    1698579.28244   1323051.26942  20606619.0684   20606617.5734
        57.0004         50.0004
  20628748.4794     575885.33944    451684.86642  20628748.1794   20628747.1514
        57.0004         50.0004
  24023329.2554    2414545.72843   1879452.23842  24023330.7454   24023329.5324
        46.0004         39.0004
  22257921.9334    4109259.60043   3196162.44842  22257923.4364   22257923.1204
        53.0004         45.0004
 03 12 16 17 30 30.0000000  0  7G31G29G28G27G 8G10G13
  21736419.6864    2972850.73843   2308932.01242  21736421.6374   21736420.3084
        52.0004         45.0004
  24267236.5334   -1040483.05743   -770193.28042  24267237.6904   24267237.7394
        46.0004         40.0004
  21469213.8194     369895.55643    294471.09742  21469215.6244   21469213.4314
        56.0004         49.0004
  20607372.3574    1702545.78244   1326142.01642  20607373.3154   20607372.3684
        57.0004         50.0004
  20621421.7264     537383.23844    421683.21842  20621421.7104   20621420.6824
        57.0004         50.0004
  24029697.8534    2448002.42143   1905522.36142  24029697.8894   24029699.1194
        48.0004         40.0004
  22275996.2234    4204241.67743   3270174.38142  22275997.8344   22275996.5614
        53.0004         45.0004
 03 12 16 17 31  0.0000000  0  7G31G29G28G27G 8G10G13
  21746822.5864    3027515.81943   2351528.13542  21746824.1364   21746822.7354
        52.0004         44.0004
  24248975.0914   -1136446.94443   -844970.32942  24248976.8294   24248975.7244
        45.0004         40.0004
  21461046.2024     326972.90943    261024.89242  21461047.6304   21461045.8464
        56.0004         49.0004
  20608175.3354    1706764.94744   1329429.64742  20608176.5164   20608175.2014
        57.0004         50.0004
  20614135.0124     499091.55943    391845.53242  20614135.0604   20614133.7424
        56.0004         50.0004
  24036145.1764    2481888.27543   1931926.86942  24036147.6414   24036147.8644
        48.0004         40.0004
  22294129.2744    4299531.51543   3344426.14242  22294131.7174   22294129.3074
        53.0004         45.0004
 03 12 16 17 31 30.0000000  0  7G31G29G28G27G 8G10G13
  21757329.9664    3082731.10043   2394552.98142  21757331.0314   21757328.7324
        52.0004         44.0004
  24230750.5444   -1232225.17343   -919602.71542  24230751.9704   24230749.0894
        46.0004         40.0004
  21452936.8174     284353.54044    227815.00842  21452937.2494   21452935.6224
        57.0004         49.0004
  20609026.0814    1711236.69144   1332914.09542  20609027.4004   20609026.4404
        57.0004         50.0004
  20606888.0274     461010.12843    362171.67242  20606887.9004   20606887.1504
        56.0004         50.0004
  24042674.8694    2516199.98943   1958663.23642  24042674.4544   24042676.6054
        48.0004         40.0004
  22312321.2214    4395125.62143   3418914.97542  22312322.5364   22312321.8554
        54.0004         45.0004
 03 12 16 17 32  0.0000000  0  8G31G29G28G27G 7G 8G10G13
  21767940.9844    3138496.95843   2438006.85042  21767942.9734   21767941.5464
        51.0004         44.0004
  24212559.7694   -1327812.83243   -994086.62142  24212561.9104   24212559.6744
        46.0004         40.0004
  21444883.9564     242039.61543    194843.13542  21444885.1344   21444883.4324
        56.0004         49.0004
  20609925.6144    1715964.55944   1336598.12942  20609926.8164   20609925.5364
        57.0004         50.0004
  23884387.3194   -1917477.08653  -1477003.16452  23884389.2664   23884392.8564
        47.0004         41.0004
  20599682.4994     423142.55443    332664.45942  20599682.2424   20599681.3224
        56.0004         50.0004
  24049285.2894    2550937.60453   1985731.49752  24049285.4984   24049286.8454
        48.0004         40.0004
  22330568.6414    4491023.90043   3493640.81642  22330570.9384   22330570.3784
        53.0004         45.0004
 03 12 16 17 32 30.0000000  0  8G31G29G28G27G 7G 8G10G13
  21778657.8274    3194808.98943   2481886.32142  21778659.7844   21778659.1174
        52.0004         44.0004
  24194406.4394   -1423209.75343  -1068421.85342  24194406.8004   24194407.3744
        46.0004         40.0004
  21436890.0974     200028.70343    162107.36442  21436891.1614   21436889.3374
        56.0004         49.0004
  20610874.5424    1720947.26744   1340480.73242  20610875.5664   20610874.3294
        57.0004         50.0004
  23864541.1464   -2021774.06443  -1558273.32642  23864541.6624   23864544.0364
        48.0004         40.0004
  20592516.8274     385487.75044    303323.03942  20592516.8454   20592515.9114
        57.0004         50.0004
  24055974.9914    2586096.83943   2013128.25542  24055975.9734   24055976.6494
        46.0004         39.0004
  22348875.3924    4587221.63343   3568600.00142  22348878.1294   22348875.2144
        53.0004         45.0004
 03 12 16 17 33  0.0000000  0  8G31G29G28G27G 7G 8G10G13
  21789476.2194    3251663.21543   2526188.25042  21789476.5464   21789476.4394
        51.0004         44.0004
  24176287.7894   -1518415.36343  -1142608.05642  24176290.2244   24176288.9964
        44.0004         40.0004
  21428952.7424     158318.25743    129605.72842  21428953.9434   21428951.7954
        56.0004         49.0004
  20611870.4004    1726184.20544   1344561.43742  20611871.7894   20611871.1004
        57.0004         50.0004
  23844706.8214   -2125999.46643  -1639487.73042  23844708.6894   23844710.6004
        49.0004         41.0004
  20585392.2854     348044.84744    274146.73742  20585392.0314   20585390.3384
        57.0004         50.0004
  24062744.8644    2621673.27543   2040850.11742  24062744.9004   24062745.3084
        47.0004         39.0004
  22367237.5714    4683714.77443   3643789.37242  22367239.1564   22367238.0044
        54.0004         45.0004
 03 12 16 17 33 30.0000000  0  8G31G29G28G27G 7G 8G10G13
  21800400.2474    3309062.22543   2570914.69142  21800400.6044   21800401.3614
        52.0004         44.0004
  24158208.5054   -1613422.33443  -1216639.44242  24158210.6944   24158209.2964
        45.0004         40.0004
  21421072.9264     116912.65643     97341.63242  21421074.5804   21421072.3584
        56.0004         49.0004
  20612916.6424    1731681.09043   1348844.68842  20612917.9444   20612916.9124
        56.0004         50.0004
  23824887.7854   -2230146.15143  -1720640.89342  23824890.5994   23824891.8404
        48.0004         39.0004
  20578308.4034     310820.00844    245140.36142  20578308.7494   20578307.1284
        57.0004         50.0004
  24069593.4804    2657669.46653   2068899.10152  24069595.3534   24069596.1774
        47.0004         39.0004
  22385655.7804    4780505.70143   3719210.79942  22385657.5114   22385656.5824
        53.0004         45.0004
 03 12 16 17 34  0.0000000  0  8G31G29G28G27G 7G 8G10G13
  21811424.5754    3366998.93443   2616060.11242  21811424.4384   21811425.0754
        51.0004         44.0004
  24140166.8824   -1708233.53243  -1290518.25942  24140168.5464   24140167.5064
        45.0004         40.0004
  21413250.4814      75806.67443     65310.99942  21413252.3894   21413250.1614
        56.0004         49.0004
  20614011.6364    1737433.95344   1353327.41242  20614013.1424   20614011.7404
        57.0004         50.0004
  23805083.7544   -2334216.73643  -1801734.65842  23805084.2154   23805086.7204
        48.0004         39.0004
  20571265.5464     273809.08744    216300.67542  20571265.5804   20571263.9294
        57.0004         50.0004
  24076523.8104    2694078.21243   2097269.50042  24076523.1104   24076525.5214
        47.0004         39.0004
  22404129.9314    4877586.84243   3794858.35442  22404132.0914   22404131.5674
        53.0004         45.0004
 03 12 16 17 34 30.0000000  0  8G31G29G28G27G 7G 8G10G13
  21822552.1854    3425475.14243   2661625.92742  21822553.5024   21822552.4894
        51.0004         44.0004
  24122163.4254   -1802842.35743  -1364239.40642  24122164.8874   24122164.7594
        44.0004         39.0004
  21405486.6844      35003.98743     33516.69542  21405487.5934   21405485.9544
        56.0004         49.0004
  20615156.2254    1743448.04944   1358013.69042  20615157.0814   20615156.2284
        57.0004         50.0004
  23785295.7994   -2438204.92143  -1882764.33042  23785298.7254   23785296.9194
        48.0004         39.0004
  20564264.3114     237017.34044    187631.77242  20564264.6134   20564262.5294
        57.0004         50.0004
  24083530.5494    2730901.24443   2125962.72742  24083532.1214   24083530.6754
        47.0004         39.0004
  22422659.9064    4974959.90243   3870733.38742  22422661.2474   22422659.8444
        53.0004         44.0004
 03 12 16 17 35  0.0000000  0  8G31G29G28G27G 7G 8G10G13
  21833781.7734    3484485.85343   2707608.23542  21833783.4434   21833781.6144
        51.0004         43.0004
  24104198.5064   -1897249.13743  -1437803.10842  24104200.7204   24104199.8864
        46.0004         40.0004
  21397779.3654      -5498.99243      1955.91642  21397780.3454   21397777.9804
        56.0004         49.0004
  20616349.8324    1749721.31744   1362901.92342  20616350.9704   20616349.9434
        57.0004         50.0004
  23765522.3924   -2542111.24743  -1963730.23342  23765523.0604   23765524.5464
        48.0004         38.0004
  20557304.2884     200443.05444    159132.31642  20557304.0674   20557302.9994
        57.0004         50.0004
  24090616.2114    2768133.37243   2154974.73242  24090617.9934   24090613.1964
        49.0004         39.0004
  22441244.3674    5072619.41943   3946831.61242  22441246.3294   22441244.9304
        54.0004         45.0004
 03 12 16 17 35 30.0000000  0  8G31G29G28G27G 7G 8G10G13
  21845111.7954    3544030.57043   2754006.64242  21845113.4084   21845112.7664
        50.0004         43.0004
  24086272.3584   -1991449.76943  -1511206.17642  24086274.3834   24086274.2344
        45.0004         40.0004
  21390128.7354     -45701.06543    -29370.38442  21390130.4754   21390128.0374
        56.0004         49.0004
  20617593.2484    1756256.57244   1367994.30942  20617594.5564   20617593.4734
        57.0004         50.0004
  23745766.4864   -2645931.70443                                  23745771.1424
        49.0004
  20550386.1284     164089.04743    130804.50242  20550385.9564   20550385.4844
        56.0004         50.0004
  24097780.0104    2805773.94643   2184304.99342  24097780.4864   24097779.1804
        49.0004         40.0004
  22459882.0114    5170564.79543   4023152.58342  22459883.7584   22459882.9304
        53.0004         45.0004
 03 12 16 17 36  0.0000000  0  8G31G29G28G27G 7G 8G10G13
  21856545.3644    3604107.06843   2800819.41842  21856545.9194   21856545.2834
        51.0004         43.0004
  24068386.9734   -2085441.68643  -1584446.63742  24068388.4544   24068388.3844
        47.0004         40.0004
  21382535.5224     -85601.87443    -60461.94442  21382537.2784   21382535.3844
        56.0004         49.0004
  20618887.4474    1763054.94244   1373291.71242  20618888.3844   20618886.9714
        57.0004         50.0004
  23726028.0724   -2749663.80243  -2125459.45342  23726027.8854   23726031.3084
        49.0004         39.0004
  20543510.3684     127956.39743    102649.16942  20543510.2794   20543509.4924
        56.0004         50.0004
  24105017.5204    2843820.66843   2213951.74442  24105020.7904   24105021.6224
        47.0004         39.0004
  22478574.7444    5268793.61343   4099694.42842  22478576.2644   22478575.3394
        52.0004         45.0004
 03 12 16 17 36 30.0000000  0  8G31G29G28G27G 7G 8G10G13
  21868078.8734    3664713.46443   2848045.14142  21868078.8204   21868077.9814
        51.0004         43.0004
  24050541.4104   -2179222.15443  -1657522.28942  24050543.2884   24050542.8214
        46.0004         40.0004
  21375000.6044    -125201.94743    -91319.15142  21375001.9474   21374999.9844
        56.0004         49.0004
  20620231.1934    1770117.88444   1378795.28342  20620232.4654   20620231.3984
        57.0004         50.0004
  23706303.8534   -2853304.82943  -2206218.75542  23706304.6484   23706311.4414
        46.0004         38.0004
  20536677.4004      92047.04644     74667.84642  20536677.2594   20536676.1764
        57.0004         50.0004
  24112335.0224    2882271.63443   2243913.49142  24112335.1034   24112336.5274
        47.0004         39.0004
  22497320.2104    5367303.69743   4176455.44942  22497321.1134   22497319.3994
        52.0004         44.0004
 03 12 16 17 37  0.0000000  0  8G31G29G28G27G 7G 8G10G13
  21879710.8744    3725846.38443   2895681.12642  21879711.9764   21879710.8414
        51.0004         43.0004
  24032736.1384   -2272789.83343  -1730432.18042  24032738.1904   24032738.5894
        46.0004         40.0004
  21367521.9974    -164502.98243   -121943.34942  21367523.2984   21367520.9714
        56.0004         49.0004
  20621625.4454    1777444.99044   1384504.68642  20621626.2644   20621625.5944
        57.0004         50.0004
  23686599.3274   -2956853.65943  -2286906.17742  23686601.7704   23686601.1574
        46.0004         38.0004
  20529886.1364      56360.49744     46860.12742  20529886.3114   20529885.3444
        57.0004         50.0004
  24119728.5374    2921123.11543   2274187.34842  24119728.5994   24119729.7504
        48.0004         40.0004
  22516118.8334    5466091.38843   4253432.78542  22516120.3644   22516120.4444
        52.0004         44.0004
 03 12 16 17 37 30.0000000  0  8G31G29G28G27G 7G 8G10G13
  21891444.3634    3787504.04343   2943725.98542  21891445.6554   21891444.5114
        51.0004         43.0004
  24014970.7104   -2366141.95443  -1803174.06642  24014973.1814   24014973.5294
        47.0004         40.0004
  21360099.9844    -203504.87943   -152334.45642  21360101.3974   21360099.1334
        56.0004         49.0004
  20623070.5604    1785038.22044   1390421.46542  20623071.7104   20623070.4684
        57.0004         50.0004
  23666914.0144   -3060307.34643  -2367519.56442  23666914.3224   23666918.4214
        46.0004         39.0004
  20523138.4524      20898.69544     19227.54042  20523138.0704   20523137.0504
        57.0004         50.0004
  24127196.0044    2960373.28443   2304771.81142  24127197.3524   24127200.0054
        47.0004         39.0004
  22534970.1934    5565154.83543   4330625.02142  22534972.0764   22534970.7464
        52.0004         44.0004
 03 12 16 17 38  0.0000000  0  8G31G29G28G27G 7G 8G10G13
  21903278.2584    3849686.41343   2992179.73742  21903278.9724   21903276.1164
        52.0004         43.0004
  23997248.3804   -2459273.56643  -1875744.14242  23997251.5154   23997251.1384
        47.0004         40.0004
  21352735.3284    -242205.70843   -182490.96642  21352736.4584   21352734.7114
        56.0004         49.0004
  20624566.6834    1792900.52444   1396547.91142  20624567.8914   20624566.7334
        57.0004         50.0004
  23647244.7984   -3163661.38843  -2448055.23542  23647244.2384   23647249.9064
        44.0004         38.0004
  20516433.8974     -14335.00844     -8227.30842  20516433.5634   20516432.3724
        57.0004         50.0004
  24134742.8504    3000021.86543   2335666.77542  24134743.2644   24134746.3874
        47.0004         40.0004
  22553873.7714    5664493.64343   4408031.80542  22553875.7914   22553874.1764
        51.0004         44.0004
 03 12 16 17 38 30.0000000  0  8G31G29G28G27G 7G 8G10G13
  21915207.3414    3912388.43843   3041038.42642  21915211.5104   21915208.3864
        50.0004         43.0004
  23979569.1124   -2552185.07243  -1948142.72642  23979570.0384   23979570.4044
        47.0004         40.0004
  21345427.5854    -280608.78643   -212415.46142  21345428.6084   21345426.7864
        56.0004         49.0004
  20626113.7444    1801030.47844   1402882.90842  20626115.0504   20626114.3194
        57.0004         50.0004
  23627599.2104   -3266915.96443  -2528513.45242  23627596.2994   23627601.9084
        46.0004         39.0004
  20509771.7084     -49341.96044    -35505.47442  20509771.6974   20509770.8724
        57.0004         50.0004
  24142360.7604    3040063.96143   2366868.34042  24142360.3284   24142364.5944
        47.0004         40.0004
  22572829.2714    5764102.65843   4485649.13742  22572830.5764   22572830.4874
        52.0004         44.0004
 03 12 16 17 39  0.0000000  0  8G31G29G28G27G 7G 8G10G13
  21927240.1704    3975607.88443   3090300.28342  21927239.3554   21927238.9514
        50.0004         43.0004
  23961931.1184   -2644873.85043  -2020367.73442  23961932.3944   23961930.4054
        47.0004         40.0004
  21338176.0364    -318714.57243   -242108.30442  21338177.0804   21338175.5114
        56.0004         49.0004
  20627711.9654    1809429.02944   1409427.20242  20627713.3604   20627712.1714
        57.0004         50.0004
  23607969.0404   -3370068.91443  -2608892.46642  23607969.9874   23607970.4674
        47.0004         39.0004
  20503153.7224     -84121.22944    -62606.23142  20503153.6044   20503152.2714
        57.0004         50.0004
  24150055.8774    3080497.11243   2398374.64242  24150055.5464   24150058.8234
        47.0004         40.0004
  22591834.6374    5863979.62643   4563475.24442  22591836.8754   22591836.8674
        52.0004         44.0004
 03 12 16 17 39 30.0000000  0  8G31G29G28G27G 7G 8G10G13
  21939367.3164    4039345.81043   3139966.15342  21939367.6034   21939368.4564
        50.0004         43.0004
  23944335.9994   -2737334.08243  -2092414.69042  23944338.2644   23944335.2804
        47.0004         39.0004
  21330982.5164    -356519.96744   -271567.07642  21330983.4504   21330981.8854
        57.0004         49.0004
  20629362.2024    1818100.71744   1416184.33242  20629363.4904   20629362.0844
        57.0004         50.0004
  23588358.0354   -3473114.24943  -2689187.60842  23588359.0144   23588364.6164
        47.0004         40.0004
  20496579.6214    -118667.85544    -89525.70842  20496579.5694   20496578.1764
        57.0004         50.0004
  24157824.3874    3121322.26843   2430186.42042  24157825.1104   24157826.1914
        47.0004         40.0004
  22610892.4864    5964125.28143   4641510.72842  22610893.8314   22610894.6074
        52.0004         44.0004
 03 12 16 17 40  0.0000000  0  8G31G29G28G27G 7G 8G10G13
  21951593.5504    4103587.36243   3190024.45742  21951594.2294   21951593.5804
        51.0004         43.0004
  23926784.5694   -2829575.64943  -2164291.22642  23926786.0934   23926783.6324
        48.0004         40.0004
  21323843.3464    -394038.01044   -300801.93542  21323844.2874   21323842.0334
        57.0004         49.0004
  20631062.0314    1827033.98144   1423145.29242  20631063.1304   20631061.9994
        57.0004         50.0004
  23568768.3534   -3576062.15043  -2769406.88242  23568768.6104   23568773.2604
        47.0004         40.0004
  20490047.5274    -152993.50643   -116272.98842  20490047.5714   20490045.8124
        56.0004         50.0004
  24165667.5274    3162524.60843   2462292.05942  24165667.7524   24165668.0564
        48.0004         41.0004
  22629997.6354    6064524.60443   4719743.86842  22629999.6734   22629999.2704
        53.0004         44.0004
 03 12 16 17 40 30.0000000  0  8G31G29G28G27G 7G 8G10G13
  21963916.6324    4168349.43443   3240488.34242  21963918.2154   21963917.8554
        50.0004         43.0004
  23909276.2674   -2921577.04743  -2235980.61042  23909280.2514   23909275.1674
        47.0004         39.0004
  21316761.8654    -431249.88544   -329798.21142  21316763.0044   21316760.5824
        57.0004         49.0004
  20632816.0294    1836249.22844   1430325.97942  20632817.1374   20632815.7244
        57.0004         50.0004
  23549200.7634   -3678891.00943  -2849533.32342  23549201.7414   23549204.8704
        48.0004         40.0004
  20483561.9474    -187077.29344   -142831.81442  20483561.5444   20483560.8204
        57.0004         50.0004
  24173583.2334    3204120.72843   2494704.54042  24173583.8404   24173584.5254
        48.0004         41.0004
  22649154.5854    6165194.71243   4798188.04042  22649156.5734   22649155.0294
        52.0004         44.0004
 03 12 16 17 41  0.0000000  0  8G31G29G28G27G 7G 8G10G13
  21976337.5954    4233619.87443   3291348.35342  21976339.2504   21976337.2594
        50.0004         43.0004
  23891813.8444   -3013345.41843  -2307488.45942  23891813.8754   23891811.8414
        49.0004         40.0004
  21309736.5074    -468165.99844   -358564.03142  21309738.1194   21309735.7324
        57.0004         49.0004
  20634621.4374    1845737.66444   1437719.53442  20634622.3434   20634621.7794
        57.0004         50.0004
  23529654.9264   -3781608.31243  -2929572.86642  23529655.7984   23529659.1914
        47.0004         41.0004
  20477120.0124    -220928.16943   -169209.14942  20477119.7584   20477119.0054
        56.0004         50.0004
  24181570.2344    3246098.36743   2527414.33142  24181570.9254   24181572.6734
        47.0004         41.0004
  22668360.7104    6266123.05043   4876833.41542  22668361.9484   22668362.7414
        53.0004         44.0004
 03 12 16 17 41 30.0000000  0  8G31G29G28G27G 7G 8G10G13
  21988854.5354    4299400.36443   3342605.83642  21988855.9254   21988856.0674
        49.0004         42.0004
  23874395.9474   -3104874.19643  -2378809.56242  23874397.6324   23874396.7054
        48.0004         40.0004
  21302768.8754    -504782.56644   -387096.42842  21302770.1274   21302767.8504
        57.0004         49.0004
  20636480.2034    1855504.42744   1445329.96342  20636480.8754   20636480.3104
        57.0004         50.0004
  23510131.4174   -3884207.67943  -3009520.49342  23510132.0664   23510134.7404
        49.0004         41.0004
  20470723.8354    -254540.79244   -195400.83642  20470723.7084   20470722.8044
        57.0004         50.0004
  24189629.8494    3288459.20343   2560422.74242  24189630.6694   24189631.8904
        47.0004         41.0004
  22687616.2434    6367311.13543   4955681.18642  22687618.2354   22687617.5074
        52.0004         44.0004
 03 12 16 17 42  0.0000000  0  8G31G29G28G27G 7G 8G10G13
  22001467.9154    4365681.27443   3394253.22542  22001469.1244   22001468.0564
        50.0004         43.0004
  23857023.6594   -3196168.07043  -2449947.67142  23857025.4014   23857021.5684
        48.0004         39.0004
  21295856.5934    -541107.36643   -415401.47442  21295857.8554   21295855.5874
        56.0004         49.0004
  20638390.1714    1865543.24444   1453152.38342  20638391.5974   20638390.8204
        57.0004         50.0004
  23490628.1124   -3986693.72043  -3089379.75042  23490630.4304   23490632.2644
        49.0004         42.0004
  20464371.8364    -287921.08644   -221411.48442  20464372.0454   20464370.7984
        57.0004         50.0004
  24197762.9244    3331193.71143   2593722.27842  24197762.7354   24197765.0644
        47.0004         41.0004
  22706919.4594    6468749.34343   5034723.86342  22706921.8014   22706919.8504
        52.0004         44.0004
 03 12 16 17 42 30.0000000  0  8G31G29G28G27G 7G 8G10G13
  22014176.6694    4432466.55943   3446293.64542  22014177.0984   22014177.2864
        50.0004         42.0004
  23839696.3504   -3287218.29843  -2520895.89642  23839697.5814   23839696.8484
        47.0004         40.0004
  21289000.4894    -577134.67243   -443474.70542  21289001.8584   21289000.0434
        56.0004         49.0004
  20640353.9074    1875861.72644   1461192.72742  20640354.9664   20640354.0944
        57.0004         50.0004
  23471149.0864   -4089057.79443  -3169143.99942  23471151.4284   23471153.6674
        49.0004         42.0004
  20458065.6234    -321061.40644   -247235.14142  20458065.2344   20458064.1654
        57.0004         50.0004
  24205965.8674    3374305.60343   2627315.94242  24205967.0554   24205968.6784
        47.0004         41.0004
  22726270.0944    6570441.44543   5113964.37042  22726271.8234   22726272.2534
        51.0004         44.0004
 03 12 16 17 43  0.0000000  0  8G31G29G28G27G 7G 8G10G13
  22026981.7714    4499752.91943   3498724.50342  22026983.4054   22026981.0904
        50.0004         43.0004
  23822416.0274   -3378023.20143  -2591652.96342  23822415.8994   23822415.1564
        47.0004         40.0004
  21282201.5364    -612865.56744   -471316.96642  21282202.7424   21282200.6904
        57.0004         49.0004
  20642371.1254    1886459.84844   1469450.96742  20642372.1474   20642370.9424
        57.0004         50.0004
  23451694.8224   -4191298.43243  -3248811.99742  23451696.4444   23451696.3164
        50.0004         42.0004
  20451805.1184    -353961.29344   -272871.45242  20451804.5514   20451803.7244
        57.0004         50.0004
  24214239.4444    3417791.55943   2661201.00042  24214240.8864   24214246.8204
        45.0004         40.0004
  22745669.3904    6672384.17343   5193400.15342  22745671.4964   22745672.0294
        52.0004         44.0004
 03 12 16 17 43 30.0000000  0  8G31G29G28G27G 7G 8G10G13
  22039884.0344    4567564.30643   3551564.46242  22039885.1394   22039885.6354
        49.0004         42.0004
  23805189.2874   -3468553.89443  -2662196.32642  23805190.8164   23805190.4194
        47.0004         41.0004
  21275463.4354    -648274.36743   -498908.24142  21275464.6914   21275462.7154
        56.0004         49.0004
  20644445.7064    1897365.10244   1477948.52642  20644447.1604   20644446.3604
        57.0004         50.0004
  23432268.0724   -4293386.93243  -3328361.40242  23432269.8014   23432269.4314
        51.0004         42.0004
  20445595.4424    -386593.32344   -298299.04442  20445595.2134   20445594.6044
        57.0004         50.0004
  24222593.5314    3461675.05643   2695395.90342  24222592.6634   24222593.8664
        47.0004         40.0004
  22765120.7694    6774601.27843   5273049.74742  22765122.7924   22765123.2534
        52.0004         44.0004
 03 12 16 17 44  0.0000000  0  8G31G29G28G27G 7G 8G10G13
  22052872.8404    4635814.80643   3604746.57342  22052874.0664   22052872.7334
        49.0004         42.0004
  23787999.1014   -3558891.20043  -2732589.01942  23787999.2444   23788001.2954
        48.0004         41.0004
  21268770.0654    -683445.15043   -526314.03842  21268771.7674   21268769.5854
        56.0004         49.0004
  20646563.7194    1908495.11344   1486621.22842  20646565.3194   20646564.0214
        57.0004         50.0004
  23412854.2114   -4395404.34843  -3407855.40342  23412856.1794   23412859.1944
        51.0004         43.0004
  20439420.8514    -419039.56243   -323581.85942  20439420.4984   20439420.1904
        56.0004         50.0004
  24231005.9394    3505870.28553   2729833.63352  24231005.4544   24231002.8554
        48.0004         39.0004
  22784608.6544    6877006.67943   5352846.07342  22784610.4994   22784609.6494
        52.0004         43.0004
 03 12 16 17 44 30.0000000  0  8G31G29G28G27G 7G 8G10G13
  22065960.4464    4704581.02843   3658330.55742  22065960.8544   22065959.6204
        50.0004         43.0004
  23770859.8524   -3648953.99243  -2802767.81142  23770862.0974   23770860.6244
        48.0004         41.0004
  21262138.2094    -718299.23143   -553473.06542  21262139.4014   21262137.2414
        56.0004         49.0004
  20648739.8914    1919929.92344   1495531.43242  20648741.1724   20648740.0744
        57.0004         50.0004
  23393469.7844   -4497269.27643  -3487230.54342  23393471.7454   23393472.9504
        51.0004         42.0004
  20433297.5194    -451219.60044   -348657.25442  20433297.0674   20433296.2414
        57.0004         50.0004
  24239487.9664    3550453.86743   2764574.04942  24239488.3664   24239488.7744
        46.0004         40.0004
  22804146.4114    6979676.96643   5432848.80242  22804148.2814   22804145.9244
        53.0004         43.0004
 03 12 16 17 45  0.0000000  0  8G31G29G28G27G 7G 8G10G13
  22079138.8434    4773841.06643   3712299.29942  22079140.8994   22079139.2484
        50.0004         43.0004
  23753770.5934   -3738758.88343  -2872745.62442  23753773.1744   23753772.3154
        48.0004         41.0004
  21255561.9194    -752856.70043   -580400.96642  21255563.0664   21255561.2954
        56.0004         49.0004
  20650970.5164    1931651.15444   1504664.82042  20650971.4934   20650970.5924
        57.0004         50.0004
  23374110.9214   -4598998.83043  -3566500.20042  23374113.9564   23374117.2384
        50.0004         42.0004
  20427220.7774    -483152.07943   -373539.74942  20427220.8714   20427220.0974
        56.0004         50.0004
  24248041.6804    3595403.90143   2799599.96642  24248043.0804   24248042.2314
        46.0004         39.0004
  22823729.3494    7082590.44543   5513040.98642  22823730.6284   22823731.0954
        51.0004         43.0004
 03 12 16 17 45 30.0000000  0  8G31G29G28G27G 7G 8G10G13
  22092411.5794    4843589.91143   3766648.96542  22092413.8424   22092413.3404
        50.0004         43.0004
  23736730.2444   -3828305.61143  -2942522.30642  23736732.4954   23736732.3304
        49.0004         41.0004
  21249041.8594    -787120.48943   -607100.02942  21249043.0554   21249040.7844
        56.0004         49.0004
  20653255.2844    1943657.29944   1514020.22542  20653256.7144   20653255.6314
        57.0004         50.0004
  23354776.9944   -4700593.02343  -3645664.33842  23354779.8454   23354783.1674
        49.0004         42.0004
  20421191.2884    -514837.61744   -398229.81042  20421191.0414   20421190.3784
        57.0004         50.0004
  24256664.7754    3640715.09943   2834907.29042  24256666.0934   24256665.1704
        46.0004         41.0004
  22843358.7794    7185741.84143   5593418.61842  22843359.2724   22843359.7164
        51.0004         43.0004
 03 12 16 17 46  0.0000000  0  8G31G29G28G27G 7G 8G10G13
  22105776.8784    4913824.91143   3821377.41942  22105779.1024   22105779.0024
        50.0004         43.0004
  23719740.3024   -3917592.31843  -3012096.31942  23719740.5254   23719739.5224
        49.0004         41.0004
  21242577.2384    -821091.36144   -633570.85242  21242579.1474   21242576.4444
        57.0004         49.0004
  20655593.9954    1955949.18043   1523598.27942  20655595.3404   20655594.1664
        56.0004         50.0004
  23335470.2654   -4802049.82543  -3724721.40742  23335473.4294   23335472.5664
        49.0004         41.0004
  20415208.7654    -546275.54044   -422726.93842  20415208.9554   20415207.6964
        57.0004         50.0004
  24265354.4674    3686384.83743   2870494.04042  24265356.3744   24265354.6284
        45.0004         39.0004
  22863031.3404    7289128.54243   5673979.59042  22863033.7194   22863034.6974
        50.0004         42.0004
 03 12 16 17 46 30.0000000  0  8G31G29G28G27G 7G 8G10G13
  22119233.3274    4984542.10943   3876481.66142  22119235.8174   22119234.6904
        49.0004         43.0004
  23702798.7804   -4006617.78143  -3081466.81242  23702800.3294   23702801.5934
        48.0004         41.0004
  21236168.1674    -854771.32743   -659814.99042  21236169.6664   21236167.8084
        56.0004         49.0004
  20657987.5224    1968526.50044   1533398.75242  20657988.9794   20657987.8674
        57.0004         50.0004
  23316190.4314   -4903368.29043  -3803670.66242  23316192.0614   23316196.1974
        49.0004         41.0004
  20409273.7344    -577465.84444   -447031.09942  20409273.8154   20409272.2774
        57.0004         50.0004
  24274111.2854    2156988.93653   1678756.92852  24274112.6724   24274114.7024
        44.0004         39.0004
  22882751.0334    7392746.39643   5754720.68942  22882752.2344   22882752.1684
        50.0004         42.0004
 03 12 16 17 47  0.0000000  0  8G31G29G28G27G 7G 8G10G13
  22132783.4234    5055738.52243   3931959.30842  22132783.0474   22132782.3804
        51.0004         43.0004
  23685907.2734   -4095379.81943  -3150632.01842  23685909.4174   23685907.3584
        49.0004         41.0004
  21229814.2864    -888161.09743   -685833.01342  21229815.8854   21229813.7074
        56.0004         49.0004
  20660435.7174    1981389.80144   1543422.06642  20660437.0184   20660436.0834
        57.0004         50.0004
  23296937.2674   -5004546.49543  -3882510.64142  23296938.3784   23296939.8924
        50.0004         41.0004
  20403385.7254    -608407.61944   -471141.61542  20403385.8584   20403384.2854
        57.0004         50.0004
  24282935.9354    2203364.50343   1714893.66942  24282935.5714   24282938.5514
        43.0004         39.0004
  22902512.0324    7496592.54043   5835639.63542  22902512.9964   22902513.3104
        50.0004         42.0004
 03 12 16 17 47 30.0000000  0  8G31G29G28G27G 7G 8G10G13
  22146420.9724    5127414.13543   3987810.36942  22146422.2834   22146422.7474
        49.0004         43.0004
  23669068.1914   -4183873.36143  -3219588.02642  23669071.0074   23669068.3954
        49.0004         41.0004
  21223516.4664    -921258.73243   -711623.40242  21223517.1904   21223515.3994
        56.0004         49.0004
  20662938.2844    1994542.61844   1553670.97642  20662939.4804   20662938.8414
        57.0004         50.0004
  23277711.9444   -5105579.42743  -3961237.44742  23277712.9444   23277713.6504
        49.0004         40.0004
  20397545.5204    -639097.15444   -495055.57242  20397545.8764   20397544.3564
        57.0004         50.0004
  24291825.7294    2250091.45543   1751304.21942  24291827.7124   24291832.4314
        43.0004         39.0004
  22922317.6224    7600666.96943   5916736.50242  22922319.3604   22922319.9374
        50.0004         42.0004
 03 12 16 17 48  0.0000000  0  8G31G29G28G27G 7G 8G10G13
  22160152.3434    5199564.24643   4044031.15642  22160153.2344   22160151.4494
        50.0004         43.0004
  23652280.1234   -4272098.26543  -3288334.67842  23652281.6954   23652280.8424
        50.0004         42.0004
  21217272.6124    -954067.32044   -737188.56042  21217273.9804   21217272.1534
        57.0004         49.0004
  20665496.1624    2007983.76443   1564144.56642  20665497.2084   20665496.5854
        56.0004         50.0004
  23258512.0904   -5206467.21443  -4039851.09042  23258513.5384   23258514.3494
        48.0004         41.0004
  20391753.6364    -669535.52444   -518773.82042  20391753.3404   20391752.1234
        57.0004         50.0004
  24300786.4714    2297164.77743   1787984.69342  24300785.2364   24300790.3554
        42.0004         39.0004
  22942164.0114    7704964.90043   5998007.48142  22942165.9764   22942168.0424
        51.0004         42.0004
 03 12 16 17 48 30.0000000  0  7G31G29G28G27G 7G 8G13
  22173971.1264    5272186.45243   4100619.81042  22173971.8524   22173971.8364
        50.0004         42.0004
  23635543.1304   -4360051.94443  -3356870.00542  23635544.8414   23635544.3844
        50.0004         42.0004
  21211084.1234    -986586.96843   -762528.57342  21211085.6614   21211083.8614
        56.0004         49.0004
  20668109.3774    2021714.44844   1574843.76342  20668110.3484   20668109.8194
        57.0004         50.0004
  23239341.7504   -5307207.03243  -4118349.47742  23239342.1184   23239345.7464
        48.0004         41.0004
  20386009.6274    -699721.04444   -542295.04242  20386009.5204   20386008.2114
        57.0004         50.0004
  22962053.7224    7809483.94743   6079450.79742  22962055.7704   22962054.3794
        50.0004         42.0004
 03 12 16 17 49  0.0000000  0  7G31G29G28G27G 7G 8G13
  22187880.7174    5345281.84343   4157577.18342  22187880.4204   22187883.3684
        49.0004         42.0004
  23618859.2634   -4447727.90843  -3425188.94342  23618860.6414   23618859.2684
        50.0004         42.0004
  21204952.3844   -1018814.92644   -787641.30442  21204952.9054   21204951.4044
        57.0004         50.0004
  20670777.7764    2035739.45743   1585772.29942  20670778.6084   20670778.2154
        56.0004         50.0004
  23220200.5164   -5407793.04743  -4196728.01542  23220201.7164   23220207.7364
        48.0004         41.0004
  20380314.4164    -729648.70343   -565615.33942  20380314.1954   20380313.1934
        56.0004         50.0004
  22981985.1854    7914225.29843   6161067.33742  22981986.6074   22981987.6644
        51.0004         42.0004
 03 12 16 17 49 30.0000000  0  7G31G29G28G27G 7G 8G13
  22201880.0374    5418840.56043   4214895.59542  22201880.5404   22201879.5894
        50.0004         42.0004
  23602225.7764   -4535131.17843  -3493295.37242  23602226.8074   23602227.5274
        50.0004         42.0004
  21198873.1564   -1050758.97144   -812532.80042  21198874.4254   21198872.2234
        57.0004         50.0004
  20673501.6724    2050052.26443   1596925.10042  20673502.6474   20673502.0084
        56.0004         50.0004
  23201087.7284   -5508230.09143  -4274990.46942  23201089.6864   23201091.0104
        48.0004         41.0004
  20374667.0584    -759324.65244   -588739.50042  20374666.8784   20374666.1514
        57.0004         50.0004
  23001957.3184    8019178.76843   6242849.13942  23001958.7974   23001959.2614
        51.0004         42.0004
 03 12 16 17 50  0.0000000  0  7G31G29G28G27G 7G 8G13
  22215965.9074    5492868.50843   4272579.62742  22215966.7464   22215966.4994
        50.0004         42.0004
  23585647.9154   -4622250.53743  -3561180.57542  23585649.4374   23585648.8694
        50.0004         42.0004
  21192850.2464   -1082410.75244   -837196.56542  21192851.2594   21192849.3874
        57.0004         50.0004
  20676282.1304    2064662.64744   1608309.77842  20676283.0614   20676282.3544
        57.0004         50.0004
  23182005.6944   -5608507.19843  -4353128.26742  23182006.9774   23182009.1854
        48.0004         40.0004
  20369070.1844    -788738.97444   -611659.79642  20369069.5624   20369068.8414
        57.0004         50.0004
  23021971.9444    8124350.61443   6324801.12242  23021973.2424   23021972.0224
        51.0004         43.0004
 03 12 16 17 50 30.0000000  0  7G31G29G28G27G 7G 8G13
  22230140.0574    5567356.70743   4330622.31442  22230141.5564   22230141.0214
        49.0004         42.0004
  23569123.4954   -4709090.04343  -3628847.72942  23569123.4554   23569124.7594
        51.0004         42.0004
  21186881.2844   -1113777.56743   -861638.27842  21186881.9004   21186880.6714
        56.0004         50.0004
  20679117.8914    2079565.10143   1619922.04542  20679118.6074   20679117.8954
        56.0004         50.0004
  23162955.4224   -5708628.60743  -4431144.80342  23162954.2994   23162957.0394
        49.0004         40.0004
  20363521.4434    -817896.85344   -634380.26842  20363520.9644   20363520.2964
        57.0004         50.0004
  23042024.4224    8229731.90343   6406916.27542  23042027.3744   23042024.4944
        50.0004         42.0004
 03 12 16 17 51  0.0000000  0  7G31G29G28G27G 7G 8G13
  22244402.9944    5642305.81643   4389024.14042  22244403.7634   22244404.3274
        50.0004         42.0004
  23552653.1784   -4795643.65743  -3696292.09242  23552654.6224   23552653.5804
        50.0004         43.0004
  21180967.1754   -1144856.48844   -885855.65442  21180968.4924   21180966.3844
        57.0004         50.0004
  20682010.0474    2094763.98444   1631765.28342  20682011.2324   20682010.1714
        57.0004         50.0004
  23143931.7844   -5808588.71043  -4509035.65142  23143932.5844   23143934.2684
        49.0004         41.0004
  20358022.5984    -846793.58744   -656897.24342  20358022.4114   20358021.5844
        57.0004         50.0004
  23062118.7274    8335323.95143   6489195.62842  23062120.9174   23062119.2054
        51.0004         42.0004
 03 12 16 17 51 30.0000000  0  7G31G29G28G27G 7G 8G13
  22258751.9074    5717710.96243   4447781.31342  22258752.7964   22258751.9934
        48.0004         41.0004
  23536236.5864   -4881911.47143  -3763513.73942  23536239.0944   23536238.1024
        51.0004         43.0004
  21175107.4954   -1175650.50044   -909851.02442  21175108.8194   21175106.5674
        57.0004         50.0004
  20684958.7444    2110257.99643   1643838.49642  20684959.8264   20684958.9444
        56.0004         50.0004
  23124941.8524   -5908387.24243  -4586800.56042  23124943.4794   23124944.1324
        50.0004         41.0004
  20352573.2804    -875430.24244   -679211.55642  20352572.9504   20352571.9834
        57.0004         50.0004
  23082250.4434    8441120.56543   6571634.43642  23082252.6484   23082251.0974
        50.0004         41.0004
 03 12 16 17 52  0.0000000  0  7G31G29G28G27G 7G 8G13
  22273187.8814    5793573.61743   4506894.97142  22273189.0324   22273186.8934
        48.0004         41.0004
  23519875.9904   -4967886.60643  -3830507.35242  23519877.2554   23519876.1794
        51.0004         43.0004
  21169302.3844   -1206156.01644   -933621.59842  21169303.1474   21169301.6124
        57.0004         50.0004
  20687964.1834    2126052.11143   1656145.55742  20687964.9944   20687964.2014
        56.0004         50.0004
  23105981.7414   -6008017.89943  -4664434.70542  23105983.8924   23105981.6574
        50.0004         41.0004
  20347174.2274    -903801.14344   -701318.78742  20347174.1664   20347173.3464
        57.0004         50.0004
  23102423.0704    8547124.15243   6654234.49742  23102424.7804   23102424.1414
        50.0004         42.0004
 03 12 16 17 52 30.0000000  0  7G31G29G28G27G 7G 8G13
  22287710.7894    5869887.97043   4566360.60842  22287712.0434   22287708.6944
        49.0004         41.0004
  23503570.8724   -5053569.76343  -3897273.43342  23503572.2344   23503573.2394
        50.0004         43.0004
  21163551.5894   -1236376.66644   -957170.19142  21163552.5974   21163550.6794
        57.0004         50.0004
  20691026.5354    2142144.34143   1668684.90342  20691027.6904   20691026.6914
        56.0004         50.0004
  23087054.9524   -6107481.46643  -4741938.57942  23087056.3174   23087055.9144
        51.0004         42.0004
  20341826.0754    -931908.46544   -723220.63042  20341825.8924   20341824.9074
        57.0004         50.0004
  23122632.4484    8653329.29143   6736991.61942  23122633.5694   23122634.6034
        49.0004         42.0004
 03 12 16 17 53  0.0000000  0  7G31G29G28G27G 7G 8G13
  22302317.0924    5946651.91443   4626176.58342  22302320.2754   22302318.4324
        48.0004         41.0004
  23487321.9084   -5138957.90443  -3963809.63742  23487324.0694   23487321.2224
        50.0004         42.0004
  21157854.8114   -1266312.56144   -980496.89642  21157855.8974   21157854.3384
        57.0004         50.0004
  20694145.8444    2158536.03744   1681457.60242  20694147.1504   20694145.8634
        57.0004         50.0004
  23068160.4454   -6206774.95443  -4819309.98042  23068161.3524   23068162.2164
        50.0004         42.0004
  20336527.7474    -959750.08144   -744915.42542  20336527.6664   20336526.9784
        57.0004         50.0004
  23142880.5654    8759733.55643   6819903.88642  23142883.5684   23142883.0374
        50.0004         41.0004
 03 12 16 17 53 30.0000000  0  7G31G29G28G27G 7G 8G13
  22317011.4814    6023862.75243   4686340.74542  22317013.2134   22317010.3184
        49.0004         41.0004
  23471130.2104   -5224048.62443  -4030114.09542  23471131.2304   23471130.7254
        50.0004         42.0004
  21152212.3524   -1295964.63544  -1003602.42642  21152213.4754   21152211.6474
        57.0004         50.0004
  20697321.9854    2175228.33043   1694464.53242  20697323.5464   20697322.5084
        56.0004         49.0004
  23049297.2014   -6305896.11943  -4896547.12242  23049299.1314   23049299.4194
        50.0004         42.0004
  20331280.7524    -987324.65944   -766402.13542  20331280.5014   20331279.3794
        57.0004         50.0004
  23163166.6804    8866333.93643   6902969.03442  23163167.9294   23163169.7464
        49.0004         42.0004
 03 12 16 17 54  0.0000000  0  7G31G29G28G27G 7G 8G13
  22331788.6664    6101520.04743   4746852.81642  22331791.1094   22331791.0474
        48.0004         41.0004
  23454995.0374   -5308837.20143  -4096183.10842  23454996.9344   23454994.8534
        50.0004         42.0004
  21146623.8724   -1325331.25043  -1026485.52442  21146625.5514   21146623.3374
        56.0004         50.0004
  20700556.4174    2192224.21544   1707708.02742  20700557.5984   20700557.2104
        57.0004         50.0004
  23030467.8924   -6404840.43543  -4973646.46242  23030467.9784   23030470.8564
        49.0004         42.0004
  20326084.6554   -1014628.87444   -787678.17542  20326084.4674   20326083.9524
        57.0004         50.0004
  23183488.5674    8973130.32443   6986186.85342  23183491.1464   23183492.9274
        49.0004         42.0004
 03 12 16 17 54 30.0000000  0  7G31G29G28G27G 7G 8G13
  22346651.0184    6179616.37043   4807706.97842  22346651.3084   22346649.0894
        48.0004         41.0004
  23438917.2824   -5393325.71643  -4162018.31742  23438918.7034   23438919.3954
        50.0004         42.0004
  21141089.1504   -1354417.55743  -1049150.20142  21141090.1454   21141088.8064
        56.0004         50.0004
  20703847.9944    2209520.23244   1721185.39042  20703848.9414   20703848.2554
        57.0004         50.0004
  23011672.6824   -6503610.15343  -5050609.73942  23011673.5874   23011675.6484
        49.0004         42.0004
  20320939.8734   -1041665.87744   -808746.00042  20320939.8394   20320938.6604
        57.0004         50.0004
  23203848.3754    9080115.60143   7069551.86142  23203850.2464   23203851.8734
        49.0004         41.0004
 03 12 16 17 55  0.0000000  0  7G31G29G28G27G 7G 8G13
  22361596.4064    6258154.60343   4868905.47142  22361596.1564   22361597.4174
        49.0004         41.0004
  23422897.9554   -5477506.16843  -4227613.46542  23422899.9804   23422898.7304
        49.0004         42.0004
  21135608.6694   -1383218.69244  -1071592.65842  21135609.9924   21135608.0804
        57.0004         50.0004
  20707197.4164    2227122.81343   1734901.62842  20707198.4094   20707197.6874
        56.0004         50.0004
  22992910.7074   -6602197.50143  -5127430.94042  22992911.1994   22992916.3944
        48.0004         42.0004
  20315847.1094   -1068428.88244   -829600.31342  20315846.7144   20315846.0104
        57.0004         50.0004
  23224241.4554    9187292.53743   7153066.22342  23224242.9414   23224245.9624
        49.0004         42.0004
 03 12 16 17 55 30.0000000  0  7G31G29G28G27G 7G 8G13
  22376623.6864    6337127.37743   4930442.58542  22376625.8164   22376623.1294
        47.0004         41.0004
  23406937.8734   -5561380.70243  -4292970.22442  23406940.2544   23406939.5364
        49.0004         42.0004
  21130181.4174   -1411740.11244  -1093817.15142  21130182.5864   21130180.3564
        57.0004         50.0004
  20710604.6764    2245027.96543   1748853.63942  20710605.7664   20710605.3684
        56.0004         49.0004
  22974185.3664   -6700604.82343  -5204111.85342  22974186.5874   22974188.3614
        48.0004         42.0004
  20310805.7274   -1094921.36844   -850243.83942  20310805.3724   20310804.6244
        57.0004         50.0004
  23244673.4874    9294653.97243   7236724.32142  23244674.7934   23244675.5574
        50.0004         42.0004
 03 12 16 17 56  0.0000000  0  7G31G29G28G27G 7G 8G13
  22391735.1364    6416533.52843   4992317.38142  22391737.0094   22391736.0644
        47.0004         41.0004
  23391036.2464   -5644945.46543  -4358085.61542  23391039.1314   23391035.7734
        50.0004         42.0004
  21124807.0334   -1439980.82544  -1115822.91542  21124808.0054   21124806.4924
        57.0004         50.0004
  20714070.1584    2263238.41243   1763043.54842  20714071.0454   20714070.1314
        56.0004         49.0004
  22955494.3214   -6798828.27143  -5280649.49242  22955495.6404   22955498.7704
        49.0004         42.0004
  20305816.3434   -1121140.40744   -870674.28942  20305816.0124   20305815.4484
        57.0004         50.0004
  23265140.4564    9402198.69243   7320525.26442  23265142.0824   23265142.4784
        50.0004         42.0004
 03 12 16 17 56 30.0000000  0  7G31G29G28G27G 7G 8G13
  22406925.6944    6496367.55443   5054525.57442  22406927.8574   22406928.5424
        47.0004         41.0004
  23375193.0134   -5728200.62543  -4422959.77342  23375194.2804   23375192.0514
        50.0004         42.0004
  21119485.3184   -1467944.32243  -1137612.65442  21119487.0334   21119485.5104
        56.0004         50.0004
  20717593.4464    2281752.37443   1777469.95342  20717594.2704   20717593.6874
        56.0004         49.0004
  22936838.5044   -6896868.31143  -5357044.22142  22936840.8184   22936840.7644
        50.0004         43.0004
  20300878.7474   -1147087.35144   -890892.70742  20300878.6574   20300877.6694
        58.0004         50.0004
  23285637.5194    9509921.60643   7404465.00842  23285639.6704   23285639.3284
        49.0004         41.0004
 03 12 16 17 57  0.0000000  0  7G31G29G28G27G 7G 8G13
  22422200.6554    6576633.94143   5117070.69442  22422199.7424   22422202.1664
        47.0004         41.0004
  23359411.3984   -5811136.43043  -4487585.07242  23359413.8074   23359409.8754
        50.0004         42.0004
  21114218.4164   -1495623.89743  -1159181.16542  21114219.6534   21114217.9894
        56.0004         50.0004
  20721175.6184    2300577.83943   1792139.07942  20721176.8664   20721176.3184
        56.0004         49.0004
  22918219.9294   -6994715.33343  -5433288.55042  22918219.7474   22918222.1844
        50.0004         43.0004
  20295994.7794   -1172753.56544   -910892.37942  20295994.7474   20295993.5134
        58.0004         51.0004
  23306172.1004    9617827.15443   7488547.09842  23306175.6584   23306172.9294
        50.0004         42.0004
 03 12 16 17 57 30.0000000  0  7G31G29G28G27G 7G 8G13
  22437557.2634    6657326.06243   5179947.53342  22437557.4884   22437556.4094
        48.0004         41.0004
  23343688.2564   -5893754.44543  -4551962.74942  23343689.9054   23343689.2204
        49.0004         42.0004
  21109004.8874   -1523023.98844  -1180531.88442  21109005.6734   21109003.6044
        57.0004         50.0004
  20724816.9644    2319712.03443   1807048.78742  20724817.9894   20724817.4034
        56.0004         49.0004
  22899635.7034   -7092370.95043  -5509383.73042  22899635.5974   22899637.3254
        50.0004         43.0004
  20291163.7854   -1198141.90244   -930675.52042  20291163.6794   20291162.4204
        58.0004         51.0004
  23326739.1344    9725908.77343   7572766.34342  23326740.7244   23326740.9244
        50.0004         42.0004
 03 12 16 17 58  0.0000000  0  7G31G29G28G27G 7G 8G13
  22452990.9154    6738442.41643   5243154.97442  22452993.2624   22452993.5154
        47.0004         40.0004
  23328027.7264   -5976050.85043  -4616089.81042  23328030.1264   23328028.8774
        49.0004         42.0004
  21103843.4584   -1550144.13944  -1201664.47642  21103844.9034   21103842.8804
        57.0004         50.0004
  20728517.3184    2339157.06143   1822200.69542  20728518.4464   20728517.5784
        56.0004         49.0004
  22881088.3124   -7189831.70543  -5585327.07542  22881090.1564   22881091.3364
        49.0004         43.0004
  20286385.5944   -1223249.42344   -950239.84642  20286385.5234   20286385.0204
        58.0004         51.0004
  23347339.4024    9834165.24143   7657121.88542  23347341.0004   23347340.5634
        49.0004         41.0004
 03 12 16 17 58 30.0000000  0  7G31G29G28G27G 7G 8G13
  22468508.0444    6819979.52243   5306690.26842  22468508.4964   22468507.1034
        47.0004         40.0004
  23312428.6444   -6058023.82643  -4679964.84842  23312431.3704   23312430.6134
        50.0004         42.0004
  21098736.1304   -1576985.62744  -1222579.92142  21098737.0834   21098735.1034
        57.0004         50.0004
  20732276.5444    2358913.06343   1837594.90842  20732278.0214   20732277.5144
        56.0004         49.0004
  22862580.3764   -7287095.85343  -5661117.19642  22862582.5394   22862581.6844
        49.0004         42.0004
  20281661.4084   -1248075.82444   -969585.12442  20281660.9324   20281660.6004
        58.0004         50.0004
  23367972.7234    9942593.21543   7741611.01842  23367976.0354   23367976.5034
        49.0004         42.0004
 03 12 16 17 59  0.0000000  0  7G31G29G28G27G 7G 8G13
  22484104.0664    6901932.73543   5370549.81642  22484104.8264   22484103.2724
        47.0004         40.0004
  23296891.8154   -6139672.89343  -4743587.50142  23296893.1144   23296893.7444
        49.0004         42.0004
  21093680.8494   -1603551.13444  -1243280.31542  21093682.0944   21093680.1034
        57.0004         50.0004
  20736095.1894    2378979.14144   1853230.74442  20736096.1854   20736095.7044
        57.0004         49.0004
  22844108.5034   -7384163.10443  -5736753.90842  22844110.7954   22844110.9474
        50.0004         42.0004
  20276990.1874   -1272621.33544   -988711.52342  20276990.1134   20276989.8444
        57.0004         50.0004
  23388638.3674   10051187.95843   7826230.15142  23388639.9344   23388638.8904
        48.0004         41.0004
 03 12 16 17 59 30.0000000  0  7G31G29G28G27G 7G 8G13
  22499775.9404    6984301.89343   5434733.46142  22499778.7964   22499779.6884
        47.0004         40.0004
  23281417.5004   -6220993.00943  -4806953.82642  23281417.1734   23281418.7914
        49.0004         43.0004
  21088678.1334   -1629838.68944  -1263764.11942  21088679.5944   21088677.6674
        57.0004         50.0004
  20739973.3764    2399358.82044   1869110.94842  20739974.6314   20739974.1514
        57.0004         50.0004
  22825675.9764   -7481028.42543  -5812233.28942  22825678.5304   22825677.1994
        50.0004         42.0004
  20272374.1334   -1296882.22644  -1007616.14542  20272373.4134   20272372.7784
        57.0004         50.0004
  23409334.9744   10159949.81243   7910979.44142  23409337.6184   23409335.9784
        49.0004         42.0004
 03 12 16 18  0  0.0000000  0  7G31G29G28G27G 7G 8G13
  22515530.5094    7067082.70143   5499237.89542  22515533.3744   22515533.4084
        47.0004         40.0004
  23266005.7514   -6301983.06643  -4870062.95042  23266009.0334   23266008.0524
        50.0004         43.0004
  21083728.6304   -1655850.69644  -1284033.21542  21083729.8654   21083727.8674
        57.0004         50.0004
  20743910.9204    2420051.60343   1885235.12942  20743912.2654   20743911.8394
        56.0004         49.0004
  22807281.2384   -7577691.17743  -5887554.84242  22807281.0774   22807281.3854
        49.0004         42.0004
  20267811.3004   -1320858.67044  -1026299.11242  20267810.9854   20267810.4914
        57.0004         50.0004
  23430061.8414   10268874.45343   7995855.65942  23430062.1594   23430065.9014
        48.0004         41.0004
 03 12 16 18  0 30.0000000  0  7G31G29G28G27G 7G 8G13
  22531360.8094    7150270.94243   5564059.77142  22531362.5694   22531361.5164
        47.0004         40.0004
  23250657.3074   -6382642.18443  -4932914.21542  23250659.7044   23250657.3614
        51.0004         43.0004
  21078830.6644   -1681588.88544  -1304088.96142  21078831.9664   21078830.2544
        57.0004         50.0004
  20747908.5854    2441056.65143   1901602.63142  20747909.5184   20747908.9364
        56.0004         50.0004
  22788925.4444   -7674150.46343  -5962717.84042  22788926.0454   22788928.4184
        48.0004         42.0004
  20263302.8744   -1344550.57944  -1044760.36942  20263302.7594   20263302.2434
        57.0004         50.0004
  23450820.4584   10377957.93643   8080855.58342  23450822.3904   23450823.2134
        48.0004         41.0004
 03 12 16 18  1  0.0000000  0  7G31G29G28G27G 7G 8G13
  22547269.5104    7233867.82443   5629200.07942  22547269.9584   22547270.8554
        47.0004         40.0004
  23235372.0384   -6462963.96143  -4995502.60342  23235373.8054   23235371.6934
        50.0004         43.0004
  21073985.5604   -1707050.20244  -1323928.95742  21073986.4744   21073984.8054
        57.0004         50.0004
  20751965.6874    2462379.04043   1918217.41842  20751967.0474   20751966.8974
        56.0004         50.0004
  22770608.7294   -7770400.02143  -6037717.42142  22770609.5754   22770611.9994
        48.0004         42.0004
  20258849.2494   -1367952.78744  -1062995.87942  20258849.5244   20258848.5284
        57.0004         50.0004
  23471609.4964   10487201.50943   8165980.28642  23471612.1374   23471611.0964
        48.0004         41.0004
 03 12 16 18  1 30.0000000  0  7G31G29G28G27G 7G 8G13
  22563253.5064    7317869.30943   5694655.64942  22563255.4284   22563257.5874
        47.0004         40.0004
  23220150.4914   -6542946.97543  -5057827.04642  23220153.3804   23220152.5314
        50.0004         43.0004
  21069192.7764   -1732236.29243  -1343554.48342  21069193.9384   21069191.8344
        56.0004         50.0004
  20756083.6594    2484018.45043   1935079.23042  20756084.9364   20756084.0654
        56.0004         50.0004
  22752334.0714   -7866438.70343  -6112552.68442  22752335.0094   22752336.6684
        49.0004         43.0004
  20254451.6674   -1391065.08744  -1081005.49142  20254451.4124   20254451.0184
        57.0004         51.0004
  23492426.6724   10596601.48643   8251226.83542  23492427.5724   23492428.9114
        46.0004         40.0004
 03 12 16 18  2  0.0000000  0  7G31G29G28G27G 7G 8G13
  22579315.2664    7402270.11543   5760422.41942  22579316.3594   22579315.1984
        48.0004         41.0004
  23204996.2724   -6622591.36143  -5119887.60842  23204997.1254   23204995.2864
        50.0004         43.0004
  21064452.4764   -1757150.55044  -1362968.21142  21064452.8844   21064450.7194
        57.0004         50.0004
  20760262.0834    2505973.35144   1952186.87242  20760262.8624   20760262.4664
        57.0004         50.0004
  22734099.5374   -7962266.82643  -6187223.88642  22734101.1324   22734101.7174
        51.0004         43.0004
  20250108.7134   -1413888.59444  -1098790.06042  20250108.4154   20250107.8484
        57.0004         51.0004
  23513273.9194   10706152.90943   8336591.37142  23513274.4784   23513277.4134
        47.0004         40.0004
 03 12 16 18  2 30.0000000  0  7G31G29G28G27G 7G 8G13
  22595452.1854    7487071.13243   5826501.02942  22595453.7244   22595452.9714
        49.0004         40.0004
  23189905.5614   -6701891.05943  -5181679.58642  23189907.3264   23189908.0364
        50.0004         43.0004
  21059763.0464   -1781790.00144  -1382167.80342  21059764.3634   21059761.9484
        57.0004         50.0004
  20764500.9394    2528248.17644   1969543.81042  20764502.2184   20764501.2324
        57.0004         50.0004
  22715904.6584   -8057878.36443  -6261726.28942  22715905.1934   22715905.0254
        51.0004         43.0004
  20245820.8184   -1436418.46444  -1116345.82142  20245820.7124   20245820.2124
        57.0004         51.0004
  23534149.7704   10815856.48843   8422074.50842  23534151.7084   23534152.9044
        48.0004         40.0004
 03 12 16 18  3  0.0000000  0  7G31G29G28G27G 7G 8G13
  22611664.0344    7572267.32843   5892887.56242  22611667.2434   22611666.1284
        49.0004         41.0004
  23174881.3294   -6780845.96143  -5243202.88442  23174882.3944   23174881.6064
        50.0004         43.0004
  21055125.8834   -1806157.53143  -1401155.51042  21055126.8824   21055125.3434
        56.0004         50.0004
  20768799.9294    2550841.50244   1987148.93042  20768801.0174   20768800.4924
        57.0004         50.0004
  22697751.3754   -8153273.33743  -6336059.93842  22697753.3334   22697752.8884
        51.0004         43.0004
  20241589.5844   -1458655.30944  -1133673.25342  20241589.3394   20241588.6504
        57.0004         51.0004
  23555054.1034   10925707.55043   8507672.53242  23555056.2884   23555055.6324
        48.0004         40.0004
 03 12 16 18  3 30.0000000  0  8G31G29G28G27G 7G 8G11G13
  22627950.2064    7657851.30043   5959576.27042  22627953.7634   22627953.5334
        48.0004         41.0004
  23159921.7934   -6859457.84143  -5304458.90042  23159923.7394   23159922.6384
        50.0004         43.0004
  21050539.8154   -1830258.36144  -1419935.39542  21050540.7144   21050538.7864
        57.0004         50.0004
  20773158.9794    2573749.78143   2004999.46742  20773160.1114   20773159.9984
        56.0004         49.0004
  22679638.1994   -8248454.01243  -6410226.61542  22679640.5184   22679639.9084
        51.0004         43.0004
  20237413.4274   -1480602.35444  -1150774.86442  20237413.0944   20237412.1874
        57.0004         51.0004
  24095833.4144   -4008788.98053  -3120245.75452  24095835.0934   24095836.1104
        46.0004         38.0004
  23575986.1094   11035698.72343   8593379.77242  23575988.8024   23575988.5864
        50.0004         41.0004
 03 12 16 18  4  0.0000000  0  8G31G29G28G27G 7G 8G11G13
  22644312.9874    7743835.04243   6026576.47442  22644313.5404   22644313.5574
        49.0004         41.0004
  23145030.3424   -6937709.64743  -5365434.33742  23145032.4574   23145030.9104
        50.0004         43.0004
  21046007.0454   -1854078.34744  -1438496.44842  21046008.2934   21046005.9454
        57.0004         50.0004
  20777581.2784    2596988.70943   2023107.65642  20777582.1504   20777582.1324
        56.0004         49.0004
  22661571.4814   -8343403.28543  -6484212.98142  22661572.3984   22661571.4704
        50.0004         43.0004
  20233295.1244   -1502243.45644  -1167638.07642  20233295.1414   20233294.0064
        58.0004         51.0004
  24086038.8674   -4060251.45143  -3160346.27442  24086039.8834   24086042.8184
        47.0004         39.0004
  23596945.4644   11145842.53043   8679205.92542  23596944.5934   23596946.4014
        49.0004         40.0004
 03 12 16 18  4 30.0000000  0  8G31G29G28G27G 7G 8G11G13
  22660747.2154    7830196.41243   6093870.96542  22660748.0094   22660745.6444
        50.0004         41.0004
  23130205.2974   -7015618.22343  -5426142.32342  23130205.4214   23130207.2294
        50.0004         43.0004
  21041523.6224   -1877637.60844  -1456854.33942  21041524.9304   21041523.0574
        57.0004         50.0004
  20782063.6894    2620539.71044   2041459.01342  20782064.5814   20782063.3264
        57.0004         49.0004
  22643543.3294   -8438138.21843  -6558032.33742  22643543.6404   22643544.5394
        50.0004         43.0004
  20229231.7314   -1523596.65544  -1184276.94742  20229231.3784   20229231.0584
        57.0004         51.0004
  24076291.5214   -4111473.46643  -3200259.45842  24076294.0394   24076296.4074
        46.0004         39.0004
  23617930.3604   11256116.79143   8765133.71042  23617930.2614   23617932.0304
        49.0004         40.0004
 03 12 16 18  5  0.0000000  0  8G31G29G28G27G 7G 8G11G13
  22677256.1254    7916946.14643   6161468.09042  22677257.5164   22677255.8844
        51.0004         42.0004
  23115448.6674   -7093167.68343  -5486570.48542  23115450.6204   23115449.2414
        50.0004         44.0004
  21037092.3084   -1900923.18643  -1474998.98242  21037093.7804   21037092.5064
        56.0004         50.0004
  20786607.1934    2644417.29043   2060064.85642  20786608.0364   20786607.2084
        56.0004         49.0004
  22625558.5674   -8532643.11943  -6631672.43142  22625559.9714   22625561.1214
        50.0004         43.0004
  20225226.0424   -1544647.01644  -1200679.84242  20225226.1134   20225225.2624
        57.0004         51.0004
  24066594.0154   -4162438.48043  -3239972.40542  24066596.0914   24066596.1974
        47.0004         39.0004
  23638942.0144   11366532.63643   8851171.82342  23638944.1204   23638944.3644
        48.0004         40.0004
 03 12 16 18  5 30.0000000  0  8G31G29G28G27G 7G 8G11G13
  22693835.1964    8004074.23343   6229360.02942  22693836.4854   22693835.6084
        50.0004         41.0004
  23100758.7644   -7170362.65443  -5546722.40142  23100758.8334   23100759.2934
        50.0004         44.0004
  21032712.4234   -1923942.89943  -1492936.44842  21032713.2614   21032712.1864
        56.0004         50.0004
  20791211.3974    2668615.09943   2078920.20842  20791212.7684   20791212.3794
        56.0004         49.0004
  22607618.9214   -8626922.80443  -6705137.04342  22607619.9394   22607621.5114
        51.0004         43.0004
  20221277.0494   -1565400.25844  -1216851.21442  20221276.6684   20221276.2424
        57.0004         51.0004
  24056942.7334   -4213151.26543  -3279488.82742  24056945.1124   24056946.4204
        47.0004         39.0004
  23659978.9204   11477080.07943   8937312.47142  23659980.9984   23659980.7654
        48.0004         40.0004
 03 12 16 18  6  0.0000000  0  8G31G29G28G27G 7G 8G11G13
  22710487.3144    8091583.60143   6297549.05142  22710488.2044   22710488.3674
        49.0004         41.0004
  23086136.3284   -7247195.07543  -5606591.82342  23086138.7524   23086138.5354
        49.0004         43.0004
  21028383.0704   -1946691.78244  -1510662.88742  21028384.4854   21028382.8424
        57.0004         50.0004
  20795878.9214    2693139.51944   2098030.07042  20795880.1424   20795879.1774
        57.0004         49.0004
  22589721.7844   -8720969.34743  -6778419.99442  22589722.9514   22589723.6154
        51.0004         44.0004
  20217385.2794   -1585849.34944  -1232785.59042  20217385.1064   20217384.8214
        57.0004         50.0004
  24047342.7424   -4263603.29943  -3318802.11142  24047344.1824   24047344.3064
        47.0004         39.0004
  23681040.9164   11587762.32543   9023558.16542  23681044.8684   23681044.3244
        48.0004         41.0004
 03 12 16 18  6 30.0000000  0  8G31G29G28G27G 7G 8G11G13
  22727211.7624    8179469.97543   6366031.85742  22727213.2014   22727214.3964
        48.0004         42.0004
  23071585.9154   -7323663.90943  -5666177.94542  23071587.4334   23071586.8184
        49.0004         43.0004
  21024105.4524   -1969172.13743  -1528180.07442  21024106.5574   21024104.6474
        56.0004         50.0004
  20800607.6714    2717990.35444   2117394.29142  20800609.1844   20800608.3964
        57.0004         49.0004
  22571869.4574   -8814781.88243  -6851520.60342  22571871.6014   22571872.2574
        51.0004         44.0004
  20213551.8664   -1605994.32944  -1248482.99342  20213551.8174   20213551.2964
        57.0004         50.0004
  24037791.4704   -4313793.62543  -3357911.44142  24037792.2074   24037795.5124
        45.0004         39.0004
  23702127.0244   11698575.39743   9109905.83842  23702130.2894   23702129.8214
        48.0004         41.0004
 03 12 16 18  7  0.0000000  0  8G31G29G28G27G 7G 8G11G13
  22744006.3354    8267726.86443   6434803.35142  22744006.2604   22744007.4394
        49.0004         41.0004
  23057103.8594   -7399770.38343  -5725481.70442  23057104.1624   23057105.0914
        50.0004         44.0004
  21019878.0644   -1991388.20543  -1545491.33142  21019878.7164   21019877.3514
        56.0004         50.0004
  20805398.2144    2743164.50243   2137010.44142  20805399.2234   20805398.8714
        56.0004         49.0004
  22554062.9294   -8908362.00143  -6924440.12342  22554064.8454   22554063.3724
        51.0004         44.0004
  20209775.9554   -1625837.57844  -1263945.28442  20209775.7024   20209775.1294
        57.0004         50.0004
  24028291.3794   -4363723.38243  -3396817.69842  24028293.3314   24028293.9124
        47.0004         39.0004
  23723239.1394   11809513.00043   9196350.50542  23723239.4824   23723242.5324
        47.0004         41.0004
 03 12 16 18  7 30.0000000  0  8G31G29G28G27G 7G 8G11G13
  22760872.0684    8356356.61543   6503865.40842  22760873.6714   22760875.0764
        49.0004         42.0004
  23042690.9934   -7475506.88743  -5784497.15042  23042693.2074   23042692.5844
        49.0004         44.0004
  21015701.3964   -2013335.55943  -1562593.18842  21015702.8504   21015700.8804
        56.0004         50.0004
  20810251.2264    2768668.16944   2156883.35442  20810252.7894   20810252.2204
        57.0004         49.0004
  22536301.0354   -9001701.92043  -6997172.49342  22536303.0214   22536301.1654
        52.0004         44.0004
  20206058.5864   -1645372.19744  -1279167.07942  20206058.6384   20206057.7444
        57.0004         50.0004
  24018842.5134   -4413384.34943  -3435514.52842  24018842.6414   24018843.4824
        48.0004         39.0004
  23744373.2804   11920577.64443   9282894.16042  23744375.2384   23744376.6174
        46.0004         40.0004
 03 12 16 18  8  0.0000000  0  8G31G29G28G27G 7G 8G11G13
  22777807.4134    8445353.89143   6573213.82342  22777809.3524   22777809.2154
        47.0004         41.0004
  23028350.2744   -7550873.59943  -5843224.47942  23028350.7214   23028351.2364
        50.0004         44.0004
  21011575.4974   -2035017.17143  -1579487.96242  21011576.4894   21011574.9014
        56.0004         50.0004
  20815167.3774    2794499.64844   2177011.70642  20815168.2344   20815168.0524
        57.0004         50.0004
  22518584.1764   -9094802.04643  -7069717.99842  22518585.4334   22518586.2054
        51.0004         44.0004
  20202400.0564   -1664599.63544  -1294149.51842  20202399.8864   20202399.3844
        57.0004         50.0004
  24009441.5954   -4462776.46643  -3474001.85742  24009444.2204   24009444.0984
        49.0004         39.0004
  23765532.5934   12031764.48743   9369533.04642  23765533.0874   23765537.4034
        49.0004         41.0004
 03 12 16 18  8 30.0000000  0  8G31G29G28G27G 7G 8G11G13
  22794813.9284    8534718.12043   6642848.16542  22794815.7704   22794814.5964
        49.0004         41.0004
  23014079.0994   -7625865.69143  -5901659.88842  23014080.3034   23014081.5494
        49.0004         44.0004
  21007500.2184   -2056431.68543  -1596174.61342  21007501.3624   21007499.6044
        56.0004         50.0004
  20820146.0264    2820661.82744   2197397.74442  20820147.3644   20820146.7594
        57.0004         49.0004
  22500914.0364   -9187658.00543  -7142073.26642  22500915.2474   22500914.4514
        51.0004         44.0004
  20198800.0304   -1683516.12144  -1308889.65542  20198800.2414   20198799.3424
        57.0004         50.0004
  24000094.5324   -4511894.99043  -3512276.02042  24000097.5524   24000096.7074
        49.0004         40.0004
  23786713.0754   12143072.82743   9456266.66242  23786715.7894   23786718.1064
        48.0004         40.0004
 03 12 16 18  9  0.0000000  0  8G31G29G28G27G 7G 8G11G13
  22811886.6074    8624439.23243   6712760.59942  22811889.4644   22811888.5724
        48.0004         41.0004
  22999878.6634   -7700488.08843  -5959807.20842  22999880.4994   22999879.5854
        50.0004         44.0004
  21003474.7624   -2077586.80544  -1612659.13142  21003475.9374   21003474.0994
        57.0004         50.0004
  20825186.0084    2847148.45244   2218036.59342  20825187.3834   20825186.9214
        57.0004         49.0004
  22483289.7294   -9280274.65243  -7214242.06042  22483289.7484   22483292.8914
        51.0004         44.0004
  20195258.3164   -1702127.50944  -1323392.05642  20195258.4054   20195257.7714
        57.0004         50.0004
  23990799.0084   -4560744.69943  -3550340.73342  23990799.6634   23990800.0234
        49.0004         40.0004
  23807915.8144   12254493.19543   9543087.55442  23807919.4254   23807920.8894
        47.0004         40.0004
 03 12 16 18  9 30.0000000  0  9G31G29G28G27G 7G 8G26G11G13
  22829027.9644    8714521.47343   6782954.44942  22829029.0514   22829029.1894
        47.0004         41.0004
  22985750.2334   -7774731.31143  -6017659.07742  22985752.5624   22985750.8874
        50.0004         44.0004
  20999499.9084   -2098476.37344  -1628936.72542  20999501.2214   20999499.4004
        57.0004         50.0004
  20830289.6444    2873967.39143   2238934.38342  20830290.5754   20830289.9854
        56.0004         49.0004
  22465712.9294   -9372642.68843  -7286217.14442  22465712.8074   22465714.8654
        50.0004         44.0004
  20191776.5844   -1720425.34844  -1337650.13042  20191776.5574   20191775.7984
        57.0004         50.0004
  23838339.6154   -5153660.31253  -3572463.20352  23838341.8814   23838343.4374
        43.0004         39.0004
  23981557.1804   -4609315.71043  -3588188.31442  23981558.6074   23981558.2644
        48.0004         40.0004
  23829141.9544   12366030.08943   9629999.17142  23829142.6164   23829144.9884
        47.0004         39.0004
 03 12 16 18 10  0.0000000  0  9G31G29G28G27G 7G 8G26G11G13
  22846239.6924    8804961.28043   6853426.90342  22846240.5184   22846241.0984
        48.0004         41.0004
  22971696.5364   -7848593.73543  -6075214.21042  22971696.7254   22971696.3454
        50.0004         44.0004
  20995574.9714   -2119101.71544  -1645008.42242  20995575.8534   20995574.7924
        57.0004         50.0004
  20835456.4554    2901118.74944   2260091.21342  20835457.7754   20835457.1864
        57.0004         49.0004
  22448183.4544   -9464760.65843  -7357997.35242  22448183.0414   22448185.2274
        51.0004         44.0004
  20188354.6574   -1738408.96544  -1351663.35842  20188354.5034   20188353.6284
        58.0004         51.0004
  23821422.875
        42.000
  23972365.0834   -4657605.94343  -3625817.08942  23972368.3304   23972367.1404
        45.0004         38.0004
  23850387.9514   12477680.00143   9716998.90542  23850388.2194   23850391.6514
        47.0004         39.0004
 03 12 16 18 10 30.0000000  0  9G31G29G28G27G 7G 8G26G11G13
  22863516.5844    8895751.10043   6924172.08842  22863517.2324   22863517.9454
        49.0004         41.0004
  22957711.7794   -7922077.61043  -6132474.40042  22957714.3814   22957712.5384
        49.0004         44.0004
  20991699.1664   -2139468.15243  -1660878.37742  20991700.4114   20991698.9694
        56.0004         50.0004
  20840685.0274    2928598.61243   2281504.02642  20840686.4814   20840686.7214
        56.0004         49.0004
  22430700.0314   -9556631.11043  -7429584.71342  22430700.5244   22430704.4404
        51.0004         44.0004
  20184991.6704   -1756081.55244  -1365434.22742  20184991.7514   20184990.6504
        58.0004         51.0004
  23804564.6144    -805085.98953   -612747.50152  23804565.5064   23804565.5174
        44.0004         39.0004
  23963227.8334   -4705617.31143  -3663228.53442  23963230.2324   23963233.6064
        43.0004         37.0004
  23871654.1564   12589435.63943   9804080.99642  23871656.4784   23871659.5934
        48.0004         39.0004
 03 12 16 18 11  0.0000000  0  9G31G29G28G27G 7G 8G26G11G13
  22880859.8554    8986894.71943   6995192.98642  22880859.0134   22880861.1214
        48.0004         41.0004
  22943801.4694   -7995173.79843  -6189432.47942  22943802.7894   22943802.2274
        49.0004         43.0004
  20987874.3674   -2159569.87844  -1676542.06842  20987875.5874   20987873.3464
        57.0004         50.0004
  20845978.6034    2956414.46543   2303178.64342  20845979.7474   20845979.6054
        56.0004         49.0004
  22413266.4884   -9648245.04943  -7500972.19542  22413266.8924   22413268.1864
        50.0004         44.0004
  20181689.6644   -1773435.25344  -1378956.62042  20181689.5524   20181688.4474
        58.0004         51.0004
  23787767.4564    -893360.19043   -681532.64042  23787767.3794   23787770.4964
        42.0004         38.0004
  23954146.6814   -4753340.63943  -3700415.58642  23954148.1184   23954151.5604
        43.0004         37.0004
  23892940.8224   12701301.01943   9891248.63942  23892942.9094   23892943.3624
        47.0004         39.0004
 03 12 16 18 11 30.0000000  0  9G31G29G28G27G 7G 8G26G11G13
  22898269.6444    9078381.62043   7066481.36142  22898270.7084   22898270.8774
        49.0004         41.0004
  22929964.4544   -8067887.75943  -6246092.71442  22929965.0394   22929965.1644
        49.0004         43.0004
  20984097.3764   -2179415.28843  -1692006.03342  20984098.9664   20984097.0254
        56.0004         50.0004
  20851334.3854    2984559.40043   2325109.69342  20851335.5864   20851335.5924
        56.0004         49.0004
  22395880.5294   -9739607.90643  -7572164.05242  22395881.1744   22395883.9314
        51.0004         44.0004
  20178446.2234   -1790476.24644  -1392235.34342  20178446.3994   20178445.5064
        57.0004         51.0004
  23771030.5794    -981322.23643   -750074.46842  23771031.7254   23771030.0684
        43.0004         38.0004
  23945121.9364   -4800781.39543  -3737382.41542  23945123.2164   23945125.1764
        45.0004         38.0004
  23914248.4034   12813266.17343   9978493.96342  23914248.9064   23914249.2504
        46.0004         38.0004
 03 12 16 18 12  0.0000000  0  9G31G29G28G27G 7G 8G26G11G13
  22915745.4874    9170214.41243   7138039.26742  22915746.2014   22915745.0904
        49.0004         41.0004
  22916201.0164   -8140211.70543  -6302449.04542  22916202.6224   22916203.6474
        47.0004         43.0004
  20980370.6844   -2198999.78143  -1707266.69242  20980371.7524   20980370.2714
        56.0004         50.0004
  20856754.2624    3013039.61943   2347302.01242  20856755.5164   20856755.7534
        56.0004         49.0004
  22378544.8684   -9830712.08943  -7643154.33942  22378544.9544   22378546.0244
        50.0004         44.0004
  20175264.8244   -1807197.79844  -1405265.15842  20175264.7194   20175263.8244
        58.0004         51.0004
  23754351.8254   -1068963.98843   -818366.73942  23754353.6964   23754352.5474
        45.0004         40.0004
  23936148.5924   -4847931.65543  -3774122.77542  23936151.1694   23936152.2884
        46.0004         40.0004
  23935573.0184   12925333.77343  10065819.15042  23935575.1934   23935577.4564
        44.0004         37.0004
 03 12 16 18 12 30.0000000  0  9G31G29G28G27G 7G 8G26G11G13
  22933284.4184    9262388.03143   7209862.75542  22933286.3644   22933286.2784
        49.0004         41.0004
  22902510.8484   -8212145.48443  -6358501.35242  22902511.8454   22902515.5644
        47.0004         42.0004
  20976693.4824   -2218326.00543  -1722326.10642  20976694.0264   20976692.4184
        56.0004         50.0004
  20862237.2894    3041853.65243   2369754.43042  20862238.0704   20862238.4084
        56.0004         49.0004
  22361257.8464   -9921557.71043  -7713943.14542  22361258.3084   22361259.5734
        52.0004         44.0004
  20172143.2814   -1823600.55744  -1418046.55942  20172143.2334   20172142.4114
        57.0004         51.0004
  23737736.4214   -1156285.15543   -886409.18742  23737737.3924   23737736.8464
        45.0004         40.0004
  23927231.0424   -4894790.75143  -3810636.26642  23927232.5434   23927234.9674
        46.0004         40.0004
  23956917.9814   13037499.19543  10153220.55142  23956918.8124   23956919.6754
        45.0004         38.0004
 03 12 16 18 13  0.0000000  0  9G31G29G28G27G 7G 8G26G11G13
  22950890.4824    9354901.74043   7281951.25742  22950890.6454   22950892.2804
        48.0004         41.0004
  22888900.2794   -8283684.65043  -6414246.14542  22888900.0674   22888901.6434
        48.0004         43.0004
  20973064.9434   -2237392.77843  -1737183.34142  20973066.1384   20973064.4244
        56.0004         50.0004
  20867784.5374    3071004.29143   2392469.14642  20867785.8854   20867785.8924
        56.0004         49.0004
  22344020.3334  -10012140.36543  -7784527.03942  22344021.8304   22344021.2754
        52.0004         45.0004
  20169083.1834   -1839681.36144  -1430577.08842  20169083.2304   20169082.4954
        57.0004         51.0004
  23721181.1844   -1243280.89843   -954198.09142  23721184.1824   23721182.6474
        46.0004         41.0004
  23918371.5524   -4941354.05643  -3846919.26942  23918373.2274   23918375.1584
        48.0004         40.0004
  23978279.6524   13149761.53143  10240697.44942  23978283.2724   23978281.1874
        44.0004         37.0004
 03 12 16 18 13 30.0000000  0  9G31G29G28G27G 7G 8G26G11G13
  22968559.0864    9447749.14443   7354299.76642  22968559.5424   22968558.4404
        49.0004         41.0004
  22875361.6914   -8354830.36543  -6469684.37942  22875362.8894   22875362.8154
        48.0004         43.0004
  20969485.1254   -2256204.13844  -1751841.55142  20969486.4464   20969484.6484
        57.0004         50.0004
  20873395.7164    3100488.98143   2415444.17042  20873396.8674   20873397.2594
        56.0004         49.0004
  22326833.4254  -10102461.58443  -7854907.22342  22326835.0774   22326834.6954
        53.0004         45.0004
  20166083.7084   -1855441.97844  -1442858.11742  20166084.0784   20166083.0974
        57.0004         50.0004
  23704688.5654   -1329952.11543  -1021734.10242  23704690.2884   23704689.4054
        46.0004         41.0004
  23909567.1754   -4987622.43443  -3882972.45942  23909569.0374   23909569.7794
        49.0004         40.0004
  23999661.4644   13262114.90843  10328245.25442  23999664.8774   23999661.7034
        42.0004         37.0004
 03 12 16 18 14  0.0000000  0  9G31G29G28G27G 7G 8G26G11G13
  22986291.1944    9540937.06043   7426913.60942  22986293.6474   22986294.6104
        49.0004         41.0004
  22861900.0144   -8425570.61143  -6524806.64642  22861900.9644   22861900.0564
        48.0004         43.0004
  20965955.8374   -2274751.22643  -1766293.83742  20965957.0684   20965955.0944
        56.0004         50.0004
  20879071.8214    3130317.99443   2438687.49342  20879072.8764   20879072.5664
        56.0004         49.0004
  22309697.6234  -10192509.36743  -7925074.32842  22309700.1884   22309698.7484
        53.0004         46.0004
  20163147.9164   -1870871.56844  -1454881.20042  20163147.7314   20163146.7374
        58.0004         50.0004
  23688258.4054   -1416286.36943  -1089007.51842  23688260.5584   23688259.3114
        47.0004         41.0004
  23900819.4704   -5033584.01743  -3918786.54742  23900820.8884   23900821.6824
        47.0004         39.0004
  24021059.6664   13374566.48543  10415869.63642  24021061.7194   24021061.5574
        43.0004         37.0004
 03 12 16 18 14 30.0000000  0  9G31G29G28G27G 7G 8G26G11G13
  23004086.1604    9634449.36343   7499780.23642  23004089.7114   23004089.0514
        49.0004         41.0004
  22848513.6784   -8495916.05443  -6579621.29442  22848515.5444   22848515.2824
        49.0004         43.0004
  20962474.4614   -2293048.07144  -1780551.12942  20962475.6734   20962473.1654
        57.0004         50.0004
  20884811.3344    3160478.94643   2462189.47842  20884812.3524   20884812.6424
        56.0004         49.0004
  22292612.1624  -10282294.66543  -7995036.92042  22292614.0844   22292613.8154
        53.0004         46.0004
  20160272.7734   -1885981.73844  -1466655.40142  20160272.6174   20160271.9824
        58.0004         51.0004
  23671890.8454   -1502294.39543  -1156026.77642  23671892.6424   23671892.9094
        46.0004         40.0004
  23892130.3394   -5079249.25843  -3954369.73842  23892131.7284   23892133.4304
        47.0004         39.0004
  24042473.9944   13487100.33843  10503558.12542  24042476.6434   24042476.4804
        43.0004         37.0004
 03 12 16 18 15  0.0000000  0  9G31G29G28G27G 7G 8G26G11G13
  23021944.3154    9728293.50843   7572905.44042  23021944.2734   23021945.7124
        48.0004         41.0004
  22835205.4864   -8565854.52343  -6634118.82042  22835207.1874   22835206.0394
        49.0004         44.0004
  20959041.9404   -2311085.17044  -1794606.02542  20959043.0484   20959041.3624
        57.0004         50.0004
  20890615.7834    3190982.66243   2485958.55542  20890617.1544   20890616.5944
        56.0004         49.0004
  22275577.7394  -10371805.32043  -8064785.50142  22275579.5954   22275580.7264
        53.0004         46.0004
  20157460.0684   -1900761.09544  -1478171.81442  20157460.0374   20157459.5534
        58.0004         51.0004
  23655587.6984   -1587963.34843  -1222781.77942  23655589.8424   23655591.3004
        46.0004         41.0004
  23883500.0774   -5124605.15843  -3989711.85742  23883503.6264   23883501.3994
        48.0004         39.0004
  24063907.0164   13599724.14243  10591316.66142  24063906.3104   24063906.4574
        43.0004         36.0004
 03 12 16 18 15 30.0000000  0  9G31G29G28G27G 7G 8G26G11G13
  23039863.3044    9822456.63643   7646279.20642  23039863.5914   23039864.1284
        49.0004         42.0004
  22821972.8954   -8635393.49243  -6688305.04642  22821974.0764   22821973.5404
        50.0004         44.0004
  20955656.7184   -2328873.03143  -1808466.71642  20955657.7654   20955656.2294
        56.0004         50.0004
  20896484.2194    3221820.16043   2509987.71742  20896485.3854   20896485.4634
        56.0004         49.0004
  22258596.2234  -10461048.86343  -8134325.95042  22258596.8724   22258598.9844
        52.0004         46.0004
  20154708.9804   -1915218.20644  -1489437.13442  20154708.9644   20154708.6164
        57.0004         51.0004
  23639349.8354   -1673300.47343  -1289278.24342  23639351.5404   23639351.6784
        46.0004         41.0004
  23874925.5494   -5169659.38443  -4024818.92042  23874926.1394   23874925.9724
        48.0004         39.0004
  24085353.9724   13712425.75043  10679135.81642  24085353.3214   24085356.0954
        40.0004         36.0004
 03 12 16 18 16  0.0000000  0  9G31G29G28G27G 7G 8G26G11G13
  23057842.7144    9916943.80243   7719905.45742  23057843.5524   23057844.8954
        49.0004         42.0004
  22808817.4424   -8704522.68843  -6742171.96142  22808819.1844   22808818.5394
        50.0004         44.0004
  20952320.7854   -2346404.47443  -1822127.60442  20952321.9624   20952320.3954
        56.0004         50.0004
  20902417.3574    3252999.77443   2534283.47442  20902418.5804   20902418.8924
        56.0004         49.0004
  22241664.8924  -10550015.34943  -8203650.51642  22241666.6314   22241668.3294
        52.0004         45.0004
  20152021.5174   -1929343.67644  -1500444.02042  20152021.2304   20152020.5464
        58.0004         51.0004
  23623175.9694   -1758295.21343  -1355507.89542  23623177.8334   23623178.6484
        46.0004         41.0004
  23866411.6444   -5214401.22943  -4059682.54842  23866410.8774   23866413.6004
        48.0004         39.0004
  24106815.9824   13825210.34943  10767019.62842  24106817.0324   24106817.3784
        43.0004         37.0004
 03 12 16 18 16 30.0000000  0  9G31G29G28G27G 7G 8G26G11G13
  23075884.6914   10011750.16643   7793780.46942  23075885.1244   23075886.5604
        49.0004         41.0004
  22795741.1424   -8773241.98743  -6795719.48442  22795741.5444   22795742.1704
        50.0004         44.0004
  20949032.9414   -2363682.47643  -1835591.00742  20949033.7064   20949032.5774
        56.0004         50.0004
  20908415.3984    3284520.26843   2558844.84742  20908416.6804   20908416.5964
        56.0004         49.0004
  22224788.5434  -10638704.67043  -8272759.11842  22224789.0524   22224791.5524
        51.0004         45.0004
  20149396.2054   -1943138.25244  -1511193.07942  20149396.0354   20149395.4134
        58.0004         51.0004
  23607068.1304   -1842947.15143  -1421470.43542  23607069.4984   23607069.7854
        48.0004         42.0004
  23857955.6874   -5258830.44843  -4094302.58442  23857956.4664   23857959.1664
        46.0004         39.0004
  24128293.3504   13938072.98343  10854964.24242  24128294.2444   24128296.1094
        44.0004         37.0004
 03 12 16 18 17  0.0000000  0  9G31G29G28G27G 7G 8G26G11G13
  23093986.3474   10106872.35243   7867901.55842  23093988.0084   23093989.3564
        48.0004         41.0004
  22782742.2344   -8841549.50043  -6848946.14342  22782743.5294   22782743.3804
        50.0004         44.0004
  20945793.3014   -2380708.04644  -1848857.71142  20945794.6744   20945792.6244
        57.0004         50.0004
  20914478.8344    3316381.86343   2583672.00942  20914480.1404   20914479.8694
        56.0004         49.0004
  22207965.3824  -10727115.14943  -8341650.43842  22207965.6334   22207967.6474
        52.0004         45.0004
  20146834.5034   -1956600.97644  -1521683.54742  20146834.5834   20146833.4014
        58.0004         51.0004
  23591024.5154   -1927254.08143  -1487164.12742  23591026.2834   23591026.2284
        47.0004         41.0004
  23849561.7244   -5302945.07943  -4128677.44542  23849565.2984   23849562.0044
        47.0004         40.0004
  24149783.5864   14051010.63743  10942967.33642  24149786.6704   24149788.4264
        44.0004         37.0004
 03 12 16 18 17 30.0000000  0  9G31G29G28G27G 7G 8G26G11G13
  23112146.9934   10202307.36443   7942266.40842  23112148.5084   23112147.8794
        48.0004         41.0004
  22769822.0394   -8909443.16543  -6901850.31042  22769823.3524   22769821.8584
        50.0004         44.0004
  20942601.1154   -2397482.05544  -1861928.40042  20942602.2914   20942600.3934
        57.0004         50.0004
  20920606.7964    3348585.21743   2608765.48442  20920607.8104   20920608.3734
        56.0004         49.0004
  22191195.2514  -10815244.87043  -8410322.98042  22191195.6684   22191196.9184
        52.0004         45.0004
  20144335.8054   -1969730.72444  -1531914.54842  20144335.9074   20144335.2184
        58.0004         51.0004
  23575047.7704   -2011213.40543  -1552586.99242  23575050.0164   23575050.1434
        47.0004         41.0004
  23841227.2584   -5346742.67343  -4162805.30042  23841228.7684   23841229.9884
        48.0004         40.0004
  24171289.7994   14164020.91043  11031026.98742  24171290.6794   24171294.2424
        44.0004         38.0004
 03 12 16 18 18  0.0000000  0  9G31G29G28G27G 7G 8G26G11G13
  23130367.0684   10298053.22643   8016873.48442  23130368.4354   23130367.3614
        48.0004         41.0004
  22756983.0024   -8976919.54243  -6954429.32842  22756984.5784   22756983.1764
        51.0004         44.0004
  20939456.8674   -2414004.42644  -1874802.99942  20939458.1854   20939456.3984
        57.0004         50.0004
  20926800.2964    3381131.81243   2634126.42642  20926801.5494   20926801.3504
        55.0004         49.0004
  22174477.5904  -10903090.72543  -8478774.31342  22174479.7874   22174481.8624
        52.0004         46.0004
  20141901.3894   -1982525.15444  -1541884.26342  20141901.4264   20141900.7174
        58.0004         51.0004
  23559136.2724   -2094821.72443  -1617736.32242  23559138.3164   23559139.2184
        46.0004         41.0004
  23832952.6564   -5390219.69943  -4196683.33342  23832953.4444   23832955.0094
        46.0004         39.0004
  24192808.1114   14277102.16643  11119141.97842  24192811.9464   24192814.3624
        46.0004         38.0004
 03 12 16 18 18 30.0000000  0  9G31G29G28G27G 7G 8G26G11G13
  23148645.1004   10394107.47143   8091720.84842  23148647.1144   23148645.2844
        48.0004         40.0004
  22744221.7784   -9043976.15443  -7006681.23942  22744223.4694   22744222.3674
        51.0004         44.0004
  20936360.5564   -2430275.35144  -1887481.66342  20936361.8374   20936360.0904
        57.0004         50.0004
  20933059.1024    3414022.79243   2659755.72742  20933060.2524   20933059.7894
        55.0004         49.0004
  22157816.1084  -10990650.03843  -8547002.38442  22157817.7624   22157817.7374
        53.0004         45.0004
  20139531.1744   -1994982.28744  -1551591.14442  20139530.9154   20139529.7284
        58.0004         51.0004
  23543295.0384   -2178075.91643  -1682609.74042  23543296.9704   23543298.1904
        47.0004         41.0004
  23824741.3554   -5433373.63843  -4230309.59842  23824742.7944   23824743.2684
        47.0004         39.0004
  24214341.3324   14390252.25043  11207310.58242  24214342.3864   24214344.1504
        47.0004         39.0004
 03 12 16 18 19  0.0000000  0  9G31G29G28G27G 7G 8G26G11G13
  23166980.4034   10490462.95943   8166802.96742  23166981.7944   23166983.6274
        47.0004         40.0004
  22731541.3784   -9110615.12443  -7058607.73742  22731541.7294   22731541.2954
        51.0004         44.0004
  20933311.6954   -2446299.90044  -1899968.36742  20933312.6984   20933311.2074
        57.0004         50.0004
  20939383.3784    3447254.47643   2685650.50042  20939384.1374   20939384.2344
        55.0004         49.0004
  22141207.9834  -11077925.28343  -8615009.11642  22141209.5574   22141210.8614
        52.0004         45.0004
  20137223.5254   -2007105.26644  -1561037.65542  20137223.8084   20137223.6054
        57.0004         51.0004
  23527519.2884   -2260977.83243  -1747208.63342  23527521.8384   23527521.0844
        47.0004         41.0004
  23816591.2044   -5476206.09043  -4263685.39542  23816593.1964   23816592.2364
        47.0004         39.0004
  24235884.1544   14503464.02343  11295527.27342  24235885.5544   24235888.8584
        46.0004         38.0004
 03 12 16 18 19 30.0000000  0  8G31G29G28G27G 7G 8G26G11
  23185373.3404   10587122.17843   8242121.76242  23185374.7734   23185376.8044
        47.0004         40.0004
  22718940.7924   -9176828.84743  -7110202.87242  22718943.1184   22718941.6074
        51.0004         44.0004
  20930310.2104   -2462073.57544  -1912259.57242  20930311.3414   20930309.4124
        57.0004         50.0004
  20945772.6704    3480832.77743   2711815.34942  20945774.2004   20945774.1184
        55.0004         48.0004
  22124656.4654  -11164908.87143  -8682788.56942  22124656.6984   22124658.0674
        52.0004         45.0004
  20134981.7144   -2018887.41544  -1570218.58242  20134981.4174   20134980.9154
        57.0004         50.0004
  23511812.8964   -2343519.63143  -1811526.90342  23511813.7514   23511814.4104
        47.0004         41.0004
  23808502.9834   -5518709.31243  -4296804.69242  23808503.7324   23808506.7594
        46.0004         39.0004
 03 12 16 18 20  0.0000000  0  8G31G29G28G27G 7G 8G26G11
  23203825.2994   10684079.63943   8317672.96342  23203825.1254   23203826.5754
        47.0004         40.0004
  22706420.9194   -9242617.60643  -7161466.86142  22706423.5754   22706422.5064
        51.0004         44.0004
  20927355.8674   -2477599.61244  -1924357.81442  20927356.9734   20927355.1484
        57.0004         50.0004
  20952228.3114    3514755.89243   2738248.89142  20952229.3024   20952229.2054
        56.0004         48.0004
  22108158.9194  -11251601.31943  -8750341.18042  22108159.1434   22108159.8544
        52.0004         45.0004
  20132804.6924   -2030329.87544  -1579134.81342  20132804.3084   20132803.5644
        57.0004         50.0004
  23496173.8044   -2425700.92143  -1875564.28442  23496176.0394   23496175.3454
        47.0004         40.0004
  23800475.6904   -5560883.33043  -4329667.44042  23800476.5404   23800481.4584
        45.0004         39.0004
 03 12 16 18 20 30.0000000  0  8G31G29G28G27G 7G 8G26G11
  23222332.3574   10781333.55043   8393455.15842  23222332.8254   23222334.4224
        47.0004         40.0004
  22693983.2724   -9307978.28043  -7212397.27942  22693984.6584   22693985.4064
        51.0004         44.0004
  20924447.8454   -2492877.55744  -1936262.74642  20924449.2144   20924447.8294
        57.0004         50.0004
  20958749.8354    3549025.38843   2764952.34742  20958750.9564   20958750.4734
        56.0004         48.0004
  22091718.1094  -11337999.58343  -8817664.53642  22091718.2294   22091718.7454
        52.0004         45.0004
  20130691.8284   -2041430.12644  -1587784.38642  20130691.8084   20130691.7734
        57.0004         51.0004
  23480604.1934   -2507518.45043  -1939318.16342  23480605.4964   23480606.6134
        47.0004         40.0004
  23792514.1404   -5602725.01543  -4362271.26342  23792514.9444   23792516.6024
        45.0004         39.0004
 03 12 16 18 21  0.0000000  0  8G31G29G28G27G 7G 8G26G11
  23240894.4914   10878880.64243   8469465.79842  23240895.4724   23240896.6254
        46.0004         40.0004
  22681628.2034   -9372908.98843  -7262992.65342  22681629.1694   22681628.5704
        51.0004         44.0004
  20921588.0294   -2507908.54844  -1947975.25142  20921588.8514   20921587.5924
        57.0004         50.0004
  20965337.0844    3583641.59043   2791925.95042  20965338.1124   20965337.9944
        56.0004         48.0004
  22075333.3724  -11424101.90643  -8884757.29342  22075334.0244   22075335.2464
        53.0004         45.0004
  20128645.1324   -2052187.31944  -1596166.64542  20128644.8384   20128644.4754
        57.0004         51.0004
  23465103.7924   -2588969.92043  -2002786.82942  23465105.3364   23465106.2274
        47.0004         39.0004
  23784616.3344   -5644232.08043  -4394614.33742  23784617.9244   23784618.8764
        46.0004         39.0004
 03 12 16 18 21 30.0000000  0  8G31G29G28G27G 7G 8G26G11
  23259512.0634   10976717.48043   8545702.22542  23259514.6464   23259516.1174
        46.0004         40.0004
  22669354.0924   -9437407.98143  -7313251.62542  22669355.7934   22669354.6854
        51.0004         44.0004
  20918774.1854   -2522694.27944  -1959496.63642  20918775.4344   20918773.6304
        57.0004         50.0004
  20971990.4954    3618604.44343   2819169.66642  20971991.4324   20971991.2044
        56.0004         49.0004
  22059004.7444  -11509906.83443  -8951618.31442  22059006.0014   22059006.3844
        53.0004         45.0004
  20126663.0694   -2062600.80844  -1604281.08442  20126663.1244   20126662.8724
        57.0004         51.0004
  23449671.3674   -2670053.39843  -2065968.75842  23449675.7364   23449677.0174
        46.0004         39.0004
  23776781.4994   -5685402.56943  -4426695.17142  23776782.2414   23776783.2504
        46.0004         39.0004
 03 12 16 18 22  0.0000000  0  8G31G29G28G27G 7G 8G26G11
  23278185.1494   11074843.22143   8622163.75242  23278187.5734   23278187.3024
        47.0004         40.0004
  22657163.4764   -9501471.32943  -7363171.14342  22657164.9824   22657165.3724
        51.0004         44.0004
  20916007.6354   -2537233.23044  -1970825.72242  20916008.7724   20916006.9244
        57.0004         50.0004
  20978710.1314    3653916.52443   2846685.51542  20978711.3604   20978711.4764
        56.0004         49.0004
  22042733.8924  -11595410.38043  -9018244.48742  22042735.0824   22042736.2304
        53.0004         45.0004
  20124747.7514   -2072667.03144  -1612124.93042  20124747.5464   20124747.4704
        57.0004         51.0004
  23434314.6234   -2750764.44043  -2128860.45542  23434316.4074   23434315.9564
        44.0004         39.0004
  23769010.0974   -5726232.32743  -4458510.47642  23769011.4474   23769014.5734
        45.0004         39.0004
 03 12 16 18 22 30.0000000  0  8G31G29G28G27G 7G 8G26G11
  23296911.3924   11173251.42043   8698845.39842  23296912.3244   23296913.8624
        46.0004         40.0004
  22645055.7064   -9565100.38843  -7412752.24042  22645056.2694   22645057.2814
        52.0004         44.0004
  20913286.8464   -2551529.67043  -1981965.84042  20913288.1624   20913286.1644
        56.0004         50.0004
  20985495.4494    3689575.00143   2874471.28842  20985496.2864   20985496.5744
        56.0004         48.0004
  22026520.6244  -11680613.86443  -9084636.85842  22026522.1694   22026523.2354
        53.0004         46.0004
  20122898.4604   -2082388.19644  -1619699.88942  20122898.3204   20122897.3724
        57.0004         51.0004
  23419025.7694   -2831103.77243  -2191462.53442  23419027.4024   23419029.4464
        45.0004         39.0004
  23761308.1054   -5766722.17943  -4490060.94942  23761308.8614   23761307.9954
        48.0004         39.0004
 03 12 16 18 23  0.0000000  0  8G31G29G28G27G 7G 8G26G11
  23315691.5014   11271939.42243   8775745.07242  23315693.1494   23315693.8474
        47.0004         40.0004
  22633031.0904   -9628292.65343  -7461992.99342  22633031.8414   22633031.7134
        51.0004         44.0004
  20910612.5094   -2565584.21643  -1992917.47142  20910613.7014   20910612.2464
        56.0004         50.0004
  20992347.5954    3725580.66143   2902527.58542  20992348.6874   20992348.6504
        56.0004         49.0004
  22010365.3884  -11765515.11243  -9150793.69742  22010365.1334   22010367.0324
        53.0004         46.0004
  20121113.9154   -2091762.98044  -1627004.94142  20121113.9494   20121113.6464
        57.0004         51.0004
  23403808.7734   -2911068.88343  -2253773.01342  23403810.7204   23403812.0414
        45.0004         39.0004
  23753667.1454   -5806869.57943  -4521344.59942  23753669.9304   23753669.2064
        47.0004         39.0004
 03 12 16 18 23 30.0000000  0  8G31G29G28G27G 7G 8G26G11
  23334524.7204   11370909.66243   8852864.68242  23334525.6374   23334527.7324
        47.0004         41.0004
  22621089.6584   -9691040.86743  -7510887.72142  22621091.2884   22621091.5204
        51.0004         44.0004
  20907985.1574   -2579392.36144  -2003677.09542  20907986.6224   20907984.6474
        57.0004         50.0004
  20999265.8334    3761939.06843   2930858.74842  20999267.4294   20999267.6364
        55.0004         49.0004
  21994266.6344  -11850106.94843  -9216709.44342  21994267.7834   21994269.7754
        52.0004         46.0004
  20119397.3484   -2100784.79844  -1634034.95842  20119396.9704   20119396.7774
        57.0004         50.0004
  23388665.5594   -2990651.96343  -2315785.75642  23388667.4314   23388668.1014
        45.0004         39.0004
  23746092.4214   -5846667.21343  -4552355.67742  23746093.7624   23746095.5964
        47.0004         39.0004
 03 12 16 18 24  0.0000000  0  8G31G29G28G27G 7G 8G26G11
  23353409.8254   11470150.73943   8930195.34342  23353410.2324   23353412.7194
        47.0004         41.0004
  22609232.1004   -9753351.12043  -7559441.20242  22609233.5944   22609233.1954
        51.0004         44.0004
  20905402.3924   -2592963.17944  -2014251.79042  20905404.0484   20905402.3944
        57.0004         50.0004
  21006250.7174    3798642.61843   2959458.85042  21006251.5274   21006252.4084
        55.0004         48.0004
  21978227.3264  -11934395.73143  -9282389.03742  21978228.1914   21978230.5464
        52.0004         46.0004
  20117746.3514   -2109460.72944  -1640795.45242  20117745.9964   20117745.7664
        57.0004         50.0004
  23373592.6744   -3069858.89043  -2377505.46142  23373597.0414   23373596.4844
        46.0004         39.0004
  23738585.7964   -5886121.07243  -4583098.87942  23738586.1334   23738588.1944
        47.0004         39.0004
 03 12 16 18 24 30.0000000  0  8G31G29G28G27G 7G 8G26G11
  23372347.2994   11569665.42743   9007739.18942  23372347.7034   23372348.6254
        48.0004         41.0004
  22597459.3064   -9815216.03943  -7607647.65842  22597460.6284   22597459.7024
        51.0004         44.0004
  20902865.7604   -2606291.91243  -2024637.84442  20902867.5664   20902866.1344
        56.0004         50.0004
  21013301.5244    3835697.21543   2988332.50142  21013303.0454   21013303.0974
        55.0004         48.0004
  21962247.3584  -12018373.93243  -9347826.61942  21962248.4174   21962248.8864
        54.0004         46.0004
  20116162.4784   -2117783.84044  -1647281.01642  20116162.3124   20116161.8934
        57.0004         51.0004
  23358594.5394   -3148681.47043  -2438925.61142  23358596.3804   23358595.6474
        47.0004         40.0004
  23731145.5124   -5925223.14143  -4613568.00642  23731147.0814   23731147.4524
        48.0004         39.0004
 03 12 16 18 25  0.0000000  0  8G31G29G28G27G 7G 8G26G11
  23391335.9114   11669450.92643   9085494.07142  23391336.8414   23391337.8524
        49.0004         42.0004
  22585771.3554   -9876633.23743  -7655505.23842  22585773.9134   22585773.2224
        51.0004         44.0004
  20900376.0704   -2619379.38644  -2034835.91642  20900377.3084   20900375.3534
        57.0004         50.0004
  21020419.8904    3873103.58543   3017480.25842  21020421.0004   21020421.5204
        55.0004         48.0004
  21946325.7344  -12102039.53143  -9413020.61842  21946327.2304   21946328.2424
        53.0004         46.0004
  20114646.1294   -2125752.79644  -1653490.62042  20114645.9334   20114645.6684
        57.0004         51.0004
  23343668.3174   -3227117.26343  -2500044.42942  23343669.7124   23343670.2824
        47.0004         40.0004
  23723772.2844   -5963971.00843  -4643761.12542  23723774.5654   23723772.8064
        47.0004         39.0004
 03 12 16 18 25 30.0000000  0  8G31G29G28G27G 7G 8G26G11
  23410375.2684   11769504.04143   9163457.48142  23410378.2134   23410378.5684
        49.0004         41.0004
  22574170.9484   -9937600.93643  -7703012.56742  22574171.9054   22574171.4554
        51.0004         44.0004
  20897931.4804   -2632226.46344  -2044846.65042  20897932.4034   20897930.7114
        57.0004         50.0004
  21027604.5644    3910861.87943   3046902.24442  21027606.0394   21027606.5044
        54.0004         48.0004
  21930464.5004  -12185390.73043  -9477969.62242  21930466.0624   21930466.8264
        54.0004         47.0004
  20113197.3394   -2133366.56644  -1659423.45842  20113197.3174   20113196.8364
        58.0004         51.0004
  23328814.9514   -3305164.00443  -2560860.03742  23328816.8074   23328819.4304
        46.0004         40.0004
  23716466.0294   -6002363.08743  -4673676.98742  23716470.0254   23716468.6524
        47.0004         39.0004
 03 12 16 18 26  0.0000000  0  8G31G29G28G27G 7G 8G26G11
  23429464.2974   11869820.52143   9241626.09442  23429464.0024   23429468.5084
        48.0004         42.0004
  22562655.0464   -9998118.73843  -7750169.31042  22562655.8864   22562656.2664
        52.0004         45.0004
  20895531.8254   -2644835.32143  -2054671.75242  20895532.8214   20895531.2014
        56.0004         50.0004
  21034857.1704    3948971.27143   3076597.80342  21034858.3654   21034858.2744
        55.0004         48.0004
  21914664.2224  -12268427.00843  -9542673.23742  21914665.2564   21914665.6694
        54.0004         47.0004
  20111815.8684   -2140625.14244  -1665079.51742  20111815.9524   20111815.3154
        57.0004         51.0004
  23314038.3994   -3382820.67543  -2621371.73142  23314039.8824   23314040.2894
        46.0004         40.0004
  23709227.8184   -6040397.73643  -4703314.35442  23709230.1184   23709231.5224
        47.0004         39.0004
 03 12 16 18 26 30.0000000  0  8G31G29G28G27G 7G 8G26G11
  23448604.3114   11970398.18843   9319998.23842  23448606.5504   23448606.7064
        49.0004         42.0004
  22551224.6254  -10058183.55843  -7796973.10342  22551225.7524   22551225.4674
        51.0004         45.0004
  20893177.3644   -2657206.09343  -2064311.33642  20893178.7914   20893176.9494
        56.0004         50.0004
  21042176.3394    3987432.82843   3106567.77142  21042177.5494   21042177.5894
        55.0004         48.0004
  21898923.3434  -12351145.76843  -9607129.43642  21898924.0024   21898925.2454
        54.0004         47.0004
  20110502.6854   -2147526.56644  -1670457.27542  20110502.2864   20110502.0974
        57.0004         51.0004
  23299334.9784   -3460084.15843  -2681577.02842  23299337.1424   23299338.1144
        47.0004         40.0004
  23702059.6224   -6078072.47743  -4732671.25842  23702062.3954   23702059.0564
        49.0004         39.0004
 03 12 16 18 27  0.0000000  0  8G31G29G28G27G 7G 8G26G11
  23467793.2824   12071235.07143   9398572.34942  23467795.1254   23467793.8824
        50.0004         42.0004
  22539881.7434  -10117792.70743  -7843421.81742  22539883.0274   22539882.5914
        52.0004         45.0004
  20890868.9854   -2669338.70543  -2073765.34342  20890869.9094   20890868.2774
        56.0004         50.0004
  21049562.7044    4026248.04543   3136813.33042  21049563.5224   21049563.6874
        55.0004         48.0004
  21883242.4954  -12433544.09943  -9671335.94542  21883244.0034   21883246.0594
        54.0004         47.0004
  20109258.2294   -2154068.97444  -1675555.28442  20109257.7984   20109257.3574
        58.0004         51.0004
  23284708.2674   -3536951.01243  -2741473.26742  23284709.0204   23284712.0754
        46.0004         40.0004
  23694958.2924   -6115384.04743  -4761745.16242  23694960.6164   23694963.8754
        49.0004         40.0004
 03 12 16 18 27 30.0000000  0  8G31G29G28G27G 7G 8G26G11
  23487030.8054   12172331.21643   9477348.48442  23487031.8694   23487034.3524
        50.0004         42.0004
  22528626.1574  -10176940.90543  -7889511.35742  22528626.7344   22528627.2114
        52.0004         45.0004
  20888606.5124   -2681230.85844  -2083031.96842  20888607.5404   20888605.4824
        57.0004         50.0004
  21057017.0344    4065420.43343   3167337.19642  21057018.4304   21057018.8414
        55.0004         48.0004
  21867624.5454  -12515617.15443  -9735288.99142  21867625.9864   21867627.5144
        54.0004         47.0004
  20108082.8654   -2160247.60944  -1680369.82442  20108082.3984   20108081.2244
        58.0004         51.0004
  23270158.0544   -3613415.88743  -2801056.27442  23270159.6014   23270161.0144
        47.0004         40.0004
  23687929.2244   -6152327.01443  -4790531.86742  23687933.4874   23687932.6174
        49.0004         40.0004
 03 12 16 18 28  0.0000000  0  8G31G29G28G27G 7G 8G26G11
  23506317.2914   12273679.91443   9556321.38742  23506317.3214   23506319.0684
        51.0004         42.0004
  22517457.6784  -10235630.22243  -7935243.32242  22517459.8724   22517459.2494
        52.0004         45.0004
  20886388.0384   -2692887.11344  -2092114.78042  20886389.2754   20886387.5604
        57.0004         50.0004
  21064538.8534    4104946.34043   3198136.53442  21064540.1424   21064539.8294
        55.0004         48.0004
  21852068.8324  -12597367.02143  -9798990.19042  21852069.2964   21852071.8444
        53.0004         47.0004
  20106975.2544   -2166065.49044  -1684903.26642  20106975.0714   20106974.7254
        58.0004         51.0004
  23255683.5694   -3689480.33943  -2860327.27742  23255684.7514   23255686.2144
        47.0004         40.0004
  23680968.0904   -6188903.18443  -4819032.74842  23680970.0614   23680971.5364
        48.0004         39.0004
 03 12 16 18 28 30.0000000  0  8G31G29G28G27G 7G 8G26G11
  23525650.1774   12375272.76643   9635484.54142  23525650.3604   23525651.4824
        51.0004         42.0004
  22506376.5014  -10293864.25743  -7980620.52242  22506377.5054   22506378.0514
        52.0004         45.0004
  20884213.3394   -2704313.63043  -2101018.58642  20884214.6354   20884213.1404
        56.0004         50.0004
  21072126.0354    4144820.89443   3229207.54142  21072127.3254   21072127.6274
        55.0004         48.0004
  21836571.6674  -12678797.00243  -9862442.12442  21836573.7494   21836576.1944
        53.0004         47.0004
  20105935.7384   -2171526.80344  -1689158.85642  20105935.6304   20105935.1384
        58.0004         51.0004
  23241283.8344   -3765147.14643  -2919288.45742  23241285.1224   23241286.2794
        46.0004         41.0004
  23674077.5764   -6225115.98943  -4847250.49442  23674080.1594   23674080.7484
        48.0004         39.0004
 03 12 16 18 29  0.0000000  0  8G31G29G28G27G 7G 8G26G11
  23545029.7984   12477113.35343   9714840.71842  23545030.7764   23545031.5704
        51.0004         42.0004
  22495382.3684  -10351634.48743  -8025636.30642  22495384.1284   22495383.9954
        51.0004         45.0004
  20882083.5774   -2715505.19443  -2109739.31042  20882084.7184   20882083.6744
        56.0004         50.0004
  21079782.0754    4185050.78843   3260555.43142  21079783.4014   21079783.4594
        55.0004         48.0004
  21821139.7174  -12759899.02743  -9925638.49942  21821140.4484   21821142.0104
        54.0004         47.0004
  20104966.0644   -2176623.64344  -1693130.44642  20104965.5564   20104964.7754
        57.0004         51.0004
  23226962.9704   -3840407.64643  -2977932.97442  23226963.0784   23226964.9274
        46.0004         41.0004
  23667257.1544   -6260956.49343  -4875178.18042  23667260.2314   23667257.5154
        48.0004         40.0004
 03 12 16 18 29 30.0000000  0  8G31G29G28G27G 7G 8G26G11
  23564456.5444   12579201.70743   9794389.95642  23564458.6564   23564459.0904
        51.0004         42.0004
  22484478.8954  -10408936.08843  -8070286.93542  22484480.7434   22484479.4274
        52.0004         45.0004
  20879998.9024   -2726459.42143  -2118275.08842  20880000.2584   20879998.8274
        56.0004         50.0004
  21087506.5404    4225639.46343   3292182.89642  21087507.4624   21087507.4054
        55.0004         48.0004
  21805770.5244  -12840668.15943  -9988575.48742  21805769.6544   21805772.6974
        53.0004         47.0004
  20104066.3334   -2181352.01544  -1696814.91042  20104066.1654   20104065.7444
        58.0004         51.0004
  23212718.9524   -3915256.39543  -3036256.67642  23212720.1114   23212720.8964
        47.0004         41.0004
  23660508.7964   -6296419.99843  -4902812.04942  23660509.0604   23660510.9584
        47.0004         40.0004
 03 12 16 18 30  0.0000000  0  8G31G29G28G27G 7G 8G26G11
  23583926.8324   12681524.48943   9874121.87442  23583929.1034   23583930.8824
        50.0004         42.0004
  22473663.0464  -10465777.67343  -8114579.11642  22473664.5344   22473662.7444
        52.0004         45.0004
  20877958.0394   -2737187.53044  -2126634.67842  20877959.0374   20877957.2074
        57.0004         50.0004
  21095296.2034    4266576.74843   3324082.00242  21095297.4034   21095298.1264
        55.0004         48.0004
  21790461.1144  -12921113.02643 -10051259.76142  21790462.8984   21790464.8164
        53.0004         47.0004
  20103234.6744   -2185721.31044  -1700219.58042  20103234.4524   20103233.8094
        57.0004         51.0004
  23198552.9454   -3989701.71743  -3094266.01442  23198553.5974   23198556.3614
        47.0004         41.0004
  23653830.3964   -6331514.60543  -4930158.50142  23653830.5234   23653833.5834
        47.0004         40.0004
 03 12 16 18 30 30.0000000  0  8G31G29G28G27G 7G 8G26G11
  23603445.6824   12784092.55243   9954044.90442  23603447.4024   23603448.6454
        50.0004         42.0004
  22462936.3914  -10522143.53843  -8158500.60542  22462938.3014   22462937.3164
        52.0004         45.0004
  20875962.2604   -2747676.72144  -2134808.09542  20875963.3174   20875961.4564
        57.0004         50.0004
  21103155.5814    4307876.77143   3356263.75842  21103156.9334   21103156.3034
        55.0004         48.0004
  21775217.9194  -13001218.13343 -10113679.29842  21775219.7444   21775220.6164
        54.0004         47.0004
  20102474.7704   -2189716.27844  -1703332.56742  20102474.5604   20102473.7574
        57.0004         51.0004
  23184467.2614   -4063727.40543  -3151948.37642  23184469.7424   23184470.1044
        49.0004         42.0004
  23647225.6484   -6366224.42443  -4957205.10742  23647227.3564   23647227.0114
        47.0004         39.0004
 03 12 16 18 31  0.0000000  0  8G31G29G28G27G 7G 8G26G11
  23623008.3464   12886893.53243  10034149.41942  23623009.0034   23623012.8074
        50.0004         42.0004
  22452299.8574  -10578041.10743  -8202057.18942  22452301.5684   22452299.8904
        52.0004         45.0004
  20874009.0634   -2757937.11643  -2142803.22842  20874010.5904   20874009.3014
        56.0004         50.0004
  21111081.8914    4349530.44243   3388721.09042  21111082.9584   21111083.3724
        55.0004         48.0004
  21760038.2024  -13080991.24843 -10175840.15042  21760038.7864   21760039.3524
        54.0004         47.0004
  20101783.7104   -2193345.48844  -1706160.54442  20101783.9104   20101783.5704
        58.0004         51.0004
  23170458.8134   -4137340.67543  -3209309.36942  23170460.5694   23170460.2754
        48.0004         42.0004
  23640690.9714   -6400556.37743  -4983957.33642  23640695.4494   23640693.6754
        47.0004         40.0004
 03 12 16 18 31 30.0000000  0  8G31G29G28G27G 7G 8G26G11
  23642617.4484   12989938.91843  10114444.40442  23642618.0444   23642621.2174
        50.0004         42.0004
  22441754.9824  -10633454.40643  -8245236.41742  22441756.7484   22441756.2414
        52.0004         45.0004
  20872103.0904   -2767955.35044  -2150609.66842  20872104.2254   20872102.4824
        57.0004         50.0004
  21119078.2904    4391552.36043   3421465.37242  21119079.3824   21119080.0574
        55.0004         48.0004
  21744923.9784  -13160415.97543 -10237729.51142  21744925.0034   21744925.7054
        54.0004         47.0004
  20101166.0224   -2196593.12144  -1708691.20042  20101166.0324   20101165.5104
        58.0004         51.0004
  23156532.7444   -4210524.75543  -3266335.95042  23156535.6614   23156535.0174
        49.0004         43.0004
  23634233.4144   -6434494.69843  -5010402.79342  23634235.2174   23634236.4974
        47.0004         40.0004
 03 12 16 18 32  0.0000000  0  8G31G29G28G27G 7G 8G26G11
  23662268.4894   13093204.12043  10194910.66942  23662270.4144   23662270.5094
        50.0004         42.0004
  22431298.3984  -10688403.21943  -8288053.69342  22431299.5214   22431299.3234
        52.0004         45.0004
  20870239.0524   -2777753.85844  -2158244.88342  20870240.1854   20870237.7324
        57.0004         50.0004
  21127140.6364    4433921.11643   3454479.91442  21127142.0444   21127142.9924
        55.0004         48.0004
  21729872.1774  -13239512.37043 -10299363.02742  21729873.6274   21729873.7574
        54.0004         47.0004
  20100616.7154   -2199479.93844  -1710940.69142  20100616.7404   20100616.4354
        57.0004         51.0004
  23142684.8334   -4283299.01643  -3323043.16142  23142686.7324   23142686.5674
        49.0004         43.0004
  23627847.0594   -6468058.73843  -5036556.62642  23627849.0034   23627847.9184
        47.0004         40.0004
 03 12 16 18 32 30.0000000  0  8G31G29G28G27G 7G 8G26G11
  23681960.7664   13196694.20043  10275552.17742  23681963.4034   23681962.2104
        49.0004         42.0004
  22420931.7794  -10742877.85643  -8330501.49742  22420933.6184   22420933.7534
        52.0004         45.0004
  20868416.9674   -2787325.47744  -2165703.30242  20868418.3914   20868416.4894
        57.0004         50.0004
  21135270.7164    4476644.85243   3487771.06642  21135271.9874   21135272.8374
        54.0004         48.0004
  21714885.4704  -13318270.85543 -10360733.23242  21714885.9944   21714887.2534
        55.0004         47.0004
  20100137.6524   -2201996.70944  -1712901.83742  20100137.6924   20100137.4334
        57.0004         51.0004
  23128915.1004   -4355653.25443  -3379423.10242  23128918.0994   23128917.2234
        50.0004         43.0004
  23621532.9294   -6501238.28243  -5062410.81442  23621535.1774   23621536.3444
        48.0004         40.0004
 03 12 16 18 33  0.0000000  0  8G31G29G28G27G 7G 8G26G11
  23701697.3034   13300411.00343  10356370.38442  23701699.1454   23701701.0394
        48.0004         42.0004
  22410657.4164  -10796871.64243  -8372574.60342  22410658.8114   22410658.4944
        52.0004         45.0004
  20866639.7974   -2796666.21744  -2172981.81642  20866640.7894   20866639.1554
        57.0004         50.0004
  21143469.4304    4519728.85443   3521342.95042  21143470.8934   21143471.3454
        55.0004         48.0004
  21699963.6564  -13396684.71743 -10421834.89942  21699964.2974   21699966.0404
        55.0004         47.0004
  20099730.7114   -2204137.55844  -1714570.05742  20099730.1654   20099729.7014
        57.0004         51.0004
  23115227.4284   -4427580.50843  -3435470.31942  23115230.7374   23115230.2424
        49.0004         43.0004
  23615294.2694   -6534026.85843  -5087960.38742  23615296.3394   23615295.0184
        49.0004         41.0004
 03 12 16 18 33 30.0000000  0  8G31G29G28G27G 7G 8G26G11
  23721476.8764   13404348.06043  10437360.20942  23721477.1024   23721479.8314
        48.0004         42.0004
  22400473.2664  -10850386.40643  -8414274.43842  22400474.7784   22400475.3164
        51.0004         45.0004
  20864905.2774   -2805780.55843  -2180083.92842  20864906.1374   20864904.9734
        56.0004         50.0004
  21151736.1964    4563169.85843   3555193.01842  21151737.2994   21151737.7014
        55.0004         48.0004
  21685106.7084  -13474755.83843 -10482669.50642  21685108.5354   21685109.6904
        55.0004         47.0004
  20099393.6824   -2205904.98944  -1715947.29942  20099393.7854   20099393.3114
        57.0004         51.0004
  23101621.6454   -4499081.91043  -3491185.71642  23101624.4174   23101623.5744
        49.0004         43.0004
  23609128.2594   -6566425.71343  -5113206.27742  23609128.8114   23609131.8424
        48.0004         41.0004
 03 12 16 18 34  0.0000000  0  8G31G29G28G27G 7G 8G26G11
  23741297.7364   13508503.98443  10518520.61442  23741299.0184   23741301.0454
        49.0004         42.0004
  22390382.4074  -10903418.84943  -8455598.44142  22390383.2784   22390382.6844
        52.0004         45.0004
  20863213.7014   -2814667.95043  -2187009.20142  20863214.9524   20863213.5144
        56.0004         50.0004
  21160071.3484    4606969.40343   3589322.47342  21160072.4014   21160072.0314
        55.0004         48.0004
  21670316.6684  -13552481.05643 -10543234.57542  21670317.1504   21670317.7344
        55.0004         47.0004
  20099129.0234   -2207296.24744  -1717031.42142  20099128.8554   20099128.7414
        57.0004         50.0004
  23088097.2514   -4570153.98143  -3546566.54942  23088098.6274   23088098.5564
        49.0004         43.0004
  23603037.4724   -6598431.71643  -5138146.03342  23603040.6234   23603042.2234
        49.0004         40.0004
 03 12 16 18 34 30.0000000  0  8G31G29G28G27G 7G 8G26G11
  23761158.3404   13612877.31143  10599850.44642  23761158.4884   23761162.6114
        49.0004         42.0004
  22380383.0434  -10955965.86843  -8496544.19742  22380383.8094   22380383.3414
        51.0004         45.0004
  20861566.3864   -2823327.78843  -2193757.15542  20861567.0184   20861565.8134
        56.0004         50.0004
  21168474.4884    4651129.21543   3623732.64342  21168475.3054   21168476.8964
        54.0004         48.0004
  21655592.3944  -13629857.10743 -10603527.56642  21655592.9614   21655594.4284
        54.0004         47.0004
  20098936.6754   -2208308.79544  -1717820.44742  20098936.5214   20098936.0854
        57.0004         50.0004
  23074655.3924   -4640792.78343  -3601609.79842  23074656.7534   23074657.1714
        49.0004         43.0004
  23597023.7184   -6630041.04943  -5162776.71342  23597026.4184   23597026.3914
        51.0004         41.0004
 03 12 16 18 35  0.0000000  0  8G31G29G28G27G 7G 8G26G11
  23781060.2714   13717463.25043  10681345.95042  23781061.5674   23781062.4754
        49.0004         42.0004
  22370475.2304  -11008027.49843  -8537111.72442  22370476.3254   22370476.1234
        51.0004         45.0004
  20859961.4924   -2831762.64144  -2200329.79442  20859962.4014   20859960.9774
        57.0004         50.0004
  21176946.2654    4695647.67943   3658422.28142  21176947.4254   21176948.1524
        55.0004         48.0004
  21640934.1514  -13706884.37343 -10663548.76542  21640934.8844   21640936.1574
        54.0004         47.0004
  20098815.6774   -2208943.38144  -1718314.95742  20098815.6424   20098815.2064
        57.0004         50.0004
  23061296.0044   -4710997.94243  -3656315.13342  23061298.2554   23061296.5604
        49.0004         43.0004
  23591082.3454   -6661253.67243  -5187098.24642  23591084.0194   23591084.8414
        48.0004         41.0004
 03 12 16 18 35 30.0000000  0  8G31G29G28G27G 7G 8G26G11
  23801002.5144   13822257.65943  10763003.90542  23801003.1084   23801004.9904
        48.0004         42.0004
  22360660.4384  -11059603.51043  -8577300.83742  22360662.5004   22360663.1284
        51.0004         45.0004
  20858398.4784   -2839974.59944  -2206728.75042  20858399.3034   20858397.9334
        57.0004         50.0004
  21185486.7284    4740523.73543   3693390.57542  21185488.1474   21185487.5864
        55.0004         48.0004
  21626342.9824  -13783562.42143 -10723297.84342  21626343.5564   21626344.9714
        54.0004         47.0004
  20098767.2634   -2209200.21744  -1718515.11742  20098766.8204   20098766.7244
        57.0004         51.0004
  23048018.8384   -4780768.76543  -3710682.04142  23048018.7904   23048021.9724
        49.0004         42.0004
  23585219.4274   -6692069.08043  -5211110.26242  23585221.0624   23585219.6784
        50.0004         40.0004
 03 12 16 18 36  0.0000000  0  7G29G28G27G 7G 8G26G11
  22350939.9024  -11110689.03043  -8617107.75542  22350941.3524   22350940.4864
        51.0004         45.0004
  20856878.6564   -2847961.46144  -2212952.30142  20856879.6994   20856878.1214
        57.0004         50.0004
  21194094.1634    4785760.49043   3728639.92442  21194095.7354   21194096.3604
        55.0004         48.0004
  21611818.9724  -13859886.42843 -10782771.04642  21611819.6984   21611820.3914
        55.0004         47.0004
  20098791.0124   -2209075.22444  -1718417.75142  20098790.9284   20098790.3254
        58.0004         50.0004
  23034825.9474   -4850099.90843  -3764706.29942  23034827.3864   23034827.4774
        49.0004         42.0004
  23579432.8024   -6722482.31843  -5234808.95542  23579435.7434   23579433.3244
        50.0004         41.0004
 03 12 16 18 36 30.0000000  0  7G29G28G27G 7G 8G26G11
  22341312.5384  -11161283.45043  -8656531.99842  22341312.7344   22341313.3504
        52.0004         45.0004
  20855401.2164   -2855725.29644  -2219002.06342  20855402.3424   20855400.7864
        57.0004         50.0004
  21202770.6064    4831357.21843   3764169.77842  21202772.0324   21202773.0194
        55.0004         48.0004
  21597361.9484  -13935855.91743 -10841968.00742  21597362.7594   21597364.2824
        54.0004         48.0004
  20098887.6514   -2208568.42344  -1718022.86742  20098887.3694   20098886.5264
        58.0004         51.0004
  23021715.9044   -4918990.29443  -3818387.12542  23021717.0844   23021718.1574
        49.0004         42.0004
  23573721.7924   -6752492.25443  -5258193.39942  23573722.1234   23573722.8974
        49.0004         41.0004
 03 12 16 18 37  0.0000000  0  7G29G28G27G 7G 8G26G11
  22331778.6084  -11211384.48143  -8695571.78342  22331780.8144   22331780.2004
        51.0004         45.0004
  20853966.2394   -2863266.15444  -2224878.08342  20853967.5304   20853965.8184
        57.0004         50.0004
  21211516.2644    4877314.60543   3799980.66542  21211517.4214   21211518.5774
        54.0004         48.0004
  21582973.8274  -14011468.47343 -10900886.83942  21582974.3294   21582975.8874
        55.0004         48.0004
  20099057.0814   -2207677.92444  -1717329.00042  20099057.0764   20099056.4444
        58.0004         51.0004
  23008690.0244   -4987436.97943  -3871722.22242  23008692.3594   23008691.3414
        47.0004         42.0004
  23568087.7244   -6782096.45543  -5281261.65942  23568088.7354   23568088.8774
        48.0004         41.0004
 03 12 16 18 37 30.0000000  0  7G29G28G27G 7G 8G26G11
  22322338.8424  -11260991.61343  -8734226.70142  22322340.2304   22322340.1984
        52.0004         45.0004
  20852573.2954   -2870586.05244  -2230581.93042  20852574.5874   20852573.1284
        57.0004         50.0004
  21220330.2244    4923631.65043   3836071.80342  21220330.4334   21220332.7194
        54.0004         48.0004
  21568652.3084  -14086723.73843 -10959527.27442  21568653.4474   21568654.8604
        54.0004         47.0004
  20099299.1724   -2206404.15044  -1716336.47442  20099299.5454   20099298.7904
        58.0004         51.0004
  22995748.6454   -5055439.11343  -3924710.87642  22995751.0194   22995753.2024
        47.0004         42.0004
  23562532.2894   -6811294.14143  -5304013.17642  23562531.9454   23562533.3734
        48.0004         40.0004
 03 12 16 18 38  0.0000000  0  7G29G28G27G 7G 8G26G11
  22312992.8004  -11310100.22943  -8772493.17142  22312994.8994   22312994.8094
        51.0004         45.0004
  20851222.9054   -2877682.80644  -2236111.89242  20851224.3024   20851222.8214
        57.0004         50.0004
  21229213.4874    4970311.64243   3872445.75942  21229214.3264   21229215.8214
        55.0004         48.0004
  21554401.2724  -14161617.09143 -11017885.69142  21554401.9384   21554403.4184
        54.0004         48.0004
  20099615.5064   -2204742.59844  -1715041.78542  20099615.2724   20099614.9814
        58.0004         51.0004
  22982895.7304   -5122991.44243  -3977349.07542  22982897.0944   22982897.1314
        48.0004         42.0004
  23557052.8124   -6840080.57043  -5326444.25542  23557054.5854   23557058.4304
        47.0004         40.0004
 03 12 16 18 38 30.0000000  0  7G29G28G27G 7G 8G26G11
  22303743.0674  -11358712.48543  -8810372.86142  22303744.2234   22303743.8424
        52.0004         45.0004
  20849914.3994   -2884561.02044  -2241471.56942  20849915.3544   20849913.4884
        57.0004         50.0004
  21238165.2134    5017350.81943   3909099.60242  21238166.0044   21238166.5454
        55.0004         47.0004
  21540218.2624  -14236150.56843 -11075963.69242  21540219.4534   21540220.6414
        55.0004         48.0004
  20100005.0024   -2202696.05144  -1713447.10142  20100004.9394   20100004.1424
        58.0004         51.0004
  22970126.7074   -5190095.52843  -4029637.98242  22970128.2104   22970129.6724
        46.0004         42.0004
  23551653.9304   -6868457.57143  -5348556.31142  23551655.4594   23551657.7734
        48.0004         40.0004
 03 12 16 18 39  0.0000000  0  7G29G28G27G 7G 8G26G11
  22294587.3174  -11406825.41543  -8847863.47042  22294589.0754   22294588.2534
        52.0004         45.0004
  20848646.8624   -2891220.22943  -2246660.59742  20848648.0614   20848646.3744
        56.0004         50.0004
  21247184.3234    5064750.74443   3946034.54142  21247185.8994   21247187.1254
        54.0004         48.0004
  21526104.3124  -14310321.28743 -11133759.03042  21526104.9804   21526106.1364
        55.0004         48.0004
  20100468.0444   -2200262.12844  -1711550.56142  20100468.1164   20100467.5744
        58.0004         51.0004
  22957442.6004   -5256747.83543  -4081574.82842  22957443.7114   22957445.1574
        47.0004         42.0004
  23546332.5544   -6896421.81443  -5370346.74842  23546333.3004   23546335.4234
        48.0004         40.0004
 03 12 16 18 39 30.0000000  0  7G29G28G27G 7G 8G26G11
  22285526.6624  -11454437.90943  -8884964.11842  22285528.0444   22285528.7714
        52.0004         45.0004
  20847420.9804   -2897661.79343  -2251680.03642  20847422.4474   20847420.7654
        56.0004         50.0004
  21256272.9544    5112511.18243   3983250.40942  21256274.4364   21256275.7124
        54.0004         48.0004
  21512059.2244  -14384128.02043 -11191270.74242  21512060.1904   21512060.1324
        55.0004         48.0004
  20101004.9194   -2197440.17544  -1709351.66342  20101004.8184   20101005.0204
        57.0004         51.0004
  22944845.6284   -5322946.99343  -4133158.59542  22944847.8264   22944848.8144
        47.0004         42.0004
  23541089.5804   -6923972.14843  -5391814.63742  23541092.5394   23541092.8914
        48.0004         41.0004
 03 12 16 18 40  0.0000000  0  7G29G28G27G 7G 8G26G11
  22276562.0894  -11501545.86743  -8921671.62842  22276563.4014   22276563.4844
        52.0004         45.0004
  20846237.1454   -2903883.90444  -2256528.47142  20846238.3894   20846236.8884
        57.0004         50.0004
  21265431.0804    5160634.65343   4020749.14642  21265431.7594   21265432.6064
        55.0004         48.0004
  21498083.8714  -14457566.84343 -11248495.77742  21498085.1774   21498085.6384
        56.0004         48.0004
  20101616.6144   -2194226.82544  -1706847.78342  20101616.4934   20101616.2314
        57.0004         51.0004
  22932334.7374   -5388688.15043  -4184385.47342  22932336.2344   22932338.8394
        46.0004         42.0004
  23535926.6314   -6951104.01743  -5412956.45942  23535929.3694   23535929.7884
        49.0004         41.0004
 03 12 16 18 40 30.0000000  0  7G29G28G27G 7G 8G26G11
  22267694.2884  -11548152.99543  -8957988.89542  22267696.0084   22267694.7534
        53.0004         46.0004
  20845093.7664   -2909892.10844  -2261210.23042  20845094.8684   20845093.4344
        57.0004         50.0004
  21274656.8474    5209115.93443   4058526.70742  21274657.6954   21274658.1594
        55.0004         48.0004
  21484178.5424  -14530641.27543 -11305436.89042  21484179.2794   21484179.8694
        56.0004         48.0004
  20102301.8934   -2190626.24744  -1704042.15942  20102302.0524   20102301.4704
        58.0004         51.0004
  22919911.4274   -5453974.37243  -4235257.85242  22919913.8764   22919914.4834
        48.0004         42.0004
  23530843.1894   -6977820.59443  -5433774.67142  23530843.7874   23530843.6884
        49.0004         41.0004
 03 12 16 18 41  0.0000000  0  7G29G28G27G 7G 8G26G11
  22258921.6524  -11594249.62143  -8993908.36342  22258924.0444   22258922.9264
        53.0004         46.0004
  20843992.4584   -2915679.35643  -2265719.81242  20843993.7114   20843992.3114
        56.0004         50.0004
  21283952.4964    5257963.26143   4096589.49642  21283953.4814   21283953.3324
        55.0004         47.0004
  21470343.6254  -14603341.82843 -11362086.65842  21470344.6164   21470345.3854
        55.0004         48.0004
  20103062.4574   -2186629.20444  -1700927.60642  20103062.4474   20103061.8814
        57.0004         51.0004
  22907576.1484   -5518795.58943  -4285767.89342  22907577.3174   22907578.5164
        47.0004         42.0004
  23525839.3894   -7004112.58843  -5454262.03342  23525843.5034   23525844.5844
        48.0004         40.0004
 03 12 16 18 41 30.0000000  0  7G29G28G27G 7G 8G26G11
  22250246.4694  -11639838.81243  -9029432.41942  22250247.8724   22250247.1394
        53.0004         46.0004
  20842932.4954   -2921251.31943  -2270061.64042  20842933.6604   20842931.5214
        56.0004         50.0004
  21293315.9874    5307172.04943   4134933.95042  21293317.1754   21293317.9124
        55.0004         48.0004
  21456580.1354  -14675671.33643 -11418447.30642  21456580.4654   21456581.8054
        55.0004         48.0004
  20103897.7074   -2182239.27044  -1697506.90642  20103897.5004   20103897.2644
        57.0004         50.0004
  22895328.1964   -5583154.46843  -4335917.64242  22895329.9904   22895331.1154
        46.0004         41.0004
  23520916.8764   -7029982.33543  -5474420.41242  23520917.2504   23520920.7444
        50.0004         41.0004
 03 12 16 18 42  0.0000000  0  7G29G28G27G 7G 8G26G11
  22241667.1704  -11684922.03743  -9064562.20942  22241669.1934   22241668.3894
        53.0004         46.0004
  20841911.7854   -2926611.74443  -2274238.63942  20841912.9784   20841911.9124
        56.0004         50.0004
  21302748.5924    5356739.51243   4173557.89442  21302749.5874   21302750.9874
        55.0004         48.0004
  21442886.3964  -14747631.42943 -11474520.09642  21442887.3494   21442888.7534
        55.0004         48.0004
  20104808.0574   -2177458.45644  -1693781.61942  20104807.5054   20104807.2304
        57.0004         50.0004
  22883171.4854   -5647051.82843  -4385707.79342  22883172.5374   22883171.7184
        47.0004         42.0004
  23516075.0944   -7055431.00243  -5494250.61542  23516079.7784   23516078.1914
        51.0004         41.0004
 03 12 16 18 42 30.0000000  0  7G29G28G27G 7G 8G26G11
  22233185.8034  -11729492.48443  -9099292.46042  22233187.0884   22233187.1204
        53.0004         46.0004
  20840933.3714   -2931755.73043  -2278246.98842  20840934.3214   20840933.1754
        56.0004         50.0004
  21312250.4104    5406671.16943   4212465.62242  21312251.8624   21312252.0854
        55.0004         48.0004
  21429264.4054  -14819214.98343 -11530299.48742  21429265.3164   21429266.1834
        55.0004         48.0004
  20105792.8484   -2172280.17044  -1689746.61042  20105793.0074   20105792.2404
        57.0004         50.0004
  22871098.8544   -5710480.01443  -4435132.33742  22871101.0874   22871102.5194
        46.0004         41.0004
  23511314.0194   -7080451.59043  -5513747.26942  23511316.3104   23511316.2034
        48.0004         40.0004
 03 12 16 18 43  0.0000000  0  7G29G28G27G 7G 8G26G11
  22224801.9794  -11773551.70443  -9133624.33142  22224802.9464   22224803.2524
        52.0004         46.0004
  20839995.0674   -2936687.66244  -2282090.09442  20839995.9494   20839994.7334
        57.0004         50.0004
  21321820.6754    5456963.87943   4251654.68942  21321822.1304   21321823.0514
        54.0004         48.0004
  21415713.6464  -14890423.87343 -11585786.93642  21415714.7964   21415715.6924
        56.0004         48.0004
  20106853.2294   -2166706.74444  -1685403.70642  20106853.1074   20106853.3914
        57.0004         50.0004
  22859120.1504   -5773440.28443  -4484192.27242  22859120.0044   22859120.8844
        47.0004         42.0004
  23506633.4934   -7105045.76343  -5532911.60142  23506634.9924   23506634.2814
        49.0004         40.0004
 03 12 16 18 43 30.0000000  0  7G29G28G27G 7G 8G26G11
  22216514.5294  -11817096.76843  -9167555.55242  22216517.2004   22216516.3514
        52.0004         46.0004
  20839096.9774   -2941406.75844  -2285767.35342  20839098.0664   20839096.6814
        57.0004         50.0004
  21331460.3844    5507619.10243   4291126.23742  21331461.7824   21331462.6024
        54.0004         47.0004
  21402235.0494  -14961254.86443 -11640979.93142  21402236.1054   21402236.8594
        56.0004         48.0004
  20107989.9314   -2160735.67844  -1680750.95842  20107989.8334   20107989.8104
        57.0004         50.0004
  22847226.3464   -5835929.20743  -4532884.91942  22847228.1534   22847229.3864
        47.0004         41.0004
  23502035.9984   -7129209.81243  -5551740.80242  23502038.0284   23502038.2664
        48.0004         40.0004
 03 12 16 18 44  0.0000000  0  7G29G28G27G 7G 8G26G11
  22208327.4224  -11860125.36943  -9201084.35142  22208328.4404   22208328.3394
        52.0004         46.0004
  20838239.5674   -2945912.30144  -2289278.20542  20838240.8434   20838239.4434
        57.0004         50.0004
  21341168.5664    5558637.83543   4330881.02642  21341169.5454   21341170.5244
        54.0004         47.0004
  21388829.0214  -15031705.63443 -11695876.65142  21388830.3444   21388830.5354
        56.0004         48.0004
  20109202.3084   -2154364.78044  -1675786.64742  20109202.0044   20109202.1864
        57.0004         50.0004
  22835427.0214   -5897943.67743  -4581207.86242  22835429.0024   22835427.3934
        48.0004         42.0004
  23497519.1604   -7152940.93643  -5570232.61442  23497521.8564   23497520.4344
        47.0004         39.0004
 03 12 16 18 44 30.0000000  0  7G29G28G27G 7G 8G26G11
  22200237.4434  -11902637.37343  -9234210.61542  22200239.9774   22200238.7734
        52.0004         46.0004
  20837422.6374   -2950206.91744  -2292624.69142  20837423.8214   20837422.1594
        57.0004         50.0004
  21350945.7654    5610018.55543   4370917.89542  21350947.1654   21350948.3274
        54.0004         47.0004
  21375494.6964  -15101776.06443 -11750477.00042  21375496.1234   21375496.3744
        56.0004         48.0004
  20110490.6364   -2147594.86144  -1670511.40942  20110490.5254   20110490.2844
        57.0004         50.0004
  22823716.5134   -5959483.14243  -4629160.67942  22823719.0314   22823718.7104
        48.0004         42.0004
  23493085.1144   -7176239.25643  -5588387.16942  23493087.5704   23493087.8514
        48.0004         40.0004
 03 12 16 18 45  0.0000000  0  7G29G28G27G 7G 8G26G11
  22192245.6174  -11944628.55343  -9266931.03842  22192248.1854   22192248.5124
        52.0004         46.0004
  20836645.7344   -2954288.15544  -2295804.91142  20836646.9464   20836645.5714
        57.0004         50.0004
  21360793.1904    5661764.40043   4411239.26542  21360794.2004   21360795.0484
        54.0004         47.0004
  21362233.6364  -15171461.67543 -11804777.48542  21362235.1234   21362236.0834
        56.0004         48.0004
  20111855.5854   -2140421.55144  -1664921.84342  20111855.5524   20111855.3504
        57.0004         51.0004
  22812096.9124   -6020542.52043  -4676739.42342  22812099.1254   22812099.4664
        48.0004         42.0004
  23488735.6304   -7199099.84643  -5606200.62542  23488736.4754   23488738.4044
        46.0004         40.0004
 03 12 16 18 45 30.0000000  0  7G29G28G27G 7G 8G26G11
  22184354.3364  -11986102.86743  -9299248.69942  22184355.3674   22184356.2874
        52.0004         46.0004
  20835908.6444   -2958162.60344  -2298823.99042  20835909.8444   20835908.5674
        57.0004         50.0004
  21370709.0464    5713870.03143   4451840.97342  21370710.7054   21370710.7614
        55.0004         47.0004
  21349046.0424  -15240766.47543 -11858781.23142  21349047.5164   21349047.8604
        56.0004         49.0004
  20113296.3134   -2132849.36944  -1659021.46542  20113296.1104   20113296.3324
        57.0004         50.0004
  22800569.9144   -6081125.39343  -4723946.82542  22800571.3914   22800570.2614
        49.0004         42.0004
  23484468.8244   -7221526.54943  -5623675.99942  23484468.7814   23484471.0734
        46.0004         40.0004
 03 12 16 18 46  0.0000000  0  7G29G28G27G 7G 8G26G11
  22176560.6924  -12027057.20543  -9331161.19042  22176562.0704   22176562.6424
        52.0004         46.0004
  20835210.5954   -2961829.15844  -2301681.06042  20835212.0034   20835210.2854
        57.0004         50.0004
  21380693.1854    5766336.99743   4492724.24642  21380694.0394   21380694.6274
        54.0004         47.0004
  21335930.5114  -15309687.36443 -11912485.82442  21335931.7444   21335933.2144
        56.0004         49.0004
  20114813.9024   -2124875.79044  -1652808.31842  20114813.7654   20114813.5364
        57.0004         50.0004
  22789130.2564   -6141228.13343  -4770780.12542  22789132.3914   22789134.1574
        48.0004         43.0004
  23480282.0074   -7243516.00043  -5640810.62042  23480284.7554   23480287.1684
        46.0004         41.0004
 03 12 16 18 46 30.0000000  0  7G29G28G27G 7G 8G26G11
  22168867.0354  -12067484.86843  -9362663.28142  22168869.5304   22168869.9544
        51.0004         46.0004
  20834553.3094   -2965282.94644  -2304372.34742  20834554.5304   20834553.5464
        57.0004         50.0004
  21390746.6274    5819170.74343   4533893.31642  21390748.1584   21390747.9964
        54.0004         47.0004
  21322890.5824  -15378217.31243 -11965885.79842  21322891.5654   21322891.9044
        56.0004         49.0004
  20116409.1194   -2116494.37844  -1646277.37542  20116408.9744   20116408.5734
        57.0004         51.0004
  22777785.9754   -6200843.24843  -4817233.42942  22777788.3264   22777789.3874
        48.0004         43.0004
  23476182.4364   -7265061.12543  -5657599.00542  23476184.1174   23476186.1714
        48.0004         41.0004
 03 12 16 18 47  0.0000000  0  7G29G28G27G 7G 8G26G11
  22161274.2724  -12107391.84543  -9393759.64242  22161274.7444   22161275.4714
        52.0004         46.0004
  20833935.2264   -2968532.38944  -2306904.39942  20833936.6004   20833935.4464
        57.0004         50.0004
  21400868.8874    5872363.81343   4575342.39842  21400870.6604   21400870.4554
        54.0004         47.0004
  21309922.0294  -15446362.43343 -12018985.90342  21309923.0964   21309924.2764
        56.0004         49.0004
  20118079.9884   -2107711.59644  -1639433.67742  20118079.9734   20118079.9034
        57.0004         51.0004
  22766534.9534   -6259976.15643  -4863311.01142  22766535.8904   22766537.8114
        49.0004         43.0004
  23472166.1134   -7286167.88843  -5674045.78142  23472168.7864   23472170.6244
        48.0004         42.0004
 03 12 16 18 47 30.0000000  0  7G29G28G27G 7G 8G26G11
  22153780.0714  -12146770.77543  -9424444.55142  22153781.8794   22153780.6724
        52.0004         45.0004
  20833356.9234   -2971571.90044  -2309272.87042  20833357.9974   20833356.8774
        57.0004         50.0004
  21411060.9634    5925922.19043   4617076.12842  21411061.7034   21411062.8804
        54.0004         47.0004
  21297028.3644  -15514115.19643 -12071780.27542  21297030.2964   21297031.7074
        55.0004         49.0004
  20119829.2314   -2098520.15944  -1632271.54742  20119829.2144   20119828.9924
        57.0004         51.0004
  22755373.8044   -6318619.06443  -4909006.76642  22755376.0754   22755377.1584
        48.0004         43.0004
  23468234.7764   -7306828.55243  -5690144.95242  23468237.3204   23468238.5144
        48.0004         41.0004
 03 12 16 18 48  0.0000000  0  7G29G28G27G 7G 8G26G11
  22146386.7684  -12185626.32743  -9454721.63442  22146388.4604   22146388.0714
        53.0004         46.0004
  20832817.4434   -2974408.52744  -2311483.24542  20832818.3624   20832816.9894
        57.0004         50.0004
  21421320.8554    5979839.83343   4659089.80742  21421322.0874   21421323.4784
        54.0004         47.0004
  21284210.0534  -15581480.19843 -12124272.49542  21284210.9534   21284212.3634
        56.0004         48.0004
  20121654.6604   -2088925.74944  -1624795.40842  20121654.6304   20121654.7714
        57.0004         50.0004
  22744308.9104   -6376775.91443  -4954323.78942  22744310.6774   22744311.9114
        49.0004         43.0004
  23464387.6224   -7327047.45543  -5705899.87142  23464388.9004   23464389.5494
        50.0004         42.0004
 03 12 16 18 48 30.0000000  0  7G29G28G27G 7G 8G26G11
  22139093.4444  -12223952.62143  -9484586.30242  22139095.0824   22139094.6084
        53.0004         46.0004
  20832316.9434   -2977037.86544  -2313532.08442  20832318.2184   20832316.4014
        57.0004         50.0004
  21431650.6724    6034121.52143   4701387.16342  21431652.1704   21431653.1664
        54.0004         47.0004
  21271466.2484  -15648451.32643 -12176457.79342  21271466.7334   21271468.4714
        55.0004         49.0004
  20123558.6664   -2078922.09644  -1617000.37542  20123558.6554   20123558.4494
        57.0004         51.0004
  22733335.4844   -6434440.14243  -4999256.94042  22733337.1974   22733337.0344
        50.0004         43.0004
  23460625.9514   -7346818.16543  -5721305.55942  23460627.6084   23460628.2184
        51.0004         42.0004
 03 12 16 18 49  0.0000000  0  7G29G28G27G 7G 8G26G11
  22131902.9484  -12261741.86943  -9514032.50642  22131904.4854   22131903.8214
        53.0004         46.0004
  20831856.7684   -2979454.57143  -2315415.24142  20831858.1634   20831856.5514
        56.0004         50.0004
  21442050.3414    6088773.26543   4743972.87242  21442051.4234   21442052.6834
        53.0004         47.0004
  21258798.1464  -15715021.00343 -12228330.26542  21258799.1664   21258800.2124
        56.0004         49.0004
  20125541.7834   -2068502.23044  -1608881.02342  20125541.6714   20125541.0714
        57.0004         50.0004
  22722457.4764   -6491603.65043  -5043799.93342  22722459.3314   22722458.6544
        50.0004         43.0004
  23456949.9274   -7366133.08743  -5736356.10742  23456953.0324   23456953.6934
        50.0004         42.0004
 03 12 16 18 49 30.0000000  0  7G29G28G27G 7G 8G26G11
  22124810.9654  -12299007.09543  -9543070.38442  22124812.6694   22124812.0654
        53.0004         46.0004
  20831434.0214   -2981673.90943  -2317144.60642  20831435.2284   20831434.5344
        56.0004         50.0004
  21452517.8944    6143780.80543   4786835.81442  21452519.3244   21452520.2994
        53.0004         47.0004
  21246204.2974  -15781202.05943 -12279899.90542  21246205.7274   21246206.2594
        56.0004         49.0004
  20127600.6234   -2057679.67244  -1600447.88742  20127600.9264   20127600.6594
        57.0004         50.0004
  22711672.7834   -6548278.66843  -5087962.30142  22711675.1234   22711674.3524
        50.0004         44.0004
  23453358.9734   -7385004.71843  -5751061.21642  23453359.8914   23453362.3014
        50.0004         42.0004
 03 12 16 18 50  0.0000000  0  7G29G28G27G 7G 8G26G11
  22117820.7154  -12335744.45243  -9571696.92742  22117822.1014   22117821.3964
        53.0004         46.0004
  20831050.3314   -2983693.60744  -2318718.41142  20831051.2974   20831050.1584
        57.0004         50.0004
  21463054.1454    6199146.89543   4829978.14142  21463054.7874   21463056.5174
        53.0004         47.0004
  21233685.5644  -15846990.24043 -12331163.41342  21233686.6954   21233687.5384
        56.0004         49.0004
  20129738.0824   -2046450.44344  -1591697.86542  20129737.4714   20129737.6554
        57.0004         50.0004
  22700980.7114   -6604460.45043  -5131740.30642  22700982.8934   22700985.4894
        50.0004         43.0004
  23449852.5654   -7403428.93443  -5765417.70042  23449853.7364   23449855.1564
        49.0004         41.0004
 03 12 16 18 50 30.0000000  0  7G29G28G27G 7G 8G26G11
  22110931.5614  -12371944.99543  -9599905.17842  22110932.8014   22110932.6664
        53.0004         46.0004
  20830705.1534   -2985506.54044  -2320131.09042  20830706.5264   20830705.0124
        57.0004         50.0004
  21473659.7514    6254879.25643   4873405.88142  21473661.3054   21473661.4264
        53.0004         46.0004
  21221242.9464  -15912376.56144 -12382113.78042  21221244.6514   21221244.6204
        57.0004         49.0004
  20131953.8014   -2034806.06144  -1582624.34542  20131953.6464   20131953.5404
        57.0004         50.0004
  22690386.5604   -6660139.59143  -5175126.66642  22690388.0174   22690388.0484
        50.0004         43.0004
  23446433.9264   -7421396.30543  -5779418.18942  23446434.5134   23446436.6534
        49.0004         40.0004
 03 12 16 18 51  0.0000000  0  7G29G28G27G 7G 8G26G11
  22104144.5864  -12407612.32343  -9627697.94342  22104145.6124   22104144.8834
        53.0004         46.0004
  20830398.4484   -2987118.36944  -2321387.06842  20830399.6604   20830397.9434
        57.0004         50.0004
  21484333.4734    6310972.51943   4917114.84642  21484334.0384   21484335.8664
        53.0004         46.0004
  21208876.0844  -15977364.52044 -12432753.74442  21208877.2904   21208878.1294
        57.0004         49.0004
  20134247.8734   -2022750.45844  -1573230.39842  20134247.7934   20134247.4424
        57.0004         50.0004
  22679885.4164   -6715319.23043  -5218123.78742  22679888.0894   22679887.5544
        50.0004         43.0004
  23443101.4124   -7438910.14343  -5793065.28242  23443101.6674   23443106.1344
        48.0004         40.0004
 03 12 16 18 51 30.0000000  0  7G29G28G27G 7G 8G26G11
  22097459.4324  -12442741.86243  -9655071.64742  22097460.5934   22097460.2234
        53.0004         46.0004
  20830130.4824   -2988526.52144  -2322484.33842  20830131.7234   20830130.4144
        57.0004         50.0004
  21495077.1564    6367430.14843   4961107.72942  21495077.8014   21495079.0974
        53.0004         46.0004
  21196585.8794  -16041949.64243 -12483079.79942  21196586.5624   21196587.6564
        56.0004         49.0004
  20136621.0034   -2010279.32744  -1563512.65742  20136620.8274   20136620.5614
        57.0004         50.0004
  22669480.7474   -6769994.13443  -5260727.61742  22669483.3774   22669483.5674
        49.0004         44.0004
  23439855.3134   -7455965.95743  -5806355.48942  23439856.0504   23439857.0474
        47.0004         40.0004
 03 12 16 18 52  0.0000000  0  7G29G28G27G 7G 8G26G11
  22090875.9724  -12477336.52943  -9682028.56242  22090877.8614   22090877.4564
        53.0004         46.0004
  20829900.2184   -2989735.66044  -2323426.53542  20829901.4584   20829900.2224
        57.0004         50.0004
  21505889.5694    6424247.88243   5005381.22042  21505890.8614   21505891.5254
        53.0004         46.0004
  21184371.6514  -16106134.37143 -12533093.85442  21184372.9944   21184373.9284
        56.0004         49.0004
  20139073.0894   -1997395.89744  -1553473.65842  20139072.7504   20139072.8244
        57.0004         50.0004
  22659172.7594   -6824166.40643  -5302939.77942  22659173.7554   22659174.2504
        50.0004         43.0004
  23436695.4924   -7472566.03443  -5819290.57742  23436696.3454   23436699.9144
        47.0004         39.0004
 03 12 16 18 52 30.0000000  0  7G29G28G27G 7G 8G26G11
  22084394.8824  -12511393.70743  -9708566.66042  22084396.5544   22084396.7764
        52.0004         46.0004
  20829708.6164   -2990744.87444  -2324212.95142  20829709.6914   20829708.1374
        57.0004         50.0004
  21516770.9064    6481427.23743   5049936.48842  21516772.1184   21516773.0064
        54.0004         46.0004
  21172234.9694  -16169915.99243 -12582793.81442  21172236.0164   21172235.9444
        56.0004         49.0004
  20141603.2264   -1984097.70444  -1543111.46242  20141603.3894   20141603.0484
        57.0004         50.0004
  22648959.9774   -6877832.83743  -5344757.77342  22648961.9564   22648962.2594
        49.0004         43.0004
  23433624.9774   -7488707.19043  -5831868.04342  23433628.3684   23433626.7564
        47.0004         39.0004
 03 12 16 18 53  0.0000000  0  7G29G28G27G 7G 8G26G11
  22078017.2984  -12544910.19243  -9734683.44142  22078018.6904   22078018.9364
        52.0004         46.0004
  20829554.8844   -2991552.72344  -2324842.46542  20829556.1834   20829554.6644
        57.0004         50.0004
  21527720.3844    6538970.01543   5094774.94342  21527721.5614   21527721.9604
        54.0004         46.0004
  21160174.0494  -16233291.10243 -12632177.00642  21160175.6714   21160176.3304
        56.0004         49.0004
  20144213.7844   -1970381.77044  -1532423.75542  20144213.4604   20144212.8424
        58.0004         51.0004
  22638844.8314   -6930989.55943  -5386178.61942  22638845.8534   22638847.6424
        50.0004         43.0004
  23430640.4034   -7504386.14043  -5844085.37942  23430643.3404   23430642.2954
        47.0004         39.0004
 03 12 16 18 53 30.0000000  0  7G29G28G27G 7G 8G26G11
  22071741.5774  -12577887.88843  -9760380.37442  22071743.1534   22071743.2534
        52.0004         46.0004
  20829438.6234   -2992163.31144  -2325318.28242  20829439.8174   20829438.3684
        57.0004         50.0004
  21538739.1164    6596872.95543   5139894.03442  21538740.2354   21538741.7354
        54.0004         46.0004
  21148191.6254  -16296261.53643 -12681244.87442  21148192.3014   21148193.6334
        56.0004         49.0004
  20146902.4724   -1956250.24844  -1521412.21142  20146902.5804   20146902.0084
        57.0004         51.0004
  22628826.1344   -6983637.91943  -5427203.30942  22628828.1434   22628827.8394
        50.0004         43.0004
  23427745.6864   -7519604.58643  -5855943.86942  23427746.5614   23427749.6834
        48.0004         39.0004
 03 12 16 18 54  0.0000000  0  7G29G28G27G 7G 8G26G11
  22065568.5324  -12610325.57043  -9785656.52142  22065570.7414   22065571.8334
        52.0004         46.0004
  20829359.5764   -2992576.73744  -2325640.46642  20829360.9814   20829359.4984
        57.0004         50.0004
  21549826.3774    6655136.14343   5185293.83042  21549827.6294   21549828.6984
        53.0004         46.0004
  21136286.4034  -16358825.98643 -12729996.38442  21136286.8624   21136288.6094
        56.0004         49.0004
  20149671.2924   -1941702.45744  -1510076.30642  20149670.8284   20149670.7864
        58.0004         51.0004
  22618904.3074   -7035775.96343  -5467830.36342  22618905.5044   22618907.4794
        50.0004         43.0004
  23424937.2354   -7534360.77943  -5867442.14142  23424939.3914   23424939.3704
        47.0004         40.0004
 03 12 16 18 54 30.0000000  0  7G29G28G27G 7G 8G26G11
  22059499.1864  -12642220.10243  -9810509.43542  22059501.5674   22059501.9624
        52.0004         46.0004
  20829318.8584   -2992791.97644  -2325808.21842  20829319.9584   20829318.5034
        57.0004         50.0004
  21560982.4104    6713761.17643   5230975.58742  21560983.2644   21560983.6944
        54.0004         46.0004
  21124458.8624  -16420981.00643 -12778428.85242  21124459.6974   21124460.4504
        56.0004         49.0004
  20152519.6254   -1926735.44544  -1498413.72942  20152519.2024   20152519.2944
        58.0004         51.0004
  22609080.2604   -7087400.06143  -5508056.94942  22609082.1474   22609082.3264
        50.0004         43.0004
  23422217.3704   -7548651.74243  -5878577.91242  23422218.7984   23422219.0904
        48.0004         40.0004
 03 12 16 18 55  0.0000000  0  7G29G28G27G 7G 8G26G11
  22053534.3254  -12673570.32743  -9834938.22442  22053535.2774   22053535.7384
        52.0004         46.0004
  20829315.7944   -2992809.49644  -2325821.90342  20829317.0204   20829315.2964
        57.0004         50.0004
  21572207.2654    6772748.17043   5276939.39042  21572208.1644   21572208.7734
        54.0004         46.0004
  21112709.0004  -16482725.51744 -12826541.45742  21112710.0474   21112710.9064
        57.0004         49.0004
  20155447.1634   -1911348.18644  -1486423.69142  20155447.0274   20155447.4894
        57.0004         51.0004
  22599354.5904   -7138508.35043  -5547881.58042  22599355.7764   22599356.8884
        49.0004         43.0004
  23419586.6144   -7562475.48843  -5889349.60842  23419586.7874   23419590.0734
        48.0004         40.0004
 03 12 16 18 55 30.0000000  0  7G29G28G27G 7G 8G26G11
  22047671.7824  -12704378.38843  -9858944.53142  22047673.4264   22047673.3794
        53.0004         46.0004
  20829349.1594   -2992632.87644  -2325684.31442  20829350.3564   20829349.4404
        57.0004         50.0004
  21583500.9394    6832093.83143   5323182.68442  21583501.7054   21583502.5514
        53.0004         46.0004
  21101037.0714  -16544061.07344 -12874335.39442  21101038.0714   21101039.0474
        57.0004         49.0004
  20158454.8094   -1895542.88444  -1474107.90542  20158454.6134   20158455.0734
        57.0004         50.0004
  22589726.4684   -7189102.10043  -5587305.29542  22589728.0044   22589729.5994
        49.0004         43.0004
  23417044.3804   -7575834.04443  -5899758.82142  23417046.9214   23417046.9404
        48.0004         41.0004
 03 12 16 18 56  0.0000000  0  7G29G28G27G 7G 8G26G11
  22041913.7064  -12734639.19543  -9882524.41142  22041915.4534   22041914.3674
        53.0004         46.0004
  20829420.6914   -2992258.68344  -2325392.76842  20829421.8624   20829420.2924
        57.0004         50.0004
  21594862.3434    6891801.97343   5369708.42942  21594863.7634   21594864.8924
        53.0004         45.0004
  21089444.6374  -16604982.43644 -12921806.57842  21089445.5204   21089446.2634
        57.0004         50.0004
  20161543.2014   -1879314.52144  -1461462.45642  20161543.2074   20161542.9304
        57.0004         51.0004
  22580198.9294   -7239175.59243  -5626323.61442  22580199.4344   22580201.8034
        50.0004         43.0004
  23414592.5334   -7588721.76443  -5909801.16142  23414596.0574   23414594.1314
        49.0004         41.0004
 03 12 16 18 56 30.0000000  0  7G29G28G27G 7G 8G26G11
  22036258.8164  -12764354.04943  -9905678.87142  22036260.3424   22036259.8234
        53.0004         46.0004
  20829528.6414   -2991689.82743  -2324949.54842  20829529.9494   20829528.8964
        56.0004         50.0004
  21606292.7834    6951869.93243   5416514.56042  21606294.3214   21606295.0764
        52.0004         45.0004
  21077930.0504  -16665490.75344 -12968955.91542  21077931.2524   21077931.8354
        57.0004         50.0004
  20164711.0654   -1862664.84444  -1448488.70742  20164711.2724   20164711.3524
        57.0004         50.0004
  22570770.5464   -7288729.54143  -5664937.08942  22570770.7724   22570771.6564
        50.0004         43.0004
  23412228.9474   -7601139.91943  -5919477.59642  23412229.2264   23412232.9174
        49.0004         41.0004
 03 12 16 18 57  0.0000000  0  7G29G28G27G 7G 8G26G11
  22030707.9404  -12793523.52543  -9928408.37142  22030709.0014   22030708.7404
        53.0004         46.0004
  20829673.3334   -2990928.79644  -2324356.57542  20829674.5794   20829673.4604
        57.0004         50.0004
  21617791.8264    7012295.97543   5463599.71342  21617792.7174   21617794.3544
        52.0004         45.0004
  21066493.8274  -16725586.59544 -13015783.83042  21066495.5954   21066496.0054
        57.0004         50.0004
  20167959.8544   -1845594.70844  -1435187.33342  20167959.6984   20167959.9274
        57.0004         50.0004
  22561437.7994   -7337763.88243  -5703145.69342  22561440.0334   22561441.1054
        50.0004         44.0004
  23409954.9064   -7613088.64443  -5928788.23742  23409957.9894   23409958.0704
        48.0004         41.0004
 03 12 16 18 57 30.0000000  0  7G29G28G27G 7G 8G26G11
  22025262.1844  -12822143.10843  -9950709.37742  22025263.6304   22025263.9474
        54.0004         46.0004
  20829856.0274   -2989972.60144  -2323611.52542  20829857.0694   20829855.6044
        57.0004         50.0004
  21629359.0294    7073083.36843   5510966.44742  21629361.1674   21629362.1464
        53.0004         45.0004
  21055137.4104  -16785265.10844 -13062286.56842  21055138.2814   21055139.3104
        57.0004         50.0004
  20171289.0804   -1828099.61944  -1421554.82342  20171288.8764   20171288.9134
        57.0004         50.0004
  22552207.9764   -7386273.38143  -5740945.31742  22552210.2744   22552210.1574
        51.0004         44.0004
  23407771.8654   -7624563.04643  -5937729.26642  23407773.3994   23407775.2414
        49.0004         42.0004
 03 12 16 18 58  0.0000000  0  7G29G28G27G 7G 8G26G11
  22019920.1504  -12850215.37743  -9972583.90542  22019921.6204   22019921.2984
        54.0004         46.0004
  20830073.9614   -2988825.28744  -2322717.54842  20830075.3914   20830074.1304
        57.0004         50.0004
  21640995.3684    7134228.43843   5558611.88242  21640996.6094   21640998.2304
        53.0004         46.0004
  21043859.5204  -16844528.71743 -13108465.99142  21043860.7574   21043861.6814
        56.0004         49.0004
  20174698.9874   -1810182.19444  -1407593.22142  20174698.6554   20174698.4954
        57.0004         50.0004
  22543076.3374   -7434260.05143  -5778337.54042  22543077.6284   22543078.1984
        50.0004         44.0004
  23405677.8334   -7635565.40643  -5946302.46842  23405679.0464   23405680.8254
        48.0004         41.0004
 03 12 16 18 58 30.0000000  0  7G29G28G27G 7G 8G26G11
  22014682.9294  -12877736.85743  -9994029.24642  22014684.6494   22014684.6394
        53.0004         46.0004
  20830329.2354   -2987484.87844  -2321673.10342  20830330.2164   20830329.1494
        57.0004         50.0004
  21652699.9994    7195733.48443   5606537.80842  21652701.2824   21652701.6194
        54.0004         46.0004
  21032662.7974  -16903373.42144 -13154319.00642  21032662.9864   21032663.8824
        57.0004         49.0004
  20178189.2524   -1791839.30244  -1393300.08442  20178189.1874   20178189.3524
        57.0004         50.0004
  22534044.3374   -7481719.44543  -5815318.90242  22534046.5724   22534046.9604
        50.0004         44.0004
  23403674.5514   -7646091.77743  -5954504.76742  23403675.2564   23403678.3084
        48.0004         41.0004
 03 12 16 18 59  0.0000000  0  7G29G28G27G 7G 8G26G11
  22009550.8424  -12904706.19643 -10015044.33942  22009551.9484   22009552.7294
        53.0004         46.0004
  20830620.9814   -2985951.55644  -2320478.33242  20830622.0104   20830620.7034
        57.0004         50.0004
  21664472.0054    7257598.48543   5654744.23342  21664473.1624   21664475.0094
        53.0004         46.0004
  21021544.7874  -16961797.79944 -13199844.49042  21021545.6524   21021546.0934
        57.0004         49.0004
  20181761.2264   -1773069.42644  -1378674.23442  20181761.1894   20181760.9484
        57.0004         50.0004
  22525114.3214   -7528649.64443  -5851887.91142  22525115.1984   22525115.7134
        50.0004         43.0004
  23401760.4234   -7656140.60143  -5962334.95042  23401762.6754   23401765.5314
        48.0004         41.0004
 03 12 16 18 59 30.0000000  0  7G29G28G27G 7G 8G26G11
  22004523.9784  -12931124.20643 -10035629.84142  22004524.7774   22004525.6954
        53.0004         46.0004
  20830949.1784   -2984227.70244  -2319135.09042  20830950.3184   20830948.4314
        57.0004         50.0004
  21676312.2274    7319821.73943   5703229.81242  21676313.3044   21676314.6654
        53.0004         46.0004
  21010506.6664  -17019802.25844 -13245042.75742  21010507.5894   21010508.2124
        57.0004         49.0004
  20185413.8554   -1753873.71444  -1363716.56842  20185413.9224   20185413.8024
        57.0004         50.0004
  22516283.2404   -7575050.93643  -5888044.76642  22516285.9294   22516285.8974
        50.0004         43.0004
  23399941.1164   -7665712.23043  -5969793.30842  23399940.7004   23399944.5844
        48.0004         41.0004
 03 12 16 19  0  0.0000000  0  7G29G28G27G 7G 8G26G11
  21999600.9164  -12956990.64343 -10055785.52542  21999602.1374   21999603.3434
        53.0004         46.0004
  20831312.7114   -2982314.38544  -2317644.21642  20831314.1484   20831313.0224
        57.0004         50.0004
  21688220.8994    7382402.05943   5751993.63242  21688221.7684   21688224.6224
        52.0004         46.0004
  20999548.6204  -17077386.59144 -13289913.65142  20999549.6024   20999550.8284
        57.0004         50.0004
  20189147.3814   -1734252.17844  -1348427.08642  20189147.5884   20189147.3294
        57.0004         50.0004
  22507555.6104   -7620922.25043  -5923788.66742  22507556.7124   22507557.4714
        50.0004         43.0004
  23398210.2334   -7674806.18643  -5976879.46042  23398210.5654   23398211.5104
        47.0004         41.0004
 03 12 16 19  0 30.0000000  0  7G29G28G27G 7G 8G26G11
  21994784.2294  -12982302.39843 -10075508.99642  21994785.9414   21994786.3124
        53.0004         46.0004
  20831713.7584   -2980209.84744  -2316004.34042  20831714.8784   20831713.7884
        57.0004         50.0004
  21700197.8294    7445341.66143   5801037.39342  21700198.6134   21700200.8844
        52.0004         46.0004
  20988671.3284  -17134547.03744 -13334454.23542  20988672.4144   20988673.6074
        57.0004         50.0004
  20192962.9654   -1714201.40644  -1332803.14042  20192963.2664   20192962.9524
        57.0004         50.0004
  22498926.9834   -7666259.62943  -5959116.49342  22498928.6464   22498929.8914
        50.0004         43.0004
  23396571.3804   -7683418.76343  -5983590.48442  23396572.9884   23396574.5914
        48.0004         41.0004
 03 12 16 19  1  0.0000000  0  7G29G28G27G 7G 8G26G11
  21990073.3124  -13007061.30043 -10094801.67842  21990075.1804   21990074.2634
        53.0004         46.0004
  20832149.6854   -2977917.69943  -2314218.26942  20832150.7854   20832149.4714
        56.0004         50.0004
  21712242.5984    7508637.37143   5850358.66242  21712243.8794   21712245.5334
        52.0004         45.0004
  20977874.4004  -17191285.67244 -13378666.14842  20977875.2784   20977876.7024
        57.0004         50.0004
  20196859.7184   -1693723.72844  -1316846.54042  20196859.7324   20196859.9534
        57.0004         50.0004
  22490401.5384   -7711064.58543  -5994029.45642  22490403.0094   22490405.1174
        50.0004         43.0004
  23395023.5814   -7691551.82843  -5989927.88442  23395023.5994   23395027.2754
        48.0004         41.0004
 03 12 16 19  1 30.0000000  0  7G29G28G27G 7G 8G26G11
  21985467.5914  -13031264.76343 -10113661.55342  21985469.0464   21985469.6244
        53.0004         46.0004
  20832622.0014   -2975436.38944  -2312284.79942  20832623.0224   20832621.8984
        57.0004         50.0004
  21724355.4624    7572290.77043   5899958.66342  21724356.5564   21724359.0494
        52.0004         45.0004
  20967158.0444  -17247599.28444 -13422546.87942  20967158.8354   20967159.8214
        57.0004         49.0004
  20200838.6194   -1672816.44744  -1300555.18042  20200838.4464   20200838.2734
        57.0004         50.0004
  22481978.1584   -7755333.40643  -6028524.65142  22481979.3814   22481979.6914
        50.0004         43.0004
  23393567.3024   -7699202.16143  -5995889.11942  23393569.4484   23393568.5244
        49.0004         41.0004
 03 12 16 19  2  0.0000000  0  7G29G28G27G 7G 8G26G11
  21980968.0534  -13054911.99543 -10132087.97842  21980969.2664   21980968.9664
        54.0004         47.0004
  20833129.9964   -2972766.54544  -2310204.40742  20833131.0874   20833130.0524
        57.0004         50.0004
  21736536.3284    7636301.40543   5949836.99842  21736536.9824   21736540.5174
        51.0004         45.0004
  20956523.0954  -17303486.83143 -13466095.60542  20956523.9184   20956525.4004
        56.0004         49.0004
  20204899.0974   -1651478.51444  -1283928.25042  20204898.9614   20204898.9974
        57.0004         50.0004
  22473654.7904   -7799064.81243  -6062601.07742  22473656.8324   22473657.6154
        50.0004         43.0004
  23392203.8514   -7706368.88143  -6001473.51142  23392206.9974   23392205.8204
        49.0004         41.0004
 03 12 16 19  2 30.0000000  0  7G29G28G27G 7G 8G26G11
  21976574.1694  -13078003.23843 -10150081.18042  21976575.0894   21976574.9504
        54.0004         46.0004
  20833673.7404   -2969909.69344  -2307978.30342  20833674.9424   20833673.9294
        57.0004         50.0004
  21748784.9134    7700667.76243   5999992.54342  21748785.6824   21748788.0954
        52.0004         45.0004
  20945969.1274  -17358948.43644 -13509312.42642  20945970.0394   20945971.0144
        57.0004         50.0004
  20209041.5504   -1629710.71244  -1266966.35342  20209041.0404   20209041.4564
        57.0004         50.0004
  22465435.7884   -7842258.49243  -6096258.49442  22465437.1844   22465437.6114
        50.0004         43.0004
  23390932.4104   -7713051.72343  -6006680.86742  23390934.5974   23390932.4094
        50.0004         41.0004
 03 12 16 19  3  0.0000000  0  7G29G28G27G 7G 8G26G11
  21972285.2334  -13100537.00043 -10167639.97642  21972287.3184   21972287.3394
        54.0004         47.0004
  20834252.7934   -2966865.71344  -2305606.38642  20834254.0374   20834252.7744
        57.0004         50.0004
  21761101.4444    7765390.61943   6050425.86542  21761102.7934   21761104.9294
        52.0004         45.0004
  20935496.9964  -17413982.01444 -13552195.71742  20935497.6344   20935498.3184
        57.0004         50.0004
  20213265.8034   -1607511.40244  -1249668.21142  20213265.9704   20213265.7144
        58.0004         50.0004
  22457319.5174   -7884911.93643  -6129494.95242  22457320.4854   22457322.1164
        50.0004         43.0004
  23389752.8144   -7719248.54243  -6011509.49042  23389755.3664   23389757.4644
        49.0004         41.0004
 03 12 16 19  3 30.0000000  0  7G29G28G27G 7G 8G26G11
  21968103.3084  -13122515.07043 -10184765.76842  21968104.7074   21968105.1184
        54.0004         47.0004
  20834867.2014   -2963637.75244  -2303091.10242  20834868.3694   20834867.1084
        57.0004         50.0004
  21773485.5034    7830466.79243   6101134.49742  21773486.8204   21773488.0334
        53.0004         46.0004
  20925104.9124  -17468589.17444 -13594746.73442  20925106.2834   20925107.0474
        57.0004         50.0004
  20217572.2564   -1584882.57044  -1232035.38142  20217571.8324   20217571.5824
        58.0004         50.0004
  22449305.3514   -7927026.49143  -6162311.48242  22449307.0974   22449307.2274
        50.0004         43.0004
  23388665.7654   -7724961.32043  -6015960.95042  23388668.9714   23388669.6744
        49.0004         41.0004
 03 12 16 19  4  0.0000000  0  7G29G28G27G 7G 8G26G11
  21964027.1244  -13143935.08843 -10201456.70242  21964028.9994   21964028.0684
        54.0004         46.0004
  20835516.7454   -2960224.39943  -2300431.35442  20835517.6874   20835516.9154
        56.0004         50.0004
  21785937.1664    7895897.76343   6152119.60542  21785938.2674   21785940.1034
        52.0004         46.0004
  20914795.1264  -17522767.17944 -13636963.34742  20914796.3194   20914797.5944
        57.0004         50.0004
  20221960.6944   -1561821.45044  -1214065.69842  20221960.6434   20221960.1634
        58.0004         50.0004
  22441394.9874   -7968598.85343  -6194705.54442  22441395.9264   22441396.1494
        50.0004         43.0004
  23387671.6444   -7730186.89543  -6020032.77842  23387670.1494   23387674.3724
        50.0004         41.0004
 03 12 16 19  4 30.0000000  0  7G29G28G27G 7G 8G26G11
  21960057.4764  -13164797.38343 -10217713.04942  21960059.1884   21960058.9734
        53.0004         46.0004
  20836201.3454   -2956627.41744  -2297628.52542  20836202.2644   20836200.9694
        57.0004         50.0004
  21798454.8964    7961682.00943   6203379.98642  21798456.4884   21798457.8814
        52.0004         46.0004
  20904567.3914  -17576516.16244 -13678845.65642  20904568.1704   20904569.4074
        57.0004         50.0004
  20226431.2384   -1538328.83444  -1195759.79842  20226430.8084   20226430.4774
        58.0004         50.0004
  22433585.4884   -8009628.71343  -6226676.85042  22433588.1994   22433588.7484
        50.0004         43.0004
  23386770.0864   -7734925.32343  -6023725.00042  23386772.1854   23386772.0764
        51.0004         41.0004
 03 12 16 19  5  0.0000000  0  7G29G28G27G 7G 8G26G11
  21956194.5734  -13185095.16743 -10233529.50342  21956196.3494   21956196.6224
        53.0004         46.0004
  20836921.2504   -2952840.97143  -2294678.05342  20836922.8124   20836921.6524
        56.0004         50.0004
  21811041.3654    8027825.40643   6254920.25342  21811043.4774   21811045.1584
        52.0004         45.0004
  20894422.3644  -17629829.00544 -13720388.11342  20894423.3554   20894424.1834
        57.0004         50.0004
  20230984.9654   -1514397.88244  -1177112.32442  20230984.8774   20230984.7684
        57.0004         50.0004
  22425884.0174   -8050108.67343  -6258219.68542  22425885.5294   22425884.7694
        51.0004         43.0004
  23385962.9564   -7739169.51843  -6027032.08742  23385963.3884   23385964.8044
        51.0004         41.0004
 03 12 16 19  5 30.0000000  0  7G29G28G27G 7G 8G26G11
  21952437.6704  -13204837.44243 -10248913.10442  21952439.4844   21952439.5654
        53.0004         46.0004
  20837676.1644   -2948875.41043  -2291588.01642  20837677.3954   20837676.0584
        56.0004         50.0004
  21823694.7784    8094317.68243   6306732.36742  21823695.1844   21823697.3354
        52.0004         45.0004
  20884358.4954  -17682714.22044 -13761597.35942  20884359.9814   20884360.8904
        57.0004         50.0004
  20235620.4284   -1490037.47144  -1158130.21242  20235620.2134   20235620.4694
        57.0004         50.0004
  22418283.0664   -8090046.77143  -6289340.28142  22418286.1694   22418285.8634
        51.0004         43.0004
  23385246.7084   -7742927.92043  -6029960.63442  23385248.0364   23385248.9954
        49.0004         41.0004
 03 12 16 19  6  0.0000000  0  7G29G28G27G 7G 8G26G11
  21948787.8194  -13224015.83543 -10263857.30842  21948789.6474   21948790.2494
        52.0004         46.0004
  20838466.2784   -2944723.40543  -2288352.69442  20838467.9794   20838466.2874
        56.0004         50.0004
  21836415.7224    8161166.13143   6358822.01242  21836416.6074   21836418.8134
        52.0004         45.0004
  20874378.0374  -17735163.34844 -13802466.80042  20874378.8264   20874380.0874
        57.0004         50.0004
  20240339.4434   -1465239.15744  -1138806.87242  20240339.2904   20240339.2274
        57.0004         50.0004
  22410788.5544   -8129434.04143  -6320031.66642  22410789.5834   22410790.6334
        51.0004         44.0004
  23384625.4924   -7746192.11143  -6032504.12842  23384626.1864   23384629.4884
        49.0004         40.0004
 03 12 16 19  6 30.0000000  0  7G29G28G27G 7G 8G26G11
  21945245.2434  -13242634.46743 -10278365.31642  21945246.4924   21945246.4844
        52.0004         46.0004
  20839291.3584   -2940390.27944  -2284976.23542  20839292.1424   20839291.4714
        57.0004         50.0004
  21849204.3094    8228365.83643   6411185.36942  21849205.9084   21849206.0164
        53.0004         46.0004
  20864479.0874  -17787179.92044 -13842999.18242  20864479.8514   20864481.6844
        57.0004         50.0004
  20245141.0194   -1440007.35644  -1119145.75042  20245141.0074   20245141.1044
        57.0004         50.0004
  22403397.0584   -8168273.98143  -6350296.55642  22403399.7504   22403399.8744
        51.0004         44.0004
  23384098.6024   -7748965.63543  -6034665.25642  23384100.6204   23384099.8474
        49.0004         40.0004
 03 12 16 19  7  0.0000000  0  7G29G28G27G 7G 8G26G11
  21941808.6054  -13260694.12243 -10292437.77142  21941809.2764   21941810.3514
        52.0004         46.0004
  20840149.6404   -2935877.66044  -2281459.91342  20840150.8624   20840149.7064
        57.0004         50.0004
  21862057.9404    8295914.83643   6463820.87342  21862059.1394   21862060.9694
        54.0004         46.0004
  20854663.1744  -17838764.46144 -13883194.92542  20854663.8364   20854664.9134
        57.0004         50.0004
  20250024.6034   -1414342.43844  -1099147.13742  20250024.7574   20250024.4634
        57.0004         50.0004
  22396110.8424   -8206566.49443  -6380134.87542  22396112.2894   22396113.7634
        51.0004         44.0004
  23383663.0724   -7751248.72343  -6036444.24542  23383665.0044   23383666.8214
        48.0004         41.0004
 03 12 16 19  7 30.0000000  0  7G29G28G27G 7G 8G26G11
  21938480.0314  -13278187.63843 -10306069.07542  21938481.3384   21938481.7274
        53.0004         46.0004
  20841044.2114   -2931179.53744  -2277799.03842  20841045.0654   20841043.8294
        57.0004         50.0004
  21874979.8824    8363819.41243   6516733.43742  21874981.1664   21874982.6014
        53.0004         45.0004
  20844930.5864  -17889909.34244 -13923048.06842  20844931.4524   20844932.6464
        57.0004         50.0004
  20254992.6514   -1388237.22444  -1078805.44842  20254992.5024   20254992.1054
        57.0004         50.0004
  22388929.8024   -8244303.74743  -6409540.51142  22388931.1734   22388931.9454
        51.0004         44.0004
  23383324.0774   -7753033.80643  -6037835.14842  23383324.0294   23383327.0614
        47.0004         40.0004
 03 12 16 19  8  0.0000000  0  7G29G28G27G 7G 8G26G11
  21935257.1064  -13295123.33743 -10319265.73442  21935258.4224   21935258.7304
        53.0004         46.0004
  20841971.4464   -2926305.23344  -2274000.87242  20841972.6124   20841970.8604
        57.0004         50.0004
  21887967.5434    8432070.12443   6569915.71242  21887968.6444   21887969.9654
        53.0004         45.0004
  20835280.0244  -17940622.66444 -13962564.93442  20835280.8864   20835282.0684
        57.0004         50.0004
  20260042.4824   -1361700.12244  -1058127.21942  20260042.2494   20260042.3234
        57.0004         50.0004
  22381852.9264   -8281493.28043  -6438519.34042  22381854.9734   22381855.2564
        51.0004         44.0004
  23383077.6934   -7754329.16443  -6038844.48142  23383078.5014   23383079.1804
        47.0004         40.0004
 03 12 16 19  8 30.0000000  0  7G29G28G27G 7G 8G26G11
  21932142.8664  -13311490.25343 -10332019.17542  21932144.2284   21932143.2464
        54.0004         46.0004
  20842934.5074   -2921244.67844  -2270057.58342  20842935.6004   20842934.5484
        57.0004         50.0004
  21901023.1334    8500677.07643   6623375.59342  21901024.9004   21901025.3114
        53.0004         45.0004
  20825713.9784  -17990892.87944 -14001736.51642  20825714.7444   20825715.4654
        57.0004         50.0004
  20265176.4444   -1334719.97944  -1037103.75742  20265176.3814   20265176.2324
        57.0004         50.0004
  22374881.0904   -8318123.30343  -6467062.20442  22374883.6324   22374884.1884
        50.0004         44.0004
  23382925.1784   -7755123.06943  -6039463.06942  23382927.5654   23382928.0444
        45.0004         39.0004
 03 12 16 19  9  0.0000000  0  7G29G28G27G 7G 8G26G11
  21929134.5114  -13327295.52243 -10344334.97542  21929136.4044   21929135.9394
        54.0004         46.0004
  20843931.0094   -2916006.13243  -2265975.60742  20843932.2344   20843931.1484
        56.0004         50.0004
  21914143.2534    8569631.91843   6677106.55042  21914145.4324   21914148.3134
        51.0004         44.0004
  20816230.9894  -18040726.90444 -14040568.21042  20816231.6444   20816232.4394
        57.0004         50.0004
  20270393.6984   -1307303.84144  -1015740.56042  20270393.2404   20270393.5394
        57.0004         50.0004
  22368016.4204   -8354200.40943  -6495174.21742  22368018.3594   22368019.3384
        51.0004         44.0004
  23382869.7254   -7755422.59743  -6039696.41742  23382869.7674   23382870.7054
        45.0004         39.0004
 03 12 16 19  9 30.0000000  0  7G29G28G27G 7G 8G26G11
  21926234.2734  -13342539.27443 -10356213.22442  21926235.7164   21926234.8334
        53.0004         46.0004
  20844962.0384   -2910590.40944  -2261755.57542  20844962.9064   20844961.8954
        57.0004         50.0004
  21927332.2004    8638933.91843   6731108.03542  21927333.8314   21927337.1404
        50.0004         44.0004
  20806830.7494  -18090124.23944 -14079059.61542  20806831.9324   20806832.5524
        58.0004         50.0004
  20275693.9124   -1279451.70944   -994037.62842  20275693.3064   20275693.9854
        57.0004         50.0004
  22361256.3174   -8389723.80943  -6522854.76542  22361258.5104   22361259.6834
        50.0004         44.0004
  23382906.0424   -7755227.10643  -6039544.06042  23382908.5184   23382908.7974
        44.0004         39.0004
 03 12 16 19 10  0.0000000  0  7G29G28G27G 7G 8G26G11
  21923441.0644  -13357217.53843 -10367650.84242  21923441.9914   21923442.1014
        53.0004         46.0004
  20846026.5174   -2904994.56543  -2257395.18742  20846028.0244   20846026.5064
        56.0004         50.0004
  21940586.9534    8708585.58443   6785382.00542  21940588.3034   21940590.2124
        50.0004         45.0004
  20797514.7164  -18139080.93244 -14117207.66742  20797515.5314   20797516.0244
        57.0004         50.0004
  20281077.6354   -1251159.80944   -971992.02042  20281077.3484   20281077.4814
        57.0004         50.0004
  22354602.8344   -8424688.94443  -6550100.30942  22354604.3864   22354604.2294
        50.0004         44.0004
  23383037.7764   -7754532.50743  -6039002.76942  23383041.0684   23383038.7594
        45.0004         38.0004
 03 12 16 19 10 30.0000000  0  7G29G28G27G 7G 8G26G11
  21920754.8364  -13371328.76943 -10378646.61042  21920757.0784   21920757.1554
        53.0004         46.0004
  20847126.1704   -2899217.96744  -2252893.95042  20847127.1544   20847125.9284
        57.0004         50.0004
  21953907.4054    8778587.97343   6839929.25842  21953908.1854   21953911.8004
        51.0004         45.0004
  20788282.7974  -18187594.55444 -14155010.46542  20788284.0404   20788284.6054
        57.0004         50.0004
  20286545.3314   -1222426.02344   -949602.08842  20286545.0754   20286545.2344
        57.0004         50.0004
  22348057.7884   -8459093.35843  -6576908.92842  22348057.7714   22348058.4474
        51.0004         45.0004
  23383265.2434   -7753336.81943  -6038071.06542  23383267.8664   23383267.7134
        44.0004         39.0004
 03 12 16 19 11  0.0000000  0  7G29G28G27G 7G 8G26G11
  21918177.2644  -13384877.91443 -10389204.39542  21918178.5864   21918179.0024
        53.0004         47.0004
  20848258.7894   -2893266.30244  -2248256.30142  20848259.6664   20848258.4914
        57.0004         50.0004
  21967294.6624    8848934.92643   6894745.00942  21967295.6914   21967297.7264
        52.0004         45.0004
  20779134.3744  -18235669.88044 -14192471.73342  20779135.6344   20779136.2014
        57.0004         50.0004
  20292096.4704   -1193255.50944   -926871.84642  20292096.2154   20292096.2754
        57.0004         50.0004
  22341615.0674   -8492941.46443  -6603284.05742  22341616.2614   22341617.6344
        51.0004         44.0004
  23383587.8274   -7751644.63343  -6036752.44942  23383588.8474   23383589.4504
        45.0004         39.0004
 03 12 16 19 11 30.0000000  0  7G29G28G27G 7G 8G26G11
  21915706.2034  -13397861.27243 -10399321.30442  21915708.3394   21915708.5774
        54.0004         47.0004
  20849424.6464   -2887136.77644  -2243480.05242  20849426.1434   20849425.0454
        57.0004         50.0004
  21980747.3734    8919629.31443   6949831.46242  21980748.8814   21980750.5244
        52.0004         45.0004
  20770070.0634  -18283302.79244 -14229588.26142  20770071.3114   20770072.1294
        57.0004         50.0004
  20297731.5144   -1163644.41844   -903798.30442  20297730.9664   20297731.2434
        57.0004         50.0004
  22335281.1414   -8526228.77743  -6629222.19942  22335282.6334   22335282.9494
        51.0004         45.0004
  23384004.9154   -7749451.84043  -6035043.75242  23384006.3364   23384007.1854
        45.0004         39.0004
 03 12 16 19 12  0.0000000  0  7G29G28G27G 7G 8G26G11
  21913343.1234  -13410281.50943 -10408999.42042  21913344.2174   21913345.0524
        53.0004         47.0004
  20850624.6734   -2880832.82943  -2238567.90042  20850625.3524   20850624.6214
        56.0004         50.0004
  21994265.5544    8990667.60843   7005185.89242  21994267.1154   21994269.9044
        52.0004         45.0004
  20761089.6734  -18330495.38544 -14266361.68442  20761090.4964   20761091.4534
        57.0004         50.0004
  20303449.5754   -1133595.17044   -880383.34342  20303449.7294   20303449.6754
        58.0004         50.0004
  22329052.8834   -8558956.98643  -6654724.68342  22329055.1024   22329054.0544
        52.0004         45.0004
  23384516.2754   -7746760.42343  -6032946.52342  23384517.7244   23384519.5174
        46.0004         40.0004
 03 12 16 19 12 30.0000000  0  7G29G28G27G 7G 8G26G11
  21911087.5694  -13422135.46143 -10418236.28042  21911088.7944   21911089.9534
        54.0004         47.0004
  20851857.7324   -2874351.80543  -2233517.76042  20851858.9004   20851857.8424
        56.0004         50.0004
  22007848.9104    9062052.16543   7060810.12942  22007849.8654   22007851.6684
        52.0004         45.0004
  20752193.7564  -18377244.12744 -14302789.25542  20752194.5544   20752195.4614
        57.0004         50.0004
  20309251.7214   -1103104.38844   -856624.32442  20309251.8384   20309251.5984
        58.0004         50.0004
  22322932.3224   -8591122.42043  -6679788.64142  22322933.3804   22322934.0134
        52.0004         45.0004
  23385124.2354   -7743567.06243  -6030458.14342  23385125.9334   23385127.3054
        47.0004         40.0004
 03 12 16 19 13  0.0000000  0  7G29G28G27G 7G 8G26G11
  21908939.7084  -13433423.78043 -10427032.39042  21908940.6994   21908941.8784
        54.0004         47.0004
  20853124.6614   -2867695.02443  -2228330.66142  20853125.6744   20853124.4294
        56.0004         50.0004
  22021498.5344    9133781.28243   7116702.88142  22021499.6574   22021502.3974
        51.0004         44.0004
  20743382.0714  -18423549.15244 -14338871.06742  20743383.1774   20743384.1994
        57.0004         50.0004
  20315138.0504   -1072172.57744   -832521.65042  20315137.8514   20315137.4604
        58.0004         50.0004
  22316918.4464   -8622724.73143  -6704413.80742  22316920.7864   22316920.5434
        52.0004         45.0004
  23385828.7554   -7739871.68443  -6027578.57042  23385830.9244   23385830.7304
        48.0004         40.0004
 03 12 16 19 13 30.0000000  0  7G29G28G27G 7G 8G26G11
  21906899.0254  -13444145.50043 -10435387.00742  21906900.4584   21906900.6414
        54.0004         47.0004
  20854424.7434   -2860862.60543  -2223006.71342  20854425.7054   20854424.4814
        56.0004         50.0004
  22035213.3984    9205855.12143   7172864.20742  22035215.5934   22035216.2484
        50.0004         43.0004
  20734655.3884  -18469409.16744 -14374606.11242  20734656.0624   20734656.7284
        57.0004         50.0004
  20321108.4734   -1040798.60744   -808074.43442  20321108.1634   20321108.3304
        58.0004         50.0004
  22311011.4644   -8653762.33243  -6728598.93442  22311014.4424   22311015.0094
        52.0004         45.0004
  23386627.5664   -7735673.20343  -6024306.99142  23386629.0624   23386628.1424
        49.0004         41.0004
 03 12 16 19 14  0.0000000  0  7G29G28G27G 7G 8G26G11
  21904967.1114  -13454301.82243 -10443301.05742  21904968.8224   21904968.2594
        54.0004         47.0004
  20855757.7444   -2853856.05043  -2217547.06942  20855758.9774   20855757.8294
        56.0004         50.0004
  22048994.2984    9278271.49543   7229292.48142  22048995.6384   22048994.7604
        50.0004         43.0004
  20726013.0424  -18514824.78344 -14409994.87642  20726014.0714   20726014.5934
        57.0004         50.0004
  20327162.4844   -1008983.68544   -783283.62042  20327162.2454   20327162.3494
        57.0004         50.0004
  22305213.0034   -8684235.73943  -6752344.42342  22305214.9014   22305216.0604
        52.0004         45.0004
  23387521.4244   -7730972.19843  -6020643.80842  23387521.5594   23387522.3934
        50.0004         41.0004
 03 12 16 19 14 30.0000000  0  7G29G28G27G 7G 8G26G11
  21903142.4084  -13463891.98943 -10450773.95542  21903143.4584   21903143.2014
        55.0004         47.0004
  20857124.5204   -2846675.33243  -2211951.71842  20857125.5074   20857124.0144
        56.0004         50.0004
  22062840.4594    9351030.42143   7285987.66742  22062840.7264   22062842.8964
        51.0004         43.0004
  20717455.2344  -18559794.84644 -14445036.45542  20717456.0414   20717457.3904
        57.0004         50.0004
  20333300.5134    -976726.56944   -758148.23642  20333300.3774   20333300.3754
        57.0004         50.0004
  22299521.8874   -8714143.42943  -6775649.10142  22299523.5384   22299523.8684
        51.0004         45.0004
  23388511.3844   -7725767.75943  -6016588.32942  23388514.6784   23388510.5764
        50.0004         40.0004
 03 12 16 19 15  0.0000000  0  7G29G28G27G 7G 8G26G11
  21901424.7614  -13472916.67843 -10457806.22942  21901426.1814   21901426.1024
        54.0004         47.0004
  20858523.8614   -2839321.98144  -2206221.84942  20858525.0314   20858523.4694
        57.0004         50.0004
  22076751.1374    9424130.46043   7342948.62942  22076752.1834   22076753.9314
        51.0004         44.0004
  20708983.0524  -18604319.52644 -14479730.97942  20708983.5544   20708984.1884
        57.0004         50.0004
  20339522.9524    -944027.95444   -732668.82742  20339522.7274   20339522.7564
        57.0004         50.0004
  22293938.0434   -8743485.18643  -6798512.77842  22293939.8184   22293940.0884
        51.0004         45.0004
  23389597.7144   -7720059.85943  -6012140.58742  23389600.5014   23389600.3604
        49.0004         41.0004
 03 12 16 19 15 30.0000000  0  7G29G28G27G 7G 8G26G11
  21899815.0734  -13481373.70743 -10464396.16142  21899816.4594   21899816.9664
        54.0004         47.0004
  20859956.2104   -2831794.13444  -2200356.00842  20859957.3164   20859956.4204
        57.0004         50.0004
  22090727.2974    9497572.81143   7400176.35042  22090729.0524   22090729.4674
        52.0004         45.0004
  20700595.3574  -18648396.08044 -14514076.32442  20700595.9464   20700596.7664
        57.0004         50.0004
  20345829.9884    -910885.15044   -706843.28942  20345829.6584   20345829.7494
        57.0004         50.0004
  22288462.7574   -8772258.19143  -6820933.27842  22288464.4924   22288464.9724
        51.0004         45.0004
  23390780.1144   -7713845.89343  -6007298.47542  23390782.9704   23390782.1544
        49.0004         40.0004
 03 12 16 19 16  0.0000000  0  7G29G28G27G 7G 8G26G11
  21898311.8664  -13489266.15443 -10470546.16542  21898314.4274   21898315.1554
        53.0004         47.0004
  20861421.5394   -2824095.37144  -2194356.98842  20861422.4944   20861421.3354
        57.0004         50.0004
  22104766.8474    9571353.60443   7457667.78042  22104767.5644   22104770.6614
        52.0004         45.0004
  20692291.9814  -18692027.18944 -14548074.56342  20692293.0624   20692293.6834
        57.0004         50.0004
  20352220.4384    -877301.42444   -680674.16842  20352220.5344   20352220.8414
        57.0004         50.0004
  22283095.6674   -8800464.71043  -6842912.36342  22283096.8214   22283096.4834
        52.0004         45.0004
  23392057.2944   -7707128.66343  -6002064.20942  23392061.5274   23392063.1454
        49.0004         40.0004
 03 12 16 19 16 30.0000000  0  7G29G28G27G 7G 8G26G11
  21896920.0754  -13496589.01543 -10476252.32942  21896920.2184   21896921.2434
        53.0004         47.0004
  20862920.0734   -2816221.11444  -2188221.21842  20862921.1434   20862919.8234
        57.0004         50.0004
  22118872.2884    9645477.15043   7515426.28342  22118872.4304   22118874.8134
        51.0004         45.0004
  20684075.9544  -18735207.19544 -14581721.29942  20684076.5314   20684076.8984
        57.0004         50.0004
  20358696.1934    -843271.05744   -654157.01942  20358696.1644   20358696.5714
        57.0004         50.0004
  22277837.2224   -8828098.86843  -6864445.45742  22277838.0774   22277839.0314
        52.0004         45.0004
  23393433.6454   -7699902.77043  -5996433.58442  23393434.0414   23393435.2514
        50.0004         41.0004
 03 12 16 19 17  0.0000000  0  7G29G28G27G 7G 8G26G11
  21895633.6454  -13503346.30343 -10481517.79542  21895635.3524   21895635.4594
        53.0004         47.0004
  20864450.9904   -2808176.06244  -2181952.36242  20864452.0564   20864450.7634
        57.0004         50.0004
  22133041.1504    9719938.52243   7573448.04942  22133042.7534   22133046.3454
        50.0004         44.0004
  20675943.4644  -18777939.77544 -14615019.39642  20675944.4264   20675945.7164
        57.0004         50.0004
  20365256.6124    -808798.15144   -627295.03242  20365256.0694   20365256.3964
        57.0004         50.0004
  22272685.9414   -8855164.07543  -6885535.21142  22272687.7584   22272689.0904
        51.0004         44.0004
  23394905.4794   -7692171.68743  -5990409.33542  23394906.9814   23394908.3054
        50.0004         40.0004
 03 12 16 19 17 30.0000000  0  7G29G28G27G 7G 8G26G11
  21894455.1484  -13509539.60743 -10486343.79342  21894456.3114   21894456.3714
        53.0004         46.0004
  20866013.9514   -2799961.97544  -2175551.80042  20866015.0084   20866013.9784
        57.0004         50.0004
  22147274.4514    9794735.43643   7631731.28642  22147275.0934   22147278.6584
        50.0004         43.0004
  20667896.8454  -18820225.86844 -14647969.58242  20667897.6564   20667898.6044
        57.0004         51.0004
  20371900.6184    -773883.87744   -600089.11742  20371900.9154   20371900.8174
        57.0004         50.0004
  22267643.7354   -8881661.13143  -6906182.24742  22267645.8554   22267647.0234
        51.0004         45.0004
  23396472.2044   -7683936.39943  -5983992.17842  23396474.5774   23396473.7734
        50.0004         40.0004
 03 12 16 19 18  0.0000000  0  7G29G28G27G 7G 8G26G11
  21893386.0794  -13515163.21643 -10490725.86042  21893386.7494   21893386.6404
        53.0004         46.0004
  20867610.1384   -2791573.88844  -2169015.65142  20867611.3054   20867610.3584
        57.0004         50.0004
  22161571.7894    9869872.58643   7690279.60042  22161571.4304   22161576.4624
        49.0004         43.0004
  20659936.4544  -18862059.19844 -14680566.97342  20659936.9904   20659938.0474
        57.0004         51.0004
  20378629.8534    -738522.49544   -572534.82042  20378629.7834   20378629.6534
        57.0004         50.0004
  22262711.4534   -8907583.49043  -6926381.47742  22262713.2484   22262714.6264
        52.0004         45.0004
  23398136.6784   -7675190.92743  -5977177.51342  23398140.2114   23398138.3964
        50.0004         41.0004
 03 12 16 19 18 30.0000000  0  7G29G28G27G 7G 8G26G11
  21892423.1634  -13520221.76843 -10494667.64142  21892424.0264   21892423.9514
        53.0004         47.0004
  20869238.2114   -2783016.51344  -2162347.57942  20869239.2714   20869238.3674
        57.0004         50.0004
  22175935.2544    9945344.84943   7749089.08842  22175936.0274   22175939.3234
        49.0004         43.0004
  20652061.1304  -18903444.01744 -14712814.87142  20652062.1054   20652062.9274
        57.0004         51.0004
  20385443.2604    -702717.91044   -544635.16742  20385443.0814   20385443.1384
        57.0004         50.0004
  22257886.4084   -8932935.13843  -6946135.99742  22257888.5784   22257889.2464
        51.0004         44.0004
  23399896.6894   -7665939.28443  -5969968.42442  23399898.5904   23399898.4024
        50.0004         40.0004
 03 12 16 19 19  0.0000000  0  7G29G28G27G 7G 8G26G11
  21891567.4014  -13524715.07043 -10498168.95242  21891569.2954   21891569.3224
        53.0004         47.0004
  20870898.9194   -2774290.18043  -2155547.85042  20870899.8424   20870899.1064
        56.0004         50.0004
  22190361.4224   10021151.67043   7808159.24542  22190362.7374   22190363.9284
        51.0004         43.0004
  20644271.3314  -18944379.54744 -14744712.67042  20644272.4444   20644272.6974
        58.0004         51.0004
  20392341.1114    -666470.00444   -516390.07142  20392341.0064   20392340.6474
        58.0004         50.0004
  22253172.0074   -8957714.96643  -6965444.94442  22253172.7904   22253173.1484
        52.0004         45.0004
  23401753.6084   -7656180.99843  -5962364.56942  23401758.5404   23401754.2224
        49.0004         40.0004
 03 12 16 19 19 30.0000000  0  7G29G28G27G 7G 8G26G11
  21890819.9134  -13528645.75843 -10501231.87842  21890821.3354   21890821.8414
        54.0004         47.0004
  20872591.6964   -2765397.78244  -2148618.71542  20872592.7834   20872591.2404
        57.0004         50.0004
  22204849.2714   10097289.65443   7867487.38742  22204850.7454   22204851.8014
        50.0004         43.0004
  20636566.5884  -18984867.87344 -14776262.00142  20636567.6714   20636568.1404
        58.0004         51.0004
  20399322.6354    -629780.98544   -487801.25042  20399322.1644   20399322.2384
        57.0004         50.0004
  22248564.0224   -8981924.85243  -6984309.79342  22248565.2924   22248566.5864
        51.0004         45.0004
  23403706.2024   -7645918.13443  -5954367.51842  23403708.5844   23403707.4094
        48.0004         39.0004
 03 12 16 19 20  0.0000000  0  7G29G28G27G 7G 8G26G11
  21890180.1614  -13532007.54243 -10503851.49342  21890181.8124   21890182.5064
        54.0004         47.0004
  20874316.2904   -2756333.61244  -2141555.73742  20874317.7794   20874316.4194
        57.0004         50.0004
  22219402.2274   10173764.21643   7927077.83742  22219403.0364   22219405.0744
        51.0004         43.0004
  20628948.2664  -19024902.06844 -14807457.46042  20628949.2934   20628949.7344
        58.0004         51.0004
  20406389.1714    -592644.24844   -458863.56442  20406389.2154   20406389.2134
        57.0004         50.0004
  22244067.5904   -9005557.91943  -7002725.17242  22244069.4314   22244069.2534
        51.0004         45.0004
  23405757.3154   -7635144.05343  -5945972.10242  23405758.6974   23405760.4754
        48.0004         40.0004
 03 12 16 19 20 30.0000000  0  7G29G28G27G 7G 8G26G11
  21889648.5734  -13534802.49243 -10506029.40242  21889649.2954   21889650.4574
        54.0004         47.0004
  20876073.4344   -2747099.54944  -2134360.38042  20876074.4854   20876073.4634
        57.0004         50.0004
  22234018.6624   10250572.76943   7986928.55442  22234019.8144   22234020.4314
        51.0004         44.0004
  20621416.4024  -19064483.68044 -14838300.26242  20621417.1614   20621417.5854
        58.0004         51.0004
  20413541.1384    -555061.47044   -429578.30942  20413540.7344   20413541.1154
        57.0004         50.0004
  22239679.9944   -9028615.35843  -7020692.01942  22239681.7154   22239681.0974
        52.0004         45.0004
  23407903.9314   -7623860.35343  -5937179.58742  23407905.8734   23407905.8354
        46.0004         39.0004
 03 12 16 19 21  0.0000000  0  7G29G28G27G 7G 8G26G11
  21889223.9354  -13537032.45143 -10507767.07342  21889224.8984   21889226.3594
        54.0004         47.0004
  20877862.0214   -2737697.94944  -2127034.47942  20877863.4894   20877862.6474
        57.0004         50.0004
  22248697.5484   10327712.60443   8047037.43342  22248698.4834   22248700.5104
        50.0004         44.0004
  20613969.8714  -19103613.79244 -14868791.24542  20613970.8004   20613971.1874
        57.0004         51.0004
  20420777.5084    -517034.35844   -399946.81242  20420777.4634   20420777.5054
        57.0004         50.0004
  22235401.8524   -9051098.18943  -7038211.11642  22235403.5304   22235403.1944
        52.0004         45.0004
  23410147.1964   -7612068.25243  -5927990.93442  23410146.4094   23410149.5544
        45.0004         38.0004
 03 12 16 19 21 30.0000000  0  7G29G28G27G 7G 8G26G11
  21888906.2984  -13538697.73143 -10509064.72442  21888908.1804   21888909.2284
        53.0004         47.0004
  20879683.2554   -2728129.40244  -2119578.48342  20879684.3104   20879683.4804
        57.0004         50.0004
  22263439.2344   10405182.79543   8107403.70742  22263440.0504   22263444.6774
        50.0004         44.0004
  20606609.3724  -19142292.35944 -14898930.37142  20606610.3844   20606611.2474
        57.0004         50.0004
  20428097.9424    -478562.78644   -369968.98842  20428098.0784   20428098.3774
        57.0004         50.0004
  22231232.5084   -9073006.04543  -7055282.18642  22231233.5684   22231235.5994
        51.0004         45.0004
  23412487.5774   -7599768.18743  -5918406.46542  23412487.3264   23412490.2504
        45.0004         38.0004
 03 12 16 19 22  0.0000000  0  7G29G28G27G 7G 8G26G11
  21888698.0624  -13539794.99343 -10509919.75542  21888699.5034   21888700.0664
        53.0004         47.0004
  20881536.6354   -2718390.33343  -2111989.62042  20881537.9534   20881536.7044
        56.0004         50.0004
  22278245.4364   10482985.89943   8168029.42242  22278246.7154   22278250.1404
        50.0004         44.0004
  20599335.8734  -19180515.35644 -14928714.50842  20599336.6194   20599337.7154
        57.0004         51.0004
  20435504.2134    -439642.87744   -339641.80742  20435503.8304   20435504.5674
        57.0004         50.0004
  22227173.3374   -9094334.64943  -7071901.89142  22227174.4884   22227176.3924
        51.0004         45.0004
  23414926.8984   -7586955.48043  -5908422.49242  23414927.5784   23414929.7304
        45.0004         39.0004
 03 12 16 19 22 30.0000000  0  7G29G28G27G 7G 8G26G11
  21888596.7744  -13540328.58443 -10510335.54942  21888597.4304   21888597.8794
        53.0004         46.0004
  20883420.8754   -2708485.44543  -2104271.55342  20883422.0374   20883421.5714
        56.0004         50.0004
  22293113.1744   10561117.16743   8228910.83042  22293114.2454   22293117.7394
        50.0004         44.0004
  20592148.1044  -19218286.62044 -14958146.64042  20592148.7004   20592150.1074
        57.0004         51.0004
  20442995.3124    -400278.93144   -308968.63042  20442995.3224   20442995.1714
        57.0004         50.0004
  22223224.2204   -9115087.76443  -7088073.15942  22223226.9054   22223226.5884
        51.0004         45.0004
  23417459.8144   -7573634.26843  -5898042.33842  23417461.1794   23417463.0194
        42.0004         38.0004
 03 12 16 19 23  0.0000000  0  7G29G28G27G 7G 8G26G11
  21888602.3634  -13540299.74443 -10510313.09642  21888603.3294   21888604.2954
        54.0004         46.0004
  20885337.4164   -2698415.91143  -2096425.18142  20885338.3394   20885337.6464
        56.0004         50.0004
  22308044.0194   10639574.59643   8290046.38242  22308045.3544   22308047.9294
        51.0004         44.0004
  20585046.7694  -19255606.59444 -14987227.12142  20585047.3134   20585048.2644
        58.0004         51.0004
  20450569.9804    -360471.54743   -277949.90242  20450570.1324   20450570.8584
        56.0004         50.0004
  22219383.9494   -9135265.72043  -7103796.26542  22219386.4194   22219387.1104
        51.0004         45.0004
  23420091.6484   -7559805.35343  -5887266.53342  23420092.9894   23420094.9304
        43.0004         38.0004
 03 12 16 19 23 30.0000000  0  7G29G28G27G 7G 8G26G11
  21888715.4004  -13539706.02843 -10509850.48242  21888716.7874   21888716.8554
        54.0004         47.0004
  20887285.8534   -2688179.42244  -2088448.71442  20887286.6404   20887285.9314
        57.0004         50.0004
  22323036.1194   10718360.10143   8351437.55042  22323037.5784   22323039.1884
        51.0004         44.0004
  20578031.3964  -19292472.30944 -15015953.63442  20578032.0574   20578033.2154
        57.0004         51.0004
  20458230.2704    -320218.05244   -246583.56742  20458229.7794   20458230.5834
        57.0004         50.0004
  22215654.7544   -9154865.39843  -7119068.75842  22215656.8594   22215658.2434
        51.0004         45.0004
  23422823.2644   -7545465.92443  -5876092.97442  23422822.2784   23422823.4014
        44.0004         38.0004
 03 12 16 19 24  0.0000000  0  7G29G28G27G 7G 8G26G11
  21888935.0844  -13538549.91443 -10508949.63442  21888936.6954   21888937.4544
        54.0004         47.0004
  20889264.6974   -2677778.89244  -2080344.42442  20889265.6514   20889264.4894
        57.0004         50.0004
  22338090.0814   10797470.30243   8413081.75042  22338091.6634   22338092.9214
        51.0004         43.0004
  20571101.8614  -19328885.67944 -15044327.66342  20571102.9584   20571103.9804
        58.0004         51.0004
  20465975.0414    -279520.51144   -214871.21842  20465974.7214   20465975.3614
        57.0004         50.0004
  22212035.2714   -9173888.59743  -7133892.04942  22212036.9774   22212037.7534
        51.0004         45.0004
  23425646.2674   -7530618.03943  -5864523.15842  23425648.8114   23425649.0744
        44.0004         38.0004
 03 12 16 19 24 30.0000000  0  7G29G28G27G 7G 8G26G11
  21889262.8894  -13536828.91243 -10507608.59742  21889264.9184   21889264.4204
        54.0004         47.0004
  20891275.5824   -2667211.47744  -2072110.09342  20891276.9824   20891275.6544
        57.0004         50.0004
  22353206.7914   10876907.38243   8474980.63442  22353206.5904   22353209.3734
        51.0004         43.0004
  20564259.3454  -19364843.52344 -15072346.73042  20564260.3714   20564261.4604
        58.0004         51.0004
  20473804.6324    -238375.95544   -182810.54742  20473804.4904   20473804.5814
        57.0004         50.0004
  22208525.8944   -9192331.75843  -7148263.36742  22208527.9284   22208527.9574
        52.0004         45.0004
  23428569.5454   -7515258.66243  -5852554.80042  23428571.3454   23428571.3684
        46.0004         39.0004
 03 12 16 19 25  0.0000000  0  7G29G28G27G 7G 8G26G11
  21889697.5874  -13534544.91743 -10505828.86942  21889699.4144   21889699.2674
        55.0004         47.0004
  20893318.1344   -2656479.22144  -2063747.31042  20893319.1314   20893317.8784
        57.0004         50.0004
  22368384.5144   10956668.65543   8537132.18042  22368384.9724   22368388.8044
        50.0004         43.0004
  20557503.2114  -19400347.02044 -15100011.76542  20557504.0424   20557505.1044
        58.0004         51.0004
  20481719.1644    -196785.80444   -150402.65942  20481718.6954   20481719.2144
        57.0004         50.0004
  22205126.2784   -9210196.17843  -7162183.72242  22205128.1384   22205128.4834
        52.0004         45.0004
  23431588.9074   -7499389.05543  -5840188.89242  23431592.0334   23431591.3944
        46.0004         39.0004
 03 12 16 19 25 30.0000000  0  7G29G28G27G 7G 8G26G11
  21890239.2884  -13531696.31443 -10503609.18742  21890240.7304   21890241.8794
        54.0004         47.0004
  20895391.8174   -2645580.30544  -2055254.66542  20895393.0474   20895391.8684
        57.0004         50.0004
  22383624.4094   11036755.21343   8599537.18942  22383625.2634   22383628.9484
        48.0004         42.0004
  20550834.1354  -19435393.95344 -15127321.03342  20550834.9044   20550835.9114
        57.0004         51.0004
  20489718.6494    -154748.26544   -117646.15342  20489718.2454   20489718.1934
        57.0004         50.0004
  22201837.3624   -9227479.43643  -7175651.21742  22201838.5994   22201839.4964
        52.0004         45.0004
  23434707.3994   -7483007.52843  -5827424.06642  23434708.8194   23434708.1364
        46.0004         40.0004
 03 12 16 19 26  0.0000000  0  7G29G28G27G 7G 8G26G11
  21890887.9544  -13528287.09243 -10500952.64842  21890889.5954   21890890.6444
        54.0004         47.0004
  20897496.9574   -2634518.69944  -2046635.25742  20897498.0184   20897497.2934
        57.0004         50.0004
  22398924.4734   11117162.36343   8662192.00142  22398925.2054   22398928.8784
        48.0004         42.0004
  20544250.7104  -19469987.75044 -15154277.20342  20544251.5544   20544252.9714
        57.0004         51.0004
  20497802.4984    -112266.83844    -84543.76842  20497802.4584   20497802.4884
        57.0004         50.0004
  22198657.6124   -9244184.79943  -7188668.40442  22198659.4714   22198661.3894
        52.0004         45.0004
  23437921.5094   -7466117.16343  -5814262.74642  23437922.5984   23437923.2004
        46.0004         40.0004
 03 12 16 19 26 30.0000000  0  7G29G28G27G 7G 8G26G11
  21891642.4464  -13524315.66743 -10497858.04042  21891644.7054   21891645.1084
        53.0004         47.0004
  20899632.7584   -2623292.74143  -2037887.77842  20899634.0564   20899633.6814
        56.0004         50.0004
  22414286.8194   11197891.24043   8725097.56542  22414287.5164   22414290.0194
        48.0004         42.0004
  20537754.8104  -19504126.04444 -15180878.43942  20537755.2284   20537756.3484
        57.0004         51.0004
  20505971.8484     -69339.26944    -51093.74542  20505971.5434   20505971.0344
        57.0004         50.0004
  22195590.3294   -9260309.82243  -7201233.37442  22195590.5774   22195591.4224
        52.0004         45.0004
  23441233.3074   -7448715.85143  -5800703.28842  23441233.4504   23441234.0264
        47.0004         41.0004
 03 12 16 19 27  0.0000000  0  7G29G28G27G 7G 8G26G11
  21892506.2974  -13519785.26843 -10494327.85442  21892506.8584   21892508.1424
        54.0004         47.0004
  20901799.8534   -2611905.43144  -2029014.56242  20901801.6074   20901800.5124
        57.0004         50.0004
  22429709.5284   11278938.08543   8788250.84442  22429711.2954   22429714.6464
        47.0004         42.0004
  20531345.0274  -19537811.39744 -15207126.72342  20531345.5034   20531346.1524
        58.0004         51.0004
  20514225.0234     -25968.42844    -17298.30742  20514224.5994   20514224.3754
        58.0004         50.0004
  22192631.4624   -9275856.92643  -7213348.02042  22192632.7594   22192632.8724
        52.0004         45.0004
  23444640.9634   -7430806.30443  -5786747.82142  23444641.7664   23444641.5324
        47.0004         40.0004
 03 12 16 19 27 30.0000000  0  7G29G28G27G 7G 8G26G11
  21893474.2404  -13514692.62043 -10490359.55642  21893475.9484   21893476.5884
        53.0004         46.0004
  20903998.6534   -2600353.25544  -2020012.88442  20903999.5774   20903999.0474
        57.0004         50.0004
  22445193.6514   11360305.83043   8851654.13542  22445194.9324   22445198.3564
        47.0004         41.0004
  20525021.3854  -19571039.80344 -15233018.94642  20525022.3864   20525022.9564
        58.0004         51.0004
  20522562.9174      17849.39044     16845.41742  20522562.5894   20522562.8064
        57.0004         50.0004
  22189784.5684   -9290822.11543  -7225009.23242  22189786.3614   22189785.8474
        53.0004         45.0004
  23448145.6414   -7412384.97443  -5772393.56842  23448147.1014   23448147.8034
        47.0004         41.0004
 03 12 16 19 28  0.0000000  0  7G29G28G27G 7G 8G26G11
  21894551.1284  -13509041.59843 -10485956.16542  21894551.7484   21894552.3094
        53.0004         46.0004
  20906226.8154   -2588639.93343  -2010885.63042  20906228.3294   20906227.3284
        56.0004         50.0004
  22460738.9004   11441989.94843   8915303.98842  22460739.6504   22460743.3374
        50.0004         42.0004
  20518784.9554  -19603814.54244 -15258557.65642  20518785.7184   20518786.1924
        58.0004         51.0004
  20530985.6404      62110.84044     51334.83442  20530985.1944   20530985.3024
        57.0004         50.0004
  22187045.8374   -9305208.54143  -7236219.44642  22187047.8794   22187048.5644
        52.0004         45.0004
  23451747.8704   -7393455.13643  -5757643.10142  23451750.4784   23451751.0084
        48.0004         41.0004
 03 12 16 19 28 30.0000000  0  7G29G28G27G 7G 8G26G11
  21895732.5214  -13502828.31343 -10481114.65242  21895734.1394   21895734.6064
        53.0004         46.0004
  20908487.8524   -2576761.64344  -2001629.82442  20908489.4604   20908487.6074
        57.0004         50.0004
  22476343.7954   11523993.72943   8979202.92742  22476344.1904   22476346.9984
        49.0004         42.0004
  20512635.2114  -19636131.04944 -15283739.31042  20512636.0614   20512636.3424
        58.0004         51.0004
  20539493.3834     106820.09544     86173.19542  20539493.5104   20539493.8424
        57.0004         50.0004
  22184418.9584   -9319011.55243  -7246975.04942  22184421.0014   22184422.0064
        53.0004         45.0004
  23455448.1724   -7374012.32843  -5742492.91042  23455449.1614   23455450.8634
        48.0004         41.0004
 03 12 16 19 29  0.0000000  0  7G29G28G27G 7G 8G26G11
  21897020.5994  -13496056.26943 -10475837.75442  21897023.3854   21897023.0234
        53.0004         46.0004
  20910779.4344   -2564721.44944  -1992247.85242  20910780.3984   20910779.4584
        57.0004         50.0004
  22492007.4504   11606313.06143   9043347.74242  22492008.6264   22492011.4374
        48.0004         41.0004
  20506572.1624  -19667992.07044 -15308566.04142  20506573.2614   20506573.5274
        58.0004         51.0004
  20548085.9954     151974.32744    121358.28742  20548085.9084   20548085.9364
        57.0004         50.0004
  22181903.3234   -9332233.87543  -7257278.16942  22181904.0574   22181905.7314
        52.0004         45.0004
  23459244.2234   -7354059.60243  -5726945.40042  23459246.0694   23459247.7234
        48.0004         41.0004
 03 12 16 19 29 30.0000000  0  7G29G28G27G 7G 8G26G11
  21898415.5854  -13488728.53843 -10470127.84542  21898417.5634   21898417.7684
        54.0004         46.0004
  20913100.2914   -2552522.06744  -1982741.83342  20913101.5034   20913100.3394
        57.0004         50.0004
  22507733.3224   11688944.61943   9107735.87142  22507735.4684   22507737.6324
        50.0004         42.0004
  20500595.2804  -19699399.99844 -15333039.70742  20500596.2954   20500597.1934
        58.0004         51.0004
  20556762.6864     197570.90644    156888.06642  20556762.5214   20556762.4084
        57.0004         50.0004
  22179497.3774   -9344877.81043  -7267130.59842  22179499.0404   22179499.9774
        52.0004         46.0004
  23463137.7724   -7333599.56943  -5711002.57642  23463141.5444   23463141.2344
        49.0004         42.0004
 03 12 16 19 30  0.0000000  0  7G29G28G27G 7G 8G26G11
  21899916.2374  -13480842.09543 -10463982.56442  21899917.8044   21899918.8814
        53.0004         47.0004
  20915452.7914   -2540160.08544  -1973109.10542  20915454.0064   20915453.0904
        57.0004         50.0004
  22523518.0604   11771891.01543   9172369.31942  22523520.7774   22523519.7674
        50.0004         42.0004
  20494705.2354  -19730351.00144 -15357157.33342  20494706.0924   20494707.1804
        57.0004         51.0004
  20565524.8414     243613.36944    192765.28142  20565524.6784   20565524.1294
        57.0004         50.0004
  22177201.6774   -9356939.44143  -7276529.26542  22177203.0724   22177204.9014
        52.0004         45.0004
  23467129.8534   -7312628.41843  -5694661.47742  23467130.5904   23467132.8074
        49.0004         42.0004
 03 12 16 19 30 30.0000000  0  7G29G28G27G 7G 8G26G11
  21901523.4984  -13472396.96943 -10457401.96642  21901525.2844   21901525.3414
        54.0004         47.0004
  20917836.1134   -2527635.18843  -1963349.42542  20917837.2184   20917836.3904
        56.0004         50.0004
  22539361.1544   11855151.62743   9237247.58942  22539363.6274   22539364.6054
        50.0004         42.0004
  20488902.7614  -19760844.35044 -15380918.35142  20488903.2344   20488903.9424
        57.0004         51.0004
  20574370.8434     290102.34944    228990.42442  20574371.1234   20574370.9474
        57.0004         50.0004
  22175017.2154   -9368418.03043  -7285473.61042  22175018.9214   22175020.3364
        52.0004         45.0004
  23471217.4144   -7291145.77543  -5677921.83342  23471219.2134   23471218.8094
        49.0004         42.0004
 03 12 16 19 31  0.0000000  0  7G29G28G27G 7G 8G26G11
  21903236.9684  -13463397.42343 -10450389.35342  21903237.7924   21903238.5364
        53.0004         47.0004
  20920249.3914   -2514951.13344  -1953465.72442  20920251.0354   20920250.3324
        57.0004         50.0004
  22555265.2184   11938721.81043   9302367.07742  22555266.3904   22555269.1944
        50.0004         43.0004
  20483186.4434  -19790883.65144 -15404325.56842  20483187.2664   20483187.5884
        58.0004         51.0004
  20583302.1444     337033.81344    265560.35942  20583301.5074   20583301.5484
        57.0004         50.0004
  22172943.9374   -9379317.12843  -7293966.40042  22172944.7404   22172946.1434
        52.0004         45.0004
  23475401.8264   -7269155.53743  -5660786.63442  23475403.7944   23475405.7374
        49.0004         42.0004
 03 12 16 19 31 30.0000000  0  7G29G28G27G 7G 8G26G11
  21905054.4974  -13453845.08743 -10442946.00342  21905055.4374   21905055.9934
        54.0004         47.0004
  20922693.3754   -2502109.25743  -1943459.04342  20922694.4744   20922693.6254
        56.0004         50.0004
  22571226.3294   12022599.60643   9367726.31642  22571227.4034   22571229.6164
        51.0004         44.0004
  20477556.4534  -19820469.74144 -15427379.63042  20477557.2394   20477557.8524
        58.0004         51.0004
  20592316.3004     384406.90444    302474.42342  20592316.2654   20592316.1954
        57.0004         49.0004
  22170979.1544   -9389637.56143  -7302008.28042  22170980.9544   22170981.6744
        52.0004         45.0004
  23479683.9284   -7246658.65143  -5643256.64142  23479685.9044   23479683.1004
        49.0004         42.0004
 03 12 16 19 32  0.0000000  0  7G29G28G27G 7G 8G26G11
  21906978.6644  -13443734.42643 -10435067.58342  21906979.4834   21906980.3904
        53.0004         47.0004
  20925168.3434   -2489103.74344  -1933324.85142  20925169.5144   20925168.3234
        57.0004         50.0004
  22587247.6444   12106789.97443   9433329.10142  22587247.7444   22587251.6874
        50.0004         43.0004
  20472013.6364  -19849596.40844 -15450075.70042  20472014.3644   20472015.2894
        58.0004         51.0004
  20601416.2974     432227.62344    339737.28642  20601416.1364   20601416.6254
        57.0004         49.0004
  22169127.3114   -9399373.15443  -7309594.44042  22169128.2894   22169129.0554
        52.0004         45.0004
  23484061.3324   -7223649.07943  -5625327.16542  23484063.0914   23484065.3304
        49.0004         42.0004
 03 12 16 19 32 30.0000000  0  7G29G28G27G 7G 8G26G11
  21909006.9774  -13433070.20643 -10426757.82242  21909009.3834   21909009.6154
        53.0004         47.0004
  20927673.8324   -2475938.65244  -1923066.30642  20927674.7974   20927673.6504
        57.0004         50.0004
  22603326.1944   12191287.72043   9499171.35642  22603326.4834   22603330.8224
        48.0004         42.0004
  20466557.7884  -19878267.59544 -15472416.85142  20466558.5574   20466559.2034
        58.0004         51.0004
  20610601.0744     480491.89944    377345.77942  20610601.1104   20610601.1734
        57.0004         50.0004
  22167385.4354   -9408527.71743  -7316727.84442  22167386.8904   22167386.6234
        52.0004         45.0004
  23488538.3474   -7200130.94743  -5607001.35942  23488539.5074   23488538.9644
        50.0004         42.0004
 03 12 16 19 33  0.0000000  0  7G29G28G27G 7G 8G26G11
  21911141.8074  -13421851.41443 -10418015.93742  21911143.7534   21911144.6474
        53.0004         46.0004
  20930209.6834   -2462612.74544  -1912682.44142  20930210.9154   20930209.3114
        57.0004         50.0004
  22619464.1164   12276093.51643   9565253.67042  22619466.1294   22619468.6264
        49.0004         42.0004
  20461188.7164  -19906481.55844 -15494401.72642  20461189.7504   20461190.3264
        58.0004         51.0004
  20619870.6454     529201.10244    415300.97042  20619870.4844   20619870.0204
        57.0004         50.0004
  22165754.1174   -9417099.62543  -7323407.24742  22165755.5514   22165755.6184
        52.0004         45.0004
  23493109.4834   -7176102.93343  -5588278.23942  23493110.8264   23493110.4314
        50.0004         42.0004
 03 12 16 19 33 30.0000000  0  7G29G28G27G 7G 8G26G11
  21913382.4634  -13410080.27143 -10408843.64742  21913383.8084   21913384.1544
        53.0004         46.0004
  20932775.3764   -2449127.58944  -1902174.48742  20932776.6964   20932775.7024
        57.0004         50.0004
  22635659.8244   12361204.61443   9631573.91442  22635660.5094   22635666.2484
        47.0004         41.0004
  20455906.5484  -19934239.93244 -15516031.59642  20455907.4464   20455908.2214
        58.0004         51.0004
  20629223.8264     578353.58844    453601.57842  20629223.4834   20629223.2004
        57.0004         49.0004
  22164233.8994   -9425090.45443  -7329633.86542  22164235.1374   22164235.5174
        53.0004         45.0004
  23497779.0574   -7151566.52343  -5569158.95742  23497779.9574   23497781.6774
        50.0004         42.0004
 03 12 16 19 34  0.0000000  0  7G29G28G27G 7G 8G26G11
  21915728.3254  -13397756.62543 -10399240.84142  21915728.6814   21915729.2084
        53.0004         47.0004
  20935372.0184   -2435482.05744  -1891541.56542  20935373.0034   20935372.0124
        57.0004         50.0004
  22651914.3414   12446621.09643   9698132.12942  22651914.6764   22651919.2974
        46.0004         41.0004
  20450711.2634  -19961541.50844 -15537305.51442  20450711.8774   20450712.6024
        58.0004         51.0004
  20638661.6204     627950.18344    492248.24142  20638661.1484   20638661.3344
        57.0004         49.0004
  22162824.1664   -9432499.05243  -7335406.77642  22162825.2054   22162825.2804
        52.0004         45.0004
  23502544.4384   -7126521.23643  -5549643.14942  23502545.7624   23502548.7214
        49.0004         42.0004
 03 12 16 19 34 30.0000000  0  7G29G28G27G 7G 8G26G11
  21918177.4514  -13384886.25643 -10389212.01742  21918177.6924   21918178.4914
        54.0004         47.0004
  20937998.0964   -2421682.00844  -1880788.23942  20937999.4214   20937997.9824
        57.0004         50.0004
  22668226.1794   12532336.64543   9764923.33342  22668225.9964   22668230.2224
        46.0004         41.0004
  20445601.3864  -19988391.32844 -15558227.42342  20445602.2894   20445603.0804
        58.0004         51.0004
  20648182.7284     677985.57744    531236.81942  20648182.4384   20648182.7974
        57.0004         49.0004
  22161523.8584   -9439330.62443  -7340730.07242  22161526.2284   22161525.8854
        52.0004         45.0004
  23507407.0184   -7100972.52843  -5529735.01542  23507407.1304   23507408.9864
        50.0004         42.0004
 03 12 16 19 35  0.0000000  0  7G29G28G27G 7G 8G26G11
  21920731.0714  -13371463.28043 -10378752.58942  21920732.9684   21920732.8354
        54.0004         47.0004
  20940655.2104   -2407720.56244  -1869909.14642  20940655.8544   20940654.6904
        57.0004         50.0004
  22684594.8844   12618356.99443   9831952.00942  22684597.1484   22684599.4744
        47.0004         41.0004
  20440579.4234  -20014782.55044 -15578791.97442  20440580.4494   20440580.9074
        58.0004         51.0004
  20657788.7374     728466.54544    570572.60242  20657788.8714   20657789.1024
        57.0004         49.0004
  22160333.8434   -9445578.37543  -7345598.43442  22160335.8424   22160336.9234
        52.0004         45.0004
  23512366.0514   -7074913.39143  -5509429.15042  23512367.4964   23512367.9694
        50.0004         41.0004
 03 12 16 19 35 30.0000000  0  7G29G28G27G 7G 8G26G11
  21923389.6774  -13357492.46543 -10367866.28642  21923390.9884   21923392.0384
        54.0004         47.0004
  20943342.0004   -2393601.87444  -1858907.53242  20943342.8484   20943341.4334
        57.0004         50.0004
  22701021.2324   12704676.69943   9899214.01942  22701021.9954   22701026.1884
        49.0004         42.0004
  20435644.1034  -20040719.51644 -15599002.56342  20435644.7224   20435645.3594
        58.0004         51.0004
  20667478.5414     779388.49943    610252.02042  20667478.7944   20667479.5414
        56.0004         49.0004
  22159255.4284   -9451246.35943  -7350015.03242  22159256.9754   22159258.3354
        51.0004         45.0004
  23517420.0914   -7048348.04343  -5488728.81442  23517421.4024   23517420.1764
        50.0004         41.0004
 03 12 16 19 36  0.0000000  0  7G29G28G27G 7G 8G26G11
  21926152.6554  -13342972.57043 -10356552.12242  21926154.3984   21926154.7594
        54.0004         46.0004
  20946058.7244   -2379323.39944  -1847781.41142  20946059.7094   20946058.7924
        57.0004         50.0004
  22717505.2894   12791297.05243   9966710.24542  22717505.6524   22717509.3654
        48.0004         42.0004
  20430795.2904  -20066199.78944 -15618857.28142  20430796.0484   20430796.5944
        58.0004         51.0004
  20677253.4494     830753.75043    650276.85542  20677253.5394   20677253.9864
        56.0004         49.0004
  22158288.3754   -9456332.47743  -7353978.22342  22158289.1614   22158290.2884
        51.0004         45.0004
  23522572.0594   -7021274.66843  -5467632.64642  23522573.6784   23522574.3874
        49.0004         41.0004
 03 12 16 19 36 30.0000000  0  7G29G28G27G 7G 8G26G11
  21929019.4054  -13327906.71643 -10344812.52242  21929021.5144   21929021.5134
        53.0004         46.0004
  20948805.5424   -2364888.27044  -1836533.23042  20948806.8014   20948805.5874
        57.0004         50.0004
  22734045.2924   12878214.37243  10034437.90542  22734046.5684   22734049.1614
        50.0004         42.0004
  20426033.0924  -20091225.93044 -15638358.13742  20426033.6694   20426034.3754
        58.0004         51.0004
  20687111.7764     882559.53543    690644.96742  20687111.6484   20687112.5974
        56.0004         49.0004
  22157429.9414   -9460839.29943  -7357490.02342  22157431.9064   22157431.9564
        52.0004         45.0004
  23527820.2744   -6993696.11943  -5446142.80442  23527823.4344   23527822.5274
        50.0004         41.0004
 03 12 16 19 37  0.0000000  0  7G29G28G27G 7G 8G26G11
  21931988.9384  -13312296.27043 -10332648.59042  21931991.2914   21931992.0764
        53.0004         46.0004
  20951582.3284   -2350297.05944  -1825163.42542  20951583.5004   20951582.2204
        57.0004         50.0004
  22750641.5924   12965427.00443  10102395.67942  22750643.8324   22750645.0134
        50.0004         42.0004
  20421356.6614  -20115798.39344 -15657505.47142  20421357.7974   20421358.3094
        58.0004         51.0004
  20697053.9554     934804.99143    731355.67842  20697053.5624   20697054.5364
        56.0004         49.0004
  22156682.7824   -9464767.42243  -7360550.88642  22156684.4564   22156685.0284
        52.0004         45.0004
  23533164.8384   -6965613.18443  -5424259.94142  23533168.1674   23533166.2584
        50.0004         41.0004
 03 12 16 19 37 30.0000000  0  7G29G28G27G 7G 8G26G11
  21935065.1114  -13296135.77843 -10320056.02042  21935065.9414   21935067.1374
        53.0004         46.0004
  20954389.4034   -2335543.63144  -1813667.23142  20954390.8674   20954389.5154
        57.0004         50.0004
  22767294.6004   13052940.18543  10170587.61842  22767295.7074   22767298.8244
        50.0004         42.0004
  20416768.2824  -20139910.97644 -15676294.46642  20416769.2294   20416769.8844
        58.0004         51.0004
  20707080.6344     987496.39343    772413.87742  20707080.3684   20707081.3604
        56.0004         49.0004
  22156046.3544   -9468110.52343  -7363155.88842  22156048.4434   22156048.2704
        52.0004         45.0004
  23538605.0804   -6937020.01243  -5401979.53142  23538606.9944   23538608.3604
        50.0004         41.0004
 03 12 16 19 38  0.0000000  0  7G29G28G27G 7G 8G26G11
  21938242.8344  -13279436.54343 -10307043.65942  21938244.5044   21938244.9914
        53.0004         46.0004
  20957225.9474   -2320638.13944  -1802052.54042  20957227.1304   20957226.1004
        57.0004         50.0004
  22784003.3114   13140742.49243  10239004.84142  22784003.7164   22784005.9074
        49.0004         42.0004
  20412265.6054  -20163573.98744 -15694733.14342  20412266.1684   20412266.7944
        58.0004         51.0004
  20717190.2794    1040623.24343    813811.38142  20717190.1924   20717190.9254
        56.0004         49.0004
  22155519.6444   -9470879.08143  -7365313.18742  22155521.2654   22155521.1804
        52.0004         45.0004
  23544140.9504   -6907927.19843  -5379309.77042  23544143.2394   23544145.1654
        48.0004         40.0004
 03 12 16 19 38 30.0000000  0  7G29G28G27G 7G 8G26G11
  21941525.6904  -13262192.24743 -10293606.56842  21941526.3044   21941526.8084
        53.0004         46.0004
  20960092.8274   -2305573.51244  -1790313.85142  20960093.8254   20960092.6434
        57.0004         50.0004
  22800767.9644   13228839.83143  10307651.93742  22800770.0454   22800771.3854
        49.0004         42.0004
  20407849.2944  -20186780.47244 -15712816.08542  20407850.2524   20407850.7894
        58.0004         51.0004
  20727384.0914    1094192.26543    855553.44442  20727384.0554   20727384.9374
        56.0004         49.0004
  22155103.6854   -9473066.27443  -7367017.49542  22155105.5194   22155105.7404
        52.0004         45.0004
  23549774.7854   -6878327.97043  -5356245.42242  23549777.7254   23549775.7214
        49.0004         40.0004
 03 12 16 19 39  0.0000000  0  7G29G28G27G 7G 8G26G11
  21944910.8914  -13244407.14543 -10279748.07042  21944910.7764   21944910.7834
        54.0004         46.0004
  20962989.2324   -2290353.17944  -1778453.84042  20962990.2534   20962989.0604
        57.0004         50.0004
  22817586.3934   13317227.69443  10376525.47242  22817586.8514   22817591.8064
        48.0004         42.0004
  20403519.7154  -20209533.61544 -15730545.78442  20403520.5624   20403520.7054
        58.0004         51.0004
  20737662.1054    1148200.10643    897637.44942  20737662.0844   20737661.9224
        56.0004         49.0004
  22154797.7844   -9474675.31943  -7368271.29242  22154800.0014   22154798.7744
        53.0004         45.0004
  23555502.2764   -6848225.71343  -5332789.10442  23555504.2394   23555503.0594
        49.0004         40.0004
 03 12 16 19 39 30.0000000  0  7G29G28G27G 7G 8G26G11
  21948397.2764  -13226080.19843 -10265467.36442  21948398.5754   21948398.4094
        54.0004         46.0004
  20965915.3364   -2274975.53544  -1766471.25242  20965916.4774   20965915.8374
        57.0004         50.0004
  22834461.4774   13405906.86343  10445625.96642  22834462.4244   22834466.9974
        47.0004         42.0004
  20399276.3884  -20231831.75644 -15747920.93242  20399277.2204   20399277.4504
        58.0004         51.0004
  20748022.3044    1202648.10243    940064.42642  20748022.5334   20748023.2294
        56.0004         49.0004
  22154601.9834   -9475704.90343  -7369073.55842  22154603.2954   22154603.7854
        53.0004         45.0004
  23561325.6374   -6817619.07843  -5308939.81942  23561326.9254   23561328.6454
        49.0004         40.0004
 03 12 16 19 40  0.0000000  0  7G29G28G27G 7G 8G26G11
  21951987.5114  -13207212.32643 -10250765.15642  21951989.0924   21951988.8354
        53.0004         46.0004
  20968871.6174   -2259440.02144  -1754365.64442  20968872.6984   20968871.7464
        57.0004         50.0004
  22851391.2974   13494876.36443  10514952.71342  22851392.2704   22851398.2654
        46.0004         41.0004
  20395119.8384  -20253674.64544 -15764941.34042  20395120.4664   20395121.2464
        58.0004         51.0004
  20758467.8784    1257536.35743    982834.46742  20758467.7154   20758468.4694
        56.0004         49.0004
  22154516.0374   -9476154.75843  -7369424.10542  22154518.1474   22154517.8434
        52.0004         46.0004
  23567247.7064   -6786508.39043  -5284697.74242  23567249.2954   23567249.1304
        49.0004         40.0004
 03 12 16 19 40 30.0000000  0  7G29G28G27G 7G 8G26G11
  21955678.9554  -13187807.73343 -10235644.70742  21955680.7004   21955681.9364
        53.0004         46.0004
  20971857.3244   -2243749.91644  -1742139.58442  20971858.6964   20971857.3014
        57.0004         50.0004
  22868375.3864   13584131.91943  10584502.38042  22868376.4924   22868382.5754
        46.0004         41.0004
  20391049.0214  -20275065.60744 -15781609.60042  20391049.7444   20391050.7474
        57.0004         51.0004
  20768995.9404    1312861.39243   1025944.86242  20768995.7954   20768996.4214
        56.0004         49.0004
  22154540.2684   -9476028.31043  -7369325.58042  22154541.7564   22154542.2094
        53.0004         46.0004
  23573261.9614   -6754897.10243  -5260065.61442  23573263.6084   23573266.2124
        49.0004         41.0004
 03 12 16 19 41  0.0000000  0  7G29G28G27G 7G 8G26G11
  21959474.8914  -13167864.66743 -10220104.65642  21959475.7174   21959476.8224
        53.0004         46.0004
  20974872.9174   -2227902.86843  -1729791.23142  20974874.2814   20974872.9814
        56.0004         50.0004
  22885415.5364   13673674.68143  10654275.85242  22885414.4684   22885421.7504
        46.0004         40.0004
  20387065.2554  -20296002.30244 -15797923.89342  20387066.0104   20387066.5684
        58.0004         51.0004
  20779607.4754    1368625.42443   1069397.32042  20779607.3734   20779607.8314
        56.0004         49.0004
  22154673.5884   -9475323.38743  -7368776.29542  22154675.3574   22154676.8744
        52.0004         45.0004
  23579373.4574   -6722782.98743  -5235041.63142  23579374.4684   23579373.9174
        49.0004         40.0004
 03 12 16 19 41 30.0000000  0  7G29G28G27G 7G 8G26G11
  21963371.7344  -13147384.81943 -10204146.33342  21963372.7454   21963373.0944
        52.0004         46.0004
  20977918.2534   -2211899.31743  -1717320.94142  20977919.3964   20977918.1844
        56.0004         50.0004
  22902510.0064   13763503.02643  10724271.79542  22902509.7714   22902515.4694
        46.0004         40.0004
  20383167.3104  -20316485.36244 -15813884.69342  20383167.8014   20383168.4994
        58.0004         51.0004
  20790302.3164    1424827.42844   1113191.06642  20790302.2624   20790302.9744
        57.0004         49.0004
  22154917.6784   -9474040.75943  -7367776.85442  22154919.3044   22154919.9094
        52.0004         45.0004
  23585580.5914   -6690167.14643  -5209626.73242  23585579.8414   23585583.1584
        48.0004         41.0004
 03 12 16 19 42  0.0000000  0  7G29G28G27G 7G 8G26G11
  21967369.1904  -13126372.82543 -10187773.34742  21967371.6554   21967372.5704
        52.0004         46.0004
  20980992.4134   -2195742.85343  -1704731.49742  20980993.7824   20980992.8064
        56.0004         49.0004
  22919658.3874   13853612.06043  10794486.42942  22919659.5314   22919662.5584
        47.0004         41.0004
  20379354.8334  -20336518.69544 -15829495.06642  20379355.8884   20379356.3304
        58.0004         51.0004
  20801079.7464    1481463.51743   1157323.04642  20801080.0304   20801080.2624
        56.0004         49.0004
  22155271.7264   -9472184.54843  -7366330.46742  22155272.7244   22155273.3134
        52.0004         45.0004
  23591879.8984   -6657053.77843  -5183824.11142  23591883.9974   23591883.0724
        48.0004         41.0004
 03 12 16 19 42 30.0000000  0  7G29G28G27G 7G 8G26G11
  21971470.3264  -13104826.98743 -10170984.38242  21971471.6844   21971471.9214
        53.0004         46.0004
  20984096.4554   -2179430.71343  -1692020.74942  20984097.9664   20984096.8574
        56.0004         49.0004
  22936859.1804   13944003.60543  10864921.20342  22936861.0604   22936861.5784
        48.0004         40.0004
  20375628.8414  -20356099.30344 -15844752.66542  20375629.5164   20375630.1524
        58.0004         51.0004
  20811940.4564    1538536.40644   1201795.40542  20811940.3554   20811940.7854
        57.0004         49.0004
  22155734.1864   -9469751.90643  -7364434.90942  22155736.0384   22155736.2904
        53.0004         45.0004
  23598278.0034   -6623440.14743  -5157631.65042  23598280.1084   23598280.3844
        50.0004         41.0004
 03 12 16 19 43  0.0000000  0  7G29G28G27G 7G 8G26G11
  21975672.4464  -13082749.89043 -10153781.45542  21975673.5794   21975672.7594
        54.0004         46.0004
  20987230.6674   -2162964.42644  -1679189.88242  20987231.4624   20987230.5534
        57.0004         50.0004
  22954113.4764   14034674.62743  10935573.78642  22954113.2724   22954116.1884
        48.0004         40.0004
  20371988.8144  -20375229.09144 -15859658.96742  20371989.2014   20371989.5984
        58.0004         51.0004
  20822883.8644    1596043.99844   1246606.49142  20822884.0334   20822883.1044
        57.0004         49.0004
  22156306.7074   -9466745.04143  -7362091.90842  22156308.0744   22156307.6624
        53.0004         46.0004
  23604768.5834   -6589328.53943  -5131051.13542  23604768.4334   23604772.4184
        49.0004         40.0004
 03 12 16 19 43 30.0000000  0  7G29G28G27G 7G 8G26G11
  21979973.3524  -13060142.34543 -10136165.18842  21979975.1854   21979975.4914
        53.0004         46.0004
  20990393.0864   -2146343.64144  -1666238.62942  20990393.9654   20990393.2684
        57.0004         50.0004
  22971420.9694   14125624.31843  11006443.52342  22971422.1524   22971425.3164
        48.0004         41.0004
  20368433.8564  -20393908.00044 -15874213.93242  20368434.7544   20368435.6444
        58.0004         51.0004
  20833910.1314    1653986.27144   1291756.29942  20833910.0854   20833910.0194
        57.0004         49.0004
  22156988.3514   -9463163.91243  -7359301.41142  22156990.1184   22156990.0354
        53.0004         46.0004
  23611354.8804   -6554719.10643  -5104082.69142  23611356.4454   23611354.7084
        49.0004         40.0004
 03 12 16 19 44  0.0000000  0  7G29G28G27G 7G 8G26G11
  21984376.5224  -13037004.33943 -10118135.56642  21984378.5034   21984378.5514
        53.0004         46.0004
  20993585.5914   -2129567.10744  -1653166.01642  20993586.4974   20993585.4864
        57.0004         50.0004
  22988781.4114   14216852.69543  11077530.39242  22988783.8084   22988787.6024
        48.0004         41.0004
  20364965.6554  -20412134.91944 -15888416.69242  20364966.4834   20364966.9254
        58.0004         51.0004
  20845018.6114    1712363.96543   1337245.39442  20845018.7634   20845018.9084
        56.0004         49.0004
  22157778.8244   -9459007.69043  -7356062.79942  22157781.1674   22157781.1454
        53.0004         46.0004
  23618035.4064   -6519611.24843  -5076725.83542  23618037.0794   23618037.5694
        49.0004         41.0004
 03 12 16 19 44 30.0000000  0  7G29G28G27G 7G 8G26G11
  21988880.1334  -13013336.43743 -10099693.03542  21988882.0444   21988882.6204
        53.0004         46.0004
  20996807.9844   -2112634.17044  -1639971.53142  20996809.2884   20996808.0714
        57.0004         50.0004
  23006194.3784   14308359.04343  11148833.86142  23006194.6684   23006199.9974
        48.0004         41.0004
  20361583.4014  -20429909.55844 -15902267.02742  20361583.9954   20361584.4254
        58.0004         51.0004
  20856210.7504    1771177.37543   1383074.00242  20856210.4794   20856210.9224
        56.0004         49.0004
  22158679.3984   -9454276.17143  -7352375.89842  22158680.9144   22158682.0274
        53.0004         46.0004
  23624811.3064   -6484005.02443  -5048980.65242  23624813.9074   23624813.0244
        49.0004         41.0004
 03 12 16 19 45  0.0000000  0  7G29G28G27G 7G 8G26G11
  21993484.8724  -12989140.74843 -10080839.24242  21993485.7564   21993486.4564
        53.0004         46.0004
  21000059.8604   -2095545.85144  -1626655.96742  21000060.6524   21000059.6534
        57.0004         50.0004
  23023660.0774   14400140.91343  11220352.02042  23023659.7394   23023664.2194
        48.0004         40.0004
  20358286.8574  -20447233.09744 -15915765.85142  20358287.4464   20358287.9884
        58.0004         51.0004
  20867485.2184    1830424.83343   1429240.84142  20867485.2604   20867485.9364
        56.0004         49.0004
  22159688.8144   -9448971.02343  -7348242.00142  22159690.7784   22159691.1874
        52.0004         46.0004
  23631682.3164   -6447901.91443  -5020848.24942  23631684.9424   23631682.6714
        49.0004         40.0004
 03 12 16 19 45 30.0000000  0  7G29G28G27G 7G 8G26G11
  21998188.6664  -12964420.77843 -10061576.91042  21998190.0394   21998191.3644
        52.0004         46.0004
  21003340.8184   -2078304.23144  -1613220.94942  21003341.9444   21003340.7434
        57.0004         50.0004
  23041177.4574   14492194.82443  11292082.17542  23041178.8954   23041182.7214
        47.0004         40.0004
  20355075.0924  -20464108.11744 -15928915.17442  20355076.0424   20355076.7494
        58.0004         51.0004
  20878841.3824    1890103.74743   1475743.88342  20878841.1904   20878842.2394
        56.0004         49.0004
  22160807.3994   -9443094.93443  -7343663.21242  22160807.9784   22160809.2434
        52.0004         45.0004
  23638645.2714   -6411304.97943  -4992331.06842  23638646.1654   23638648.1374
        48.0004         40.0004
 03 12 16 19 46  0.0000000  0  7G29G28G27G 7G 8G26G11
  22002992.9554  -12939175.56243 -10041905.31142  22002994.2894   22002994.7514
        53.0004         46.0004
  21006650.8454   -2060907.14844  -1599664.78542  21006652.3884   21006651.5354
        57.0004         50.0004
  23058746.2234   14584521.98343  11364025.22642  23058749.4114   23058751.0134
        46.0004         40.0004
  20351949.9204  -20480532.72144 -15941713.52242  20351950.9654   20351951.1644
        58.0004         51.0004
  20890280.6234    1950216.00243   1522584.58442  20890279.7514   20890280.9074
        56.0004         49.0004
  22162033.8564   -9436646.08343  -7338638.12442  22162036.2574   22162036.8824
        52.0004         45.0004
  23645704.0504   -6374212.45743  -4963427.71842  23645706.2644   23645706.7144
        48.0004         40.0004
 03 12 16 19 46 30.0000000  0  7G29G28G27G 7G 8G26G11
  22007895.9874  -12913408.45643 -10021827.04342  22007898.0154   22007897.8844
        53.0004         46.0004
  21009991.1894   -2043356.78544  -1585989.17842  21009992.5124   21009991.1254
        57.0004         50.0004
  23076366.8114   14677118.66343  11436178.34342  23076370.1994   23076371.4924
        46.0004         40.0004
  20348909.6904  -20496509.13744 -15954162.62342  20348910.6314   20348910.9234
        58.0004         51.0004
  20901801.5314    2010758.91043   1569760.86642  20901801.1884   20901801.6774
        56.0004         49.0004
  22163369.0164   -9429627.25743  -7333168.88942  22163370.4234   22163372.3354
        51.0004         45.0004
  23652856.4534   -6336627.02643  -4934140.30942  23652857.4824   23652858.6104
        47.0004         40.0004
 03 12 16 19 47  0.0000000  0  7G29G28G27G 7G 8G26G11
  22012898.1644  -12887120.63243 -10001343.01942  22012899.8734   22012900.8124
        53.0004         46.0004
  21013359.7464   -2025652.81444  -1572193.87642  21013361.1564   21013360.0134
        57.0004         50.0004
  23094038.4864   14769983.74843  11508540.55242  23094041.5254   23094045.9904
        45.0004         39.0004
  20345954.7124  -20512037.80044 -15966262.82042  20345955.5284   20345955.6384
        58.0004         51.0004
  20913404.1934    2071732.14143   1617272.46542  20913404.0454   20913404.5914
        56.0004         49.0004
  22164813.3734   -9422038.77543  -7327255.76342  22164814.8224   22164816.1284
        51.0004         45.0004
  23660102.6754   -6298549.25043  -4904469.28642  23660106.2104   23660104.1204
        47.0004         39.0004
 03 12 16 19 47 30.0000000  0  7G29G28G27G 7G 8G26G11
  22017999.5874  -12860312.83943  -9980453.84642  22018001.4384   22018001.8054
        53.0004         46.0004
  21016758.1714   -2007794.51944  -1558278.32342  21016759.0604   21016758.2854
        57.0004         50.0004
  23111760.9414   14863116.54843  11581111.35542  23111760.9934   23111763.9094
        45.0004         38.0004
  20343084.9994  -20527118.21844 -15978013.73542  20343085.6384   20343085.8874
        58.0004         51.0004
  20925089.0894    2133135.74943   1665119.42242  20925088.9214   20925090.0684
        56.0004         49.0004
  22166366.1274   -9413880.79043  -7320898.87642  22166368.3554   22166367.1284
        51.0004         45.0004
  23667440.3204   -6259979.66443  -4874415.05642  23667442.7904   23667440.8754
        45.0004         38.0004
 03 12 16 19 48  0.0000000  0  7G29G28G27G 7G 8G26G11
  22023199.8204  -12832986.83943  -9959160.85342  22023202.0144   22023201.8544
        54.0004         46.0004
  21020185.8304   -1989782.35044  -1544242.85642  21020187.0324   21020186.0454
        57.0004         50.0004
  23129534.4024   14956515.31043  11653889.42742  23129536.0544   23129537.0874
        44.0004         38.0004
  20340300.0764  -20541751.29744 -15989416.07742  20340300.9254   20340301.5234
        58.0004         51.0004
  20936855.7934    2194968.79543   1713301.01642  20936855.6594   20936856.7254
        56.0004         49.0004
  22168026.8404   -9405154.37043  -7314099.05142  22168028.9104   22168028.5714
        52.0004         45.0004
  23674874.6134   -6220918.94843  -4843978.14142  23674877.9714   23674878.8434
        44.0004         38.0004
 03 12 16 19 48 30.0000000  0  7G29G28G27G 7G 8G26G11
  22028497.8224  -12805145.11343  -9937466.01442  22028499.1884   22028499.3204
        53.0004         46.0004
  21023642.8934   -1971617.62444  -1530088.51642  21023644.0744   21023642.4594
        57.0004         50.0004
  23147360.1454   15050177.51243  11726872.75542  23147359.6204   23147363.2074
        45.0004         38.0004
  20337600.4064  -20555938.58244 -16000471.04642  20337601.1764   20337601.6964
        58.0004         51.0004
  20948703.5764    2257229.51743   1761815.86042  20948703.4824   20948703.9444
        56.0004         49.0004
  22169795.1354   -9395861.17343  -7306857.59642  22169797.1784   22169797.2464
        52.0004         45.0004
  23682399.5734   -6181369.32643  -4813160.28242  23682400.6874   23682403.4254
        45.0004         38.0004
 03 12 16 19 49  0.0000000  0  7G29G28G27G 7G 8G26G11
  22033894.1664  -12776788.56443  -9915370.00442  22033895.1674   22033895.4644
        53.0004         46.0004
  21027128.3374   -1953299.57744  -1515814.70542  21027129.5634   21027128.5324
        57.0004         50.0004
  23165232.5924   15144102.05643  11800060.50042  23165232.9304   23165235.2534
        47.0004         39.0004
  20334985.6614  -20569680.01544 -16011178.59742  20334986.1664   20334986.6864
        58.0004         51.0004
  20960632.8604    2319917.70643   1810663.79842  20960632.6094   20960633.2554
        56.0004         49.0004
  22171671.1244   -9386001.58043  -7299174.78542  22171673.0214   22171673.8164
        52.0004         45.0004
  23690021.0524   -6141330.87843  -4781961.52942  23690020.7594   23690021.9264
        46.0004         38.0004
 03 12 16 19 49 30.0000000  0  7G29G28G27G 7G 8G26G11
  22039388.4194  -12747917.20243  -9892872.85342  22039389.7254   22039390.0304
        53.0004         46.0004
  21030643.7764   -1934826.61244  -1501420.17642  21030644.9354   21030643.4494
        58.0004         50.0004
  23183154.9324   15238289.14043  11873452.81942  23183156.3094   23183161.3224
        46.0004         38.0004
  20332455.3524  -20582974.52144 -16021537.90342  20332456.0004   20332456.6924
        57.0004         51.0004
  20972643.4124    2383034.25943   1859845.53042  20972643.2514   20972643.7154
        56.0004         49.0004
  22173656.8754   -9375574.89143  -7291050.07842  22173657.0974   22173656.9634
        53.0004         45.0004
  23697733.2284   -6100802.95643  -4750381.36842  23697732.8264   23697732.4234
        45.0004         38.0004
 03 12 16 19 50  0.0000000  0  7G29G28G27G 7G 8G26G11
  22044979.3084  -12718534.36843  -9869977.15042  22044981.1264   22044981.9384
        53.0004         46.0004
  21034188.0444   -1916200.82544  -1486906.56342  21034189.5244   21034187.6234
        58.0004         50.0004
  23201128.5244   15332735.45343  11947047.12342  23201130.1444   23201133.4794
        47.0004         39.0004
  20330010.6934  -20595824.56344 -16031550.87342  20330011.0624   20330011.5634
        57.0004         51.0004
  20984734.4724    2446576.76543   1909359.17342  20984734.6414   20984735.5864
        56.0004         49.0004
  22175747.1074   -9364583.69243  -7282485.50942  22175749.1414   22175749.0974
        52.0004         46.0004
  23705536.2534   -6059788.50143  -4718422.07342  23705539.1064   23705540.1164
        44.0004         37.0004
 03 12 16 19 50 30.0000000  0  7G29G28G27G 7G 8G26G11
  22050667.9274  -12688637.65043  -9846681.00742  22050670.1504   22050671.3874
        53.0004         46.0004
  21037762.2114   -1897417.94344  -1472270.53842  21037763.4084   21037762.1324
        57.0004         50.0004
  23219151.0154   15427443.45543  12020845.37842  23219153.3624   23219156.8144
        46.0004         39.0004
  20327650.1464  -20608226.47844 -16041214.66442  20327650.8594   20327651.4234
        57.0004         51.0004
  20996908.2294    2510548.47043   1959207.25842  20996908.2964   20996908.8464
        56.0004         48.0004
  22177946.8914   -9353024.77643  -7273478.54542  22177948.7774   22177948.9324
        52.0004         45.0004
  23713435.7504   -6018283.82443  -4686080.81542  23713436.5544   23713438.6274
        45.0004         38.0004
 03 12 16 19 51  0.0000000  0  7G29G28G27G 7G 8G26G11
  22056454.1514  -12658234.24143  -9822990.04342  22056454.7104   22056456.4914
        52.0004         46.0004
  21041365.1754   -1878483.78344  -1457516.62442  21041366.4894   21041364.9694
        58.0004         50.0004
  23237221.2134   15522406.00343  12094841.97142  23237223.3614   23237226.0074
        44.0004         38.0004
  20325374.1224  -20620186.56844 -16050534.17242  20325374.7234   20325375.5494
        58.0004         51.0004
  21009162.5674    2574942.99443   2009384.81442  21009161.9914   21009162.3514
        56.0004         48.0004
  22180252.4854   -9340904.76443  -7264034.36942  22180254.6464   22180254.7924
        52.0004         45.0004
  23721425.3854   -5976296.00143  -4653363.02642  23721425.8964   23721427.9534
        45.0004         37.0004
 03 12 16 19 51 30.0000000  0  7G29G28G27G 7G 8G26G11
  22062337.4244  -12627323.89843  -9798904.08042  22062337.8704   22062338.6734
        53.0004         46.0004
  21044997.5214   -1859396.62344  -1442643.50242  21044998.9084   21044997.2304
        57.0004         50.0004
  23255339.0954   15617623.35243  12169037.14042  23255340.5334   23255347.1064
        45.0004         38.0004
  20323182.6504  -20631703.62544 -16059508.46042  20323183.4244   20323183.8154
        58.0004         51.0004
  21021496.5454    2639761.23743   2059892.53442  21021496.8954   21021496.6804
        56.0004         48.0004
  22182665.7344   -9328222.69643  -7254152.24342  22182667.0804   22182667.9404
        52.0004         45.0004
  23729505.8074   -5933824.09143  -4620268.03742  23729508.8444   23729508.7184
        44.0004         37.0004
 03 12 16 19 52  0.0000000  0  7G29G28G27G 7G 8G26G11
  22068315.0134  -12595908.60343  -9774424.63342  22068316.0804   22068316.4614
        53.0004         46.0004
  21048658.4544   -1840156.70144  -1427651.33642  21048659.9004   21048658.7504
        57.0004         50.0004
  23273507.2484   15713093.85843  12243429.52942  23273508.6014   23273515.5284
        44.0004         39.0004
  20321075.1324  -20642778.45744 -16068138.16242  20321075.9564   20321076.1774
        58.0004         51.0004
  21033912.0204    2705002.42743   2110729.82542  21033911.3484   21033911.1504
        56.0004         48.0004
  22185186.3104   -9314979.99243  -7243833.25242  22185186.9364   22185188.0744
        53.0004         45.0004
  23737680.1364   -5890869.50243  -4586796.91342  23737681.9364   23737685.9084
        46.0004         38.0004
 03 12 16 19 52 30.0000000  0  7G29G28G27G 7G 8G26G11
  22074388.4394  -12563989.43043  -9749552.57942  22074390.2174   22074390.8584
        53.0004         46.0004
  21052349.0554   -1820763.55044  -1412539.78242  21052350.2544   21052349.3194
        57.0004         50.0004
  23291722.1194   15808816.28543  12318018.22042  23291722.7524   23291728.8474
        43.0004         38.0004
  20319051.9074  -20653411.10644 -16076423.30842  20319052.7704   20319052.7274
        58.0004         51.0004
  21046407.0094    2770666.05443   2161896.27942  21046406.9834   21046407.5294
        55.0004         48.0004
  22187813.8934   -9301176.87343  -7233077.58242  22187815.1844   22187815.0814
        54.0004         46.0004
  23745948.0724   -5847432.54543  -4552949.91042  23745948.3164   23745949.6694
        46.0004         38.0004
 03 12 16 19 53  0.0000000  0  7G29G28G27G 7G 8G26G11
  22080557.3054  -12531570.02643  -9724290.71742  22080559.3254   22080559.8564
        53.0004         46.0004
  21056067.9544   -1801219.34744  -1397310.52742  21056069.1574   21056067.8154
        57.0004         50.0004
  23309987.4824   15904786.93943  12392800.33542  23309987.5074   23309992.7344
        45.0004         38.0004
  20317111.8334  -20663604.56744 -16084366.22942  20317112.7864   20317113.3874
        58.0004         51.0004
  21058982.4534    2836749.27843   2213389.70642  21058982.2584   21058982.2124
        55.0004         48.0004
  22190545.8124   -9286816.55243  -7221887.75442  22190547.2044   22190548.1184
        53.0004         46.0004
  23754303.6024   -5803516.66643  -4518729.69242  23754304.2364   23754306.4184
        46.0004         38.0004
 03 12 16 19 53 30.0000000  0  7G29G28G27G 7G 8G26G11
  22086821.5264  -12498655.18943  -9698642.80342  22086822.8874   22086822.7234
        53.0004         46.0004
  21059815.5724   -1781526.53444  -1381965.47342  21059816.7434   21059815.3074
        57.0004         50.0004
  23328296.4294   16001001.43943  12467772.47142  23328296.3114   23328303.1844
        44.0004         37.0004
  20315255.2124  -20673362.00744 -16091969.40142  20315256.1514   20315256.2374
        58.0004         51.0004
  21071636.6214    2903248.45343   2265207.24642  21071636.2774   21071636.4504
        55.0004         48.0004
  22193384.5274   -9271902.92343  -7210266.76542  22193386.0234   22193385.5194
        53.0004         46.0004
  23762750.6724   -5759125.44443  -4484139.12642  23762751.9314   23762752.1234
        47.0004         38.0004
 03 12 16 19 54  0.0000000  0  7G29G28G27G 7G 8G26G11
  22093179.8714  -12465236.80743  -9672602.53442  22093181.9024   22093181.1464
        53.0004         46.0004
  21063593.0854   -1761675.89644  -1366497.43342  21063594.2124   21063592.7114
        57.0004         50.0004
  23346654.6424   16097468.02743  12542941.08642  23346653.4314   23346660.6264
        44.0004         36.0004
  20313482.8354  -20682674.47844 -16099225.85142  20313483.4624   20313484.0234
        57.0004         51.0004
  21084371.6724    2970172.30943   2317355.71342  21084371.6564   21084371.9864
        55.0004         48.0004
  22196329.4714   -9256427.25443  -7198207.83042  22196330.4834   22196330.9254
        53.0004         46.0004
  23771290.6164   -5714250.42743  -4449171.57742  23771292.7714   23771292.3804
        47.0004         38.0004
 03 12 16 19 54 30.0000000  0  7G29G28G27G 7G 8G26G11
  22099633.6484  -12431321.93143  -9646175.37842  22099635.3914   22099636.7634
        53.0004         46.0004
  21067399.3784   -1741672.47544  -1350910.34842  21067400.5834   21067399.3994
        57.0004         50.0004
  23365059.0734   16194179.81343  12618300.81042  23365058.6514   23365061.2534
        44.0004         35.0004
  20311794.3804  -20691548.05344 -16106140.30442  20311795.1974   20311795.4544
        58.0004         51.0004
  21097187.1564    3037515.02743   2369830.56642  21097186.5204   21097187.4014
        55.0004         48.0004
  22199378.9074   -9240395.87043  -7185715.87742  22199381.2484   22199381.4614
        53.0004         46.0004
  23779920.1284   -5668897.80443  -4413831.89542  23779920.3174   23779923.8134
        47.0004         38.0004
 03 12 16 19 55  0.0000000  0  7G29G28G27G 7G 8G26G11
  22106182.1964  -12396910.81043  -9619361.51742  22106184.3134   22106184.5964
        53.0004         46.0004
  21071235.2914   -1721514.76044  -1335203.02642  21071236.3664   21071235.0834
        57.0004         50.0004
  23383506.2634   16291136.59543  12693851.36742  23383508.4484   23383511.3634
        43.0004         36.0004
  20310189.6664  -20699981.90144 -16112712.11342  20310190.3244   20310190.3124
        58.0004         51.0004
  21110081.4364    3105276.90943   2422632.03742  21110081.0444   21110082.1834
        55.0004         48.0004
  22202536.5684   -9223808.54343  -7172790.71942  22202537.7344   22202537.7834
        53.0004         46.0004
  23788642.8024   -5623067.43943  -4378119.97342  23788645.1464   23788642.3314
        49.0004         38.0004
 03 12 16 19 55 30.0000000  0  7G29G28G27G 7G 8G26G11
  22112825.1544  -12362005.16043  -9592162.32542  22112825.7694   22112826.7984
        52.0004         46.0004
  21075100.3704   -1701202.87744  -1319375.57942  21075101.9414   21075100.6214
        57.0004         50.0004
  23402005.8104   16388336.78043  12769591.58542  23402004.3544   23402009.4104
        43.0004         36.0004
  20308668.3684  -20707976.56044 -16118941.69842  20308669.3464   20308668.8484
        58.0004         51.0004
  21123055.9504    3173457.06343   2475759.44542  21123055.4574   21123055.6604
        55.0004         48.0004
  22205796.6604   -9206666.21043  -7159433.07942  22205799.7124   22205800.7894
        52.0004         45.0004
  23797453.6534   -5576760.27943  -4342036.47142  23797455.7964   23797457.4774
        48.0004         39.0004
 03 12 16 19 56  0.0000000  0  7G29G28G27G 7G 8G26G11
  22119560.3604  -12326606.72243  -9564579.14542  22119562.5334   22119563.5684
        52.0004         46.0004
  21078995.7004   -1680736.55344  -1303427.78542  21078996.5094   21078995.4474
        57.0004         50.0004
  23420547.8904   16485778.95743  12845520.30742  23420547.8684   23420553.7164
        43.0004         36.0004
  20307230.5524  -20715532.71244 -16124829.59642  20307231.1394   20307231.2444
        58.0004         51.0004
  21136109.2314    3242054.96943   2529212.37642  21136109.4314   21136109.7124
        55.0004         48.0004
  22209166.4464   -9188970.08543  -7145643.90742  22209166.9014   22209167.7724
        52.0004         45.0004
  23806355.3154   -5529977.40643  -4305582.34042  23806359.5124   23806358.9104
        47.0004         39.0004
 03 12 16 19 56 30.0000000  0  7G29G28G27G 7G 8G26G11
  22126388.2244  -12290723.41543  -9536618.15542  22126390.1594   22126391.7504
        53.0004         46.0004
  21082917.8404   -1660122.00544  -1287364.49642  21082919.3914   21082917.7724
        57.0004         50.0004
  23439135.8284   16583455.13443  12921631.35342  23439137.0674   23439141.0024
        43.0004         37.0004
  20305874.4404  -20722657.35944 -16130381.25842  20305875.2564   20305875.6474
        57.0004         51.0004
  21149241.5504    3311063.19243   2582985.02642  21149241.1714   21149241.6304
        55.0004         48.0004
  22212635.5724   -9170727.38943  -7131428.83342  22212638.0734   22212638.9554
        51.0004         45.0004
  23815349.2014   -5482726.49743  -4268763.54442  23815350.5724   23815349.7454
        48.0004         40.0004
 03 12 16 19 57  0.0000000  0  7G29G28G27G 7G 8G26G11
  22133310.7974  -12254347.50443  -9508273.29442  22133312.7024   22133314.1614
        53.0004         46.0004
  21086871.2104   -1639349.34344  -1271177.98242  21086872.3524   21086870.9504
        57.0004         50.0004
  23457769.2284   16681373.61843  12997931.25342  23457769.4994   23457771.7934
        42.0004         35.0004
  20304602.5794  -20729341.31444 -16135589.52742  20304603.2724   20304603.9064
        57.0004         51.0004
  21162453.3794    3380491.05843   2637084.66342  21162453.1234   21162453.6104
        56.0004         48.0004
  22216214.0584   -9151929.57043  -7116781.19142  22216215.1884   22216216.3804
        52.0004         45.0004
  23824430.6564   -5434998.52343  -4231572.93542  23824431.4464   23824431.9914
        48.0004         39.0004
 03 12 16 19 57 30.0000000  0  7G29G28G27G 7G 8G26G11
  22140326.0914  -12217488.87043  -9479552.28742  22140327.6404   22140327.7754
        53.0004         46.0004
  21090852.3944   -1618426.75044  -1254874.65442  21090853.5464   21090852.3924
        57.0004         50.0004
  23476447.6414   16779524.57043  13074412.31042  23476449.3284   23476452.1264
        44.0004         36.0004
  20303412.8864  -20735593.61444 -16140461.43542  20303413.6324   20303414.0264
        57.0004         51.0004
  21175743.0264    3450328.91243   2691503.77842  21175742.6854   21175742.6474
        56.0004         48.0004
  22219893.5094   -9132586.02543  -7101708.31642  22219895.7764   22219896.4214
        51.0004         45.0004
  23833601.3334   -5386802.87643  -4194017.97642  23833601.9034   23833603.7054
        48.0004         39.0004
 03 12 16 19 58  0.0000000  0  7G29G28G27G 7G 8G26G11
  22147431.3044  -12180146.45343  -9450454.33642  22147432.6744   22147434.3864
        53.0004         46.0004
  21094862.7774   -1597351.18744  -1238452.12142  21094864.3394   21094862.5504
        57.0004         50.0004
  23495170.5564   16877909.13843  13151075.45042  23495172.3314   23495175.0684
        46.0004         37.0004
  20302305.4254  -20741412.08244 -16144995.29642  20302306.2044   20302306.7564
        57.0004         51.0004
  21189111.0154    3520578.83443   2746243.97742  21189110.9924   21189110.9044
        56.0004         48.0004
  22223680.4014   -9112695.10343  -7086208.90042  22223681.6434   22223681.8774
        52.0004         45.0004
  23842862.2204   -5338138.07543  -4156097.38542  23842865.1984   23842865.3794
        48.0004         40.0004
 03 12 16 19 58 30.0000000  0  7G29G28G27G 7G 8G26G11
  22154629.4664  -12142322.02943  -9420980.76242  22154630.8484   22154631.6434
        53.0004         46.0004
  21098902.6784   -1576122.60944  -1221910.34542  21098903.8234   21098902.7354
        57.0004         50.0004
  23513935.5504   16976525.80343  13227919.46342  23513937.1904   23513941.0364
        45.0004         38.0004
  20301280.6284  -20746797.48644 -16149191.69942  20301281.7394   20301281.5504
        57.0004         51.0004
  21202557.3384    3591240.06643   2801304.68542  21202557.6144   21202557.2934
        56.0004         48.0004
  22227569.2744   -9092257.90743  -7070283.82442  22227570.8834   22227571.9964
        52.0004         46.0004
  23852211.9844   -5289005.05343  -4117811.94942  23852213.7424   23852214.6124
        47.0004         40.0004
 03 12 16 19 59  0.0000000  0  6G29G28G 7G 8G26G11
  22161919.2474  -12104016.94343  -9391132.67942  22161920.5064   22161919.8734
        54.0004         46.0004
  21102971.4434   -1554740.04544  -1205248.58642  21102972.5344   21102971.4364
        57.0004         50.0004
  20300338.2394  -20751749.76844 -16153050.60942  20300338.9954   20300339.5644
        57.0004         51.0004
  21216081.5954    3662312.42643   2856685.74842  21216081.5174   21216082.3004
        55.0004         48.0004
  22231561.5894   -9071275.00343  -7053933.52142  22231563.9824   22231565.3784
        52.0004         46.0004
  23861651.3164   -5239404.22043  -4079161.95242  23861652.6824   23861652.7384
        48.0004         40.0004
 03 12 16 19 59 30.0000000  0  6G29G28G 7G 8G26G11
  22169299.0264  -12065232.06943  -9360910.72342  22169300.8064   22169301.0754
        53.0004         46.0004
  21107069.7584   -1533202.65844  -1188466.19542  21107070.8534   21107069.7694
        57.0004         50.0004
  20299478.6394  -20756269.00944 -16156572.07742  20299479.1784   20299479.3364
        57.0004         51.0004
  21229684.8314    3733795.60043   2912386.91442  21229684.0914   21229684.8274
        55.0004         48.0004
  22235660.0144   -9049746.91643  -7037158.39842  22235660.8364   22235661.0884
        53.0004         46.0004
  23871178.2904   -5189336.31943  -4040147.99042  23871180.8004   23871180.5454
        46.0004         40.0004
 03 12 16 20  0  0.0000000  0  6G29G28G 7G 8G26G11
  22176770.1944  -12025972.57943  -9330318.94442  22176771.5614   22176771.6154
        53.0004         46.0004
  21111197.1384   -1511513.49744  -1171565.53942  21111198.3844   21111197.6184
        57.0004         50.0004
  20298700.3074  -20760359.02344 -16159759.08442  20298701.0264   20298700.9574
        58.0004         51.0004
  21243364.2294    3805685.39843   2968404.94242  21243364.0504   21243364.4644
        55.0004         47.0004
  22239858.7344   -9027678.13243  -7019961.95342  22239860.4674   22239860.6304
        53.0004         46.0004
  23880793.3294   -5138805.59343  -4000773.38742  23880792.7594   23880795.1084
        45.0004         39.0004
 03 12 16 20  0 30.0000000  0  6G29G28G 7G 8G26G11
  22184330.1084  -11986239.97843  -9299358.49842  22184332.1144   22184332.6354
        53.0004         46.0004
  21115353.6044   -1489672.10544  -1154546.25942  21115354.7704   21115353.5864
        57.0004         50.0004
  20298003.2904  -20764020.23744 -16162611.95842  20298003.8874   20298004.3744
        57.0004         51.0004
  21257121.8634    3877981.45543   3024739.53242  21257121.5994   21257122.8524
        54.0004         47.0004
  22244161.3764   -9005069.39343  -7002344.74342  22244161.8984   22244163.6224
        53.0004         46.0004
  23890496.2844   -5087812.92443  -3961038.81242  23890497.6934   23890499.4944
        45.0004         39.0004
 03 12 16 20  1  0.0000000  0  6G29G28G 7G 8G26G11
  22191983.0344  -11946026.80143  -9268023.57442  22191984.9624   22191984.2374
        52.0004         46.0004
  21119541.0114   -1467668.88544  -1137400.87642  21119541.8794   21119541.0074
        57.0004         50.0004
  20297389.9804  -20767243.96944 -16165123.94242  20297390.4464   20297390.8834
        58.0004         51.0004
  21270958.3584    3950692.19843   3081397.26742  21270958.1674   21270958.7774
        54.0004         47.0004
  22248567.1024   -8981912.62943  -6984300.51342  22248568.1874   22248569.8614
        53.0004         46.0004
  23900291.8184   -5036350.21743  -3920937.97342  23900291.4584   23900292.3024
        46.0004         39.0004
 03 12 16 20  1 30.0000000  0  7G 4G29G28G 7G 8G26G11
  24016613.8344   -2283857.63753  -1575420.40052  24016614.6674   24016622.3344
        42.0004         37.0004
  22199722.2864  -11905353.74943  -9236330.31842  22199724.0154   22199725.1304
        53.0004         46.0004
  21123754.9244   -1445522.50044  -1120143.93942  21123755.8604   21123754.1274
        57.0004         50.0004
  20296856.0924  -20770049.93544 -16167310.38742  20296856.9124   20296857.2164
        58.0004         51.0004
  21284869.5894    4023797.67443   3138362.57842  21284869.4124   21284870.4744
        54.0004         47.0004
  22253073.5874   -8958228.07643  -6965845.02042  22253076.1494   22253076.3814
        52.0004         45.0004
  23910169.5104   -4984437.47243  -3880486.48542  23910171.6594   23910171.1824
        45.0004         39.0004
 03 12 16 20  2  0.0000000  0  7G 4G29G28G 7G 8G26G11
  23996783.1224   -2388078.03743  -1656630.71942  23996783.7294   23996791.2984
        42.0004         37.0004
  22207551.5534  -11864212.11243  -9204271.92642  22207552.9284   22207554.8154
        52.0004         46.0004
  21127998.1984   -1423222.10344  -1102766.99242  21127999.7144   21127998.3844
        57.0004         50.0004
  20296403.2734  -20772428.05744 -16169163.45342  20296404.1704   20296404.1944
        58.0004         52.0004
  21298858.6504    4097307.66243   3195643.10142  21298858.2914   21298859.2654
        54.0004         47.0004
  22257682.8564   -8934006.26343  -6946970.87942  22257684.7694   22257684.8814
        52.0004         45.0004
  23920134.9534   -4932065.42843  -3839677.10042  23920136.5544   23920138.0094
        43.0004         39.0004
 03 12 16 20  2 30.0000000  0  7G 4G29G28G 7G 8G26G11
  23976949.5574   -2492305.44743  -1737846.58942  23976951.2294   23976959.0644
        46.0004         38.0004
  22215469.4184  -11822606.83343  -9171852.24142  22215470.5624   22215471.5814
        52.0004         46.0004
  21132271.3414   -1400770.17844  -1085271.98042  21132272.2014   21132270.6624
        57.0004         49.0004
  20296031.4374  -20774382.28144 -16170686.20042  20296032.2534   20296032.4854
        58.0004         52.0004
  21312923.0304    4171218.09343   3253235.64442  21312923.4924   21312923.5764
        54.0004         47.0004
  22262393.4504   -8909251.55043  -6927681.48842  22262395.8094   22262397.1314
        52.0004         45.0004
  23930186.2034   -4879238.03543  -3798512.88542  23930187.6594   23930191.0134
        43.0004         39.0004
 03 12 16 20  3  0.0000000  0  7G 4G29G28G 7G 8G26G11
  23957116.3394   -2596534.09043  -1819063.42442  23957117.5744   23957121.7494
        47.0004         39.0004
  22223474.9344  -11780537.00643  -9139070.55842  22223476.3644   22223476.2044
        52.0004         45.0004
  21136572.8224   -1378164.02044  -1067656.77542  21136574.2794   21136572.3914
        57.0004         49.0004
  20295740.6714  -20775910.70244 -16171877.14742  20295741.6474   20295741.6784
        58.0004         51.0004
  21327065.0514    4245530.90343   3311141.72642  21327064.6124   21327064.7234
        55.0004         48.0004
  22267206.5974   -8883962.64143  -6907975.83942  22267208.2014   22267208.0334
        53.0004         45.0004
  23940328.3394   -4825954.09243  -3756992.95942  23940330.8564   23940329.8624
        45.0004         39.0004
 03 12 16 20  3 30.0000000  0  7G 4G29G28G 7G 8G26G11
  23937282.0424   -2700762.02143  -1900279.72242  23937284.9094   23937287.3874
        47.0004         39.0004
  22231568.2854  -11738006.07743  -9105929.60342  22231568.8774   22231570.4664
        52.0004         45.0004
  21140904.0284   -1355404.75844  -1049922.28142  21140904.5544   21140903.6684
        57.0004         49.0004
  20295530.2164  -20777015.30844 -16172737.85342  20295531.1434   20295530.9934
        58.0004         51.0004
  21341282.3654    4320243.59143   3369359.39442  21341282.5554   21341282.4374
        55.0004         48.0004
  22272120.2134   -8858142.09043  -6887855.91842  22272121.3484   22272121.8154
        53.0004         45.0004
  23950552.3854   -4772216.25343  -3715119.34242  23950556.3514   23950555.6164
        42.0004         39.0004
 03 12 16 20  4  0.0000000  0  7G 4G29G28G 7G 8G26G11
  23917448.0974   -2804983.74143  -1981491.23342  23917451.2854   23917454.4854
        48.0004         40.0004
  22239748.6984  -11695013.60043  -9072428.99142  22239750.8784   22239752.2334
        53.0004         45.0004
  21145263.9584   -1332489.73544  -1032066.42042  21145265.3824   21145264.2284
        57.0004         49.0004
  20295400.9954  -20777694.78144 -16173267.28642  20295401.7574   20295401.6094
        58.0004         51.0004
  21355576.1164    4395357.50943   3427889.71642  21355576.1094   21355576.5364
        56.0004         48.0004
  22277135.1714   -8831789.19543  -6867321.19942  22277136.6274   22277136.6864
        52.0004         45.0004
  23960866.0854   -4718023.57343  -3672891.32242  23960866.2104   23960869.5464
        43.0004         38.0004
 03 12 16 20  4 30.0000000  0  7G 4G29G28G 7G 8G26G11
  23897615.7534   -2909197.41543  -2062696.46942  23897618.5524   23897622.5194
        46.0004         40.0004
  22248017.9064  -11651562.74343  -9038571.19042  22248019.9714   22248019.5634
        53.0004         45.0004
  21149654.1434   -1309419.80944  -1014089.85242  21149655.4584   21149654.3684
        57.0004         49.0004
  20295352.3194  -20777950.89544 -16173466.82942  20295353.0204   20295353.0044
        57.0004         51.0004
  21369945.5994    4470870.34443   3486730.86142  21369945.4954   21369945.2194
        56.0004         48.0004
  22282250.1344   -8804906.50043  -6846373.63942  22282251.8214   22282252.6544
        52.0004         45.0004
  23971264.9254   -4663378.53943  -3630310.80442  23971266.9374   23971267.1804
        43.0004         38.0004
 03 12 16 20  5  0.0000000  0  7G 4G29G28G 7G 8G26G11
  23877788.7854   -3013401.18143  -2143893.98642  23877788.4344   23877793.9564
        47.0004         40.0004
  22256372.3854  -11607656.99843  -9004358.96142  22256373.7004   22256374.0274
        52.0004         45.0004
  21154073.1994   -1286196.34744   -995993.64442  21154074.8004   21154073.2064
        57.0004         50.0004
  20295383.5084  -20777785.97444 -16173338.29842  20295384.2754   20295384.5244
        58.0004         51.0004
  21384390.2104    4546779.91643   3545881.14942  21384390.4244   21384390.8474
        56.0004         48.0004
  22287466.3814   -8777496.63443  -6825015.29542  22287467.1514   22287467.9124
        52.0004         45.0004
  23981751.4564   -4608283.46143  -3587379.61042  23981752.1944   23981750.5494
        45.0004         38.0004
 03 12 16 20  5 30.0000000  0  7G 4G29G28G 7G 8G26G11
  23857960.1074   -3117588.37243  -2225078.58942  23857961.5834   23857967.2164
        46.0004         40.0004
  22264815.5854  -11563294.96943  -8969791.16742  22264816.0984   22264815.7944
        52.0004         45.0004
  21158522.9234   -1262815.57644   -977774.86342  21158523.9714   21158522.6054
        57.0004         50.0004
  20295495.5384  -20777197.43044 -16172879.66342  20295496.5834   20295496.4824
        58.0004         51.0004
  21398911.5124    4623088.49943   3605342.35642  21398911.4974   21398911.8704
        55.0004         48.0004
  22292782.0224   -8749557.58343  -6803244.60642  22292783.2624   22292785.2634
        51.0004         45.0004
  23992316.9934   -4552736.28943  -3544096.14142  23992320.8504   23992323.0464
        43.0004         38.0004
 03 12 16 20  6  0.0000000  0  7G 4G29G28G 7G 8G26G11
  23838137.7904   -3221762.21743  -2306252.72942  23838138.3004   23838143.0374
        47.0004         40.0004
  22273341.9034  -11518485.11743  -8934874.43442  22273342.9464   22273343.2744
        52.0004         45.0004
  21163000.8454   -1239283.57944   -959438.25042  21163001.7554   21163000.8064
        57.0004         50.0004
  20295686.8544  -20776192.53344 -16172096.60342  20295687.5174   20295687.6804
        58.0004         51.0004
  21413506.2544    4699788.57543   3665108.62142  21413506.1604   21413507.7434
        54.0004         47.0004
  22298198.3384   -8721097.51043  -6781067.92042  22298199.7874   22298200.3544
        52.0004         45.0004
  24002972.9354   -4496745.05143  -3500466.60442  24002975.4154   24002976.0694
        43.0004         38.0004
 03 12 16 20  6 30.0000000  0  7G 4G29G28G 7G 8G26G11
  23818316.3994   -3325918.80543  -2387413.41642  23818318.4074   23818322.7594
        47.0004         40.0004
  22281954.1154  -11473228.63343  -8899609.68942  22281955.8494   22281955.1644
        53.0004         45.0004
  21167507.3294   -1215599.34644   -940983.00742  21167508.7994   21167507.8254
        57.0004         50.0004
  20295957.3514  -20774771.36144 -16170989.17342  20295958.1554   20295958.2294
        57.0004         51.0004
  21428176.3324    4776879.85743   3725179.73442  21428175.9474   21428177.4034
        54.0004         47.0004
  22303713.9754   -8692116.99643  -6758485.70342  22303714.7914   22303715.2024
        52.0004         45.0004
  24013715.7034   -4440310.32043  -3456491.48542  24013715.8894   24013713.5124
        45.0004         38.0004
 03 12 16 20  7  0.0000000  0  7G 4G29G28G 7G 8G26G11
  23798500.6354   -3430052.27943  -2468556.07742  23798501.1174   23798506.4124
        47.0004         40.0004
  22290650.5544  -11427524.98943  -8863996.51742  22290652.1134   22290652.3784
        53.0004         45.0004
  21172044.1404   -1191760.11544   -922406.99842  21172045.1734   21172044.2714
        57.0004         50.0004
  20296306.8864  -20772932.17444 -16169556.01442  20296307.8444   20296308.3394
        57.0004         51.0004
  21442921.2054    4854363.79943   3785556.82142  21442920.8424   21442922.0554
        53.0004         47.0004
  22309327.8924   -8662614.94643  -6735497.07842  22309330.2074   22309329.7674
        52.0004         45.0004
  24024535.9194   -4383431.02343  -3412169.97042  24024539.6264   24024539.8484
        44.0004         38.0004
 03 12 16 20  7 30.0000000  0  7G 4G29G28G 7G 8G26G11
  23778686.4484   -3534161.66143  -2549679.99842  23778688.9804   23778694.6114
        45.0004         40.0004
  22299432.0094  -11381378.53343  -8828038.26742  22299432.9504   22299434.4814
        52.0004         45.0004
  21176609.9644   -1167767.59344   -903711.53942  21176611.1074   21176610.0814
        57.0004         50.0004
  20296735.9764  -20770678.12144 -16167799.58642  20296736.8134   20296737.3124
        57.0004         51.0004
  21457739.8054    4932237.16343   3846237.34242  21457739.2564   21457741.1744
        53.0004         47.0004
  22315040.8704   -8632595.31043  -6712105.15442  22315042.1214   22315042.0144
        53.0004         45.0004
  24035444.1434   -4326110.53243  -3367504.63742  24035446.9774   24035446.7794
        45.0004         38.0004
 03 12 16 20  8  0.0000000  0  7G 4G29G28G 7G 8G26G11
  23758881.2114   -3638243.14443  -2630782.14042  23758882.0994   23758888.0494
        46.0004         40.0004
  22308298.6924  -11334790.57543  -8791735.99242  22308299.2974   22308299.3894
        52.0004         45.0004
  21181204.7904   -1143620.85044   -884895.90442  21181206.1044   21181204.8044
        57.0004         50.0004
  20297244.0934  -20768009.22144 -16165719.90042  20297244.7864   20297244.7364
        57.0004         51.0004
  21472632.8704    5010499.58743   3907221.02742  21472632.5164   21472633.6634
        54.0004         47.0004
  22320849.3924   -8602058.56243  -6688310.29242  22320852.9314   22320853.8234
        51.0004         45.0004
  24046434.9264   -4268349.27243  -3322495.84142  24046437.2754   24046438.9954
        44.0004         38.0004
